[[{"header":{"parameterUnit":"m.s-1","parameterCategory":1,"la1":30.6,"la2":29.2853,"lo1":-89.7004,"lo2":-87.6739,"dy":0.0162,"dx":0.0183,"nx":112,"ny":82,"refTime":"2026-03-07T00:00:00:Z","depth":0,"parameterNumber":2,"parameterNumberName":"U-component_of_WINDS"},"data":[0.0,0.0,0.0,0.0,0.0,0.0,0.0,0.0,0.0,0.0,0.0,0.0,0.0,0.0,0.0,0.0,0.0,0.0,0.0,0.0,0.0,0.0,0.0,0.0,0.0,0.0,0.0,0.0,0.0,0.0,0.0,0.0,0.0,0.0,0.0,0.0,0.0,0.0,0.0,0.0,0.0,0.0,0.0,0.0,0.0,0.0,0.0,0.0,0.0,0.0,0.0,0.0,0.0,0.0,0.0,0.0,0.0,0.0,0.0,0.0,0.0,0.0,0.0,0.0,0.0,0.0,0.0,0.0,0.0,0.0,0.0,0.0,0.0,0.0,0.0,0.0,0.0,0.0,0.0,0.0,0.0,0.0,0.0,0.0,0.0,0.0,0.0,0.0,0.0,0.0,-3.2029,-3.3608,-3.7557,-4.0113,-4.0113,-3.9233,-3.6535,-3.1529,0.0,0.0,0.0,0.0,0.0,0.0,0.0,0.0,0.0,0.0,0.0,0.0,0.0,0.0,0.0,0.0,0.0,0.0,0.0,0.0,0.0,0.0,0.0,0.0,0.0,0.0,0.0,0.0,0.0,0.0,0.0,0.0,0.0,0.0,0.0,0.0,0.0,0.0,0.0,0.0,0.0,0.0,0.0,0.0,0.0,0.0,0.0,0.0,0.0,0.0,0.0,0.0,0.0,0.0,0.0,0.0,0.0,0.0,0.0,0.0,0.0,0.0,0.0,0.0,0.0,0.0,0.0,0.0,0.0,0.0,0.0,0.0,0.0,0.0,0.0,0.0,0.0,0.0,0.0,0.0,0.0,0.0,0.0,0.0,0.0,0.0,0.0,0.0,0.0,0.0,0.0,0.0,0.0,0.0,0.0,0.0,0.0,0.0,0.0,0.0,0.0,0.0,0.0,0.0,-3.232,-3.7509,-3.9291,-4.0113,-4.0113,-3.8285,-3.5441,-3.1427,0.0,0.0,0.0,0.0,0.0,0.0,0.0,0.0,0.0,0.0,0.0,0.0,0.0,0.0,0.0,0.0,0.0,0.0,0.0,0.0,0.0,0.0,0.0,0.0,0.0,0.0,0.0,0.0,0.0,0.0,0.0,0.0,0.0,0.0,0.0,0.0,0.0,0.0,0.0,0.0,0.0,0.0,0.0,0.0,0.0,0.0,0.0,0.0,0.0,0.0,0.0,0.0,0.0,0.0,0.0,0.0,0.0,0.0,0.0,0.0,0.0,0.0,0.0,0.0,0.0,0.0,0.0,0.0,0.0,0.0,0.0,0.0,0.0,0.0,0.0,0.0,0.0,0.0,0.0,0.0,0.0,0.0,0.0,0.0,0.0,0.0,0.0,0.0,0.0,0.0,0.0,0.0,0.0,0.0,0.0,0.0,0.0,0.0,0.0,0.0,0.0,0.0,0.0,-3.0561,-3.3254,-3.843,-3.9673,-4.0113,-4.0113,-3.843,-3.5622,-3.1461,-3.0108,0.0,0.0,0.0,0.0,0.0,0.0,0.0,0.0,0.0,0.0,0.0,0.0,0.0,0.0,0.0,0.0,0.0,0.0,0.0,0.0,0.0,0.0,0.0,0.0,0.0,0.0,0.0,0.0,0.0,0.0,0.0,0.0,0.0,0.0,0.0,0.0,0.0,0.0,0.0,0.0,0.0,0.0,0.0,0.0,0.0,0.0,0.0,0.0,0.0,0.0,0.0,0.0,0.0,0.0,0.0,0.0,0.0,0.0,0.0,0.0,0.0,0.0,0.0,0.0,0.0,0.0,0.0,0.0,0.0,0.0,0.0,0.0,0.0,0.0,0.0,0.0,0.0,0.0,0.0,0.0,0.0,0.0,0.0,0.0,0.0,0.0,0.0,0.0,0.0,0.0,0.0,0.0,0.0,0.0,0.0,0.0,0.0,0.0,0.0,0.0,0.0,0.0,-3.3173,-3.4866,-3.8836,-3.9774,-4.0113,-4.0113,-3.8261,-3.5419,-3.1461,-2.9314,0.0,0.0,0.0,0.0,0.0,0.0,0.0,0.0,0.0,0.0,0.0,0.0,0.0,0.0,0.0,0.0,0.0,0.0,0.0,0.0,0.0,0.0,0.0,0.0,0.0,0.0,0.0,0.0,0.0,0.0,0.0,0.0,0.0,0.0,0.0,0.0,0.0,0.0,0.0,0.0,0.0,0.0,0.0,0.0,0.0,0.0,0.0,0.0,0.0,0.0,0.0,0.0,0.0,0.0,0.0,0.0,0.0,0.0,0.0,0.0,0.0,0.0,0.0,0.0,0.0,0.0,0.0,0.0,0.0,0.0,0.0,0.0,0.0,0.0,0.0,0.0,0.0,0.0,0.0,0.0,0.0,0.0,0.0,0.0,0.0,0.0,0.0,0.0,0.0,0.0,0.0,0.0,0.0,0.0,0.0,0.0,0.0,0.0,0.0,0.0,0.0,0.0,-3.4358,-3.7405,-3.9774,-4.0079,-4.0113,-4.0113,-3.6829,-3.3728,-3.136,-2.7841,0.0,0.0,0.0,0.0,0.0,0.0,0.0,0.0,0.0,0.0,0.0,0.0,0.0,0.0,0.0,0.0,0.0,0.0,0.0,0.0,0.0,0.0,0.0,0.0,0.0,0.0,0.0,0.0,0.0,0.0,0.0,0.0,0.0,0.0,0.0,0.0,0.0,0.0,0.0,0.0,0.0,0.0,0.0,0.0,0.0,0.0,0.0,0.0,0.0,0.0,0.0,0.0,0.0,0.0,0.0,0.0,0.0,0.0,0.0,0.0,0.0,0.0,0.0,0.0,0.0,0.0,0.0,0.0,0.0,0.0,0.0,0.0,0.0,0.0,0.0,0.0,0.0,0.0,0.0,0.0,0.0,0.0,0.0,0.0,0.0,0.0,0.0,0.0,0.0,0.0,0.0,0.0,0.0,0.0,0.0,0.0,0.0,0.0,0.0,0.0,0.0,0.0,-3.3626,-3.6592,0.0,-4.0113,-3.991,-3.9445,-3.7303,-3.437,-3.0751,0.0,0.0,0.0,0.0,0.0,0.0,0.0,0.0,0.0,0.0,0.0,0.0,0.0,0.0,0.0,0.0,0.0,0.0,0.0,0.0,0.0,0.0,0.0,0.0,0.0,0.0,0.0,0.0,0.0,0.0,0.0,0.0,0.0,0.0,0.0,0.0,0.0,0.0,0.0,0.0,0.0,0.0,0.0,0.0,0.0,0.0,0.0,0.0,0.0,0.0,0.0,0.0,0.0,0.0,0.0,0.0,0.0,0.0,0.0,0.0,0.0,0.0,0.0,0.0,0.0,0.0,0.0,0.0,0.0,0.0,0.0,0.0,0.0,0.0,0.0,0.0,0.0,0.0,0.0,0.0,0.0,0.0,0.0,0.0,0.0,0.0,0.0,0.0,0.0,0.0,0.0,0.0,0.0,0.0,0.0,0.0,0.0,0.0,0.0,0.0,0.0,0.0,-3.0784,-3.3761,-3.6738,0.0,-4.0113,-3.9808,-3.9039,-3.6975,-3.41,-3.0326,0.0,0.0,0.0,0.0,0.0,0.0,0.0,0.0,0.0,0.0,0.0,0.0,0.0,0.0,0.0,0.0,0.0,0.0,0.0,0.0,0.0,0.0,0.0,0.0,0.0,0.0,0.0,0.0,0.0,0.0,0.0,0.0,0.0,0.0,0.0,0.0,0.0,0.0,0.0,0.0,0.0,0.0,0.0,0.0,0.0,0.0,0.0,0.0,0.0,0.0,0.0,0.0,0.0,0.0,0.0,0.0,0.0,0.0,0.0,0.0,0.0,0.0,0.0,0.0,0.0,0.0,0.0,0.0,0.0,0.0,0.0,0.0,0.0,0.0,0.0,0.0,0.0,0.0,0.0,0.0,0.0,0.0,0.0,0.0,0.0,0.0,0.0,0.0,0.0,0.0,0.0,0.0,0.0,0.0,0.0,0.0,0.0,0.0,0.0,0.0,0.0,0.0,-3.092,-3.5115,-3.8464,-3.9943,-4.0113,-3.9808,-3.9039,-3.5588,-3.2476,0.0,0.0,0.0,0.0,0.0,0.0,0.0,0.0,0.0,0.0,0.0,0.0,0.0,0.0,0.0,0.0,0.0,0.0,0.0,0.0,0.0,0.0,0.0,0.0,0.0,0.0,0.0,0.0,0.0,0.0,0.0,0.0,0.0,0.0,0.0,0.0,0.0,0.0,0.0,0.0,0.0,0.0,0.0,0.0,0.0,0.0,0.0,0.0,0.0,0.0,0.0,0.0,0.0,0.0,0.0,0.0,0.0,0.0,0.0,0.0,0.0,0.0,0.0,0.0,0.0,0.0,0.0,0.0,0.0,0.0,0.0,0.0,0.0,0.0,0.0,0.0,0.0,0.0,0.0,0.0,0.0,0.0,0.0,0.0,0.0,0.0,0.0,0.0,0.0,0.0,0.0,0.0,0.0,0.0,0.0,0.0,0.0,0.0,0.0,0.0,0.0,0.0,0.0,-3.092,-3.5115,-3.8464,-3.9943,-4.0113,-3.9605,-3.8328,-3.6231,-3.3355,-2.9567,0.0,0.0,0.0,0.0,0.0,0.0,0.0,0.0,0.0,0.0,0.0,0.0,0.0,0.0,0.0,0.0,0.0,0.0,0.0,0.0,0.0,0.0,0.0,0.0,0.0,0.0,0.0,0.0,0.0,0.0,0.0,0.0,0.0,0.0,0.0,0.0,0.0,0.0,0.0,0.0,0.0,0.0,0.0,0.0,0.0,0.0,0.0,0.0,0.0,0.0,0.0,0.0,0.0,0.0,0.0,0.0,0.0,0.0,0.0,0.0,0.0,0.0,0.0,0.0,0.0,0.0,0.0,0.0,0.0,0.0,0.0,0.0,0.0,0.0,0.0,0.0,0.0,0.0,0.0,0.0,0.0,0.0,0.0,0.0,0.0,0.0,0.0,0.0,0.0,0.0,0.0,0.0,0.0,0.0,0.0,0.0,0.0,0.0,0.0,0.0,0.0,0.0,-3.0818,-3.4844,-3.8125,-3.991,-4.0113,-3.9503,-3.8024,-3.6479,-3.3728,-2.9281,0.0,0.0,0.0,0.0,0.0,0.0,0.0,0.0,0.0,0.0,0.0,0.0,0.0,0.0,0.0,0.0,0.0,0.0,0.0,0.0,0.0,0.0,0.0,0.0,0.0,0.0,0.0,0.0,0.0,0.0,0.0,0.0,0.0,0.0,0.0,0.0,0.0,0.0,0.0,0.0,0.0,0.0,0.0,0.0,0.0,0.0,0.0,0.0,0.0,0.0,0.0,0.0,0.0,0.0,0.0,0.0,0.0,0.0,0.0,0.0,0.0,0.0,0.0,0.0,0.0,0.0,0.0,0.0,0.0,0.0,0.0,0.0,0.0,0.0,0.0,0.0,0.0,0.0,0.0,0.0,0.0,0.0,0.0,0.0,0.0,0.0,0.0,0.0,0.0,0.0,0.0,0.0,0.0,0.0,0.0,0.0,0.0,0.0,0.0,0.0,0.0,0.0,-3.0717,-3.4561,-3.7743,-3.9876,-4.0113,-3.9503,-3.8024,-3.6546,-3.3808,-2.9308,0.0,0.0,0.0,0.0,0.0,0.0,0.0,0.0,0.0,0.0,0.0,0.0,0.0,0.0,0.0,0.0,0.0,0.0,0.0,0.0,0.0,0.0,0.0,0.0,0.0,0.0,0.0,0.0,0.0,0.0,0.0,0.0,0.0,0.0,0.0,0.0,0.0,0.0,0.0,0.0,0.0,0.0,0.0,0.0,0.0,0.0,0.0,0.0,0.0,0.0,0.0,0.0,0.0,0.0,0.0,0.0,0.0,0.0,0.0,0.0,-3.1753,0.0,0.0,0.0,0.0,0.0,0.0,0.0,0.0,0.0,0.0,0.0,0.0,0.0,0.0,0.0,0.0,0.0,0.0,0.0,0.0,0.0,0.0,0.0,0.0,0.0,0.0,0.0,0.0,0.0,0.0,0.0,0.0,0.0,0.0,0.0,0.0,0.0,0.0,0.0,0.0,0.0,-3.0784,-3.4979,-3.8294,-3.9943,-4.0113,-3.9503,-3.8024,-3.7077,-3.4454,-2.955,-2.7038,0.0,0.0,0.0,0.0,0.0,0.0,0.0,0.0,0.0,0.0,0.0,0.0,0.0,0.0,0.0,0.0,0.0,0.0,0.0,0.0,0.0,0.0,0.0,0.0,0.0,0.0,0.0,0.0,0.0,0.0,0.0,0.0,0.0,0.0,0.0,0.0,0.0,0.0,0.0,0.0,0.0,0.0,0.0,0.0,0.0,0.0,0.0,0.0,0.0,0.0,0.0,0.0,0.0,0.0,0.0,0.0,0.0,0.0,0.0,0.0,-3.2707,0.0,0.0,0.0,0.0,0.0,0.0,0.0,0.0,0.0,0.0,0.0,0.0,0.0,0.0,0.0,0.0,0.0,0.0,0.0,0.0,0.0,0.0,0.0,0.0,0.0,0.0,0.0,0.0,0.0,0.0,0.0,0.0,0.0,0.0,0.0,0.0,0.0,0.0,0.0,0.0,-3.0818,-3.481,-3.8058,-3.991,-3.9774,-3.8974,-3.751,-3.6382,-3.4006,-2.998,-2.7421,0.0,0.0,0.0,0.0,0.0,0.0,0.0,0.0,0.0,0.0,0.0,0.0,0.0,0.0,0.0,0.0,0.0,0.0,0.0,0.0,0.0,0.0,0.0,0.0,0.0,0.0,0.0,0.0,0.0,0.0,0.0,0.0,0.0,0.0,0.0,0.0,0.0,0.0,0.0,0.0,0.0,0.0,0.0,0.0,0.0,0.0,0.0,0.0,0.0,0.0,0.0,0.0,0.0,-3.8216,-3.8968,-4.0002,-4.0002,-4.0049,-3.9968,-3.6381,-3.5577,-3.6656,-3.4013,0.0,0.0,0.0,0.0,0.0,0.0,0.0,0.0,0.0,0.0,0.0,0.0,0.0,0.0,0.0,0.0,0.0,0.0,0.0,0.0,0.0,0.0,0.0,0.0,-3.1828,-3.1855,0.0,0.0,0.0,0.0,0.0,0.0,0.0,0.0,0.0,0.0,0.0,0.0,-3.119,-3.4742,-3.7811,-3.9876,-3.9436,-3.8437,-3.7111,-3.5646,-3.3557,-3.0653,-2.7934,-2.5245,0.0,0.0,0.0,0.0,0.0,0.0,0.0,0.0,0.0,0.0,0.0,0.0,0.0,0.0,0.0,0.0,0.0,0.0,0.0,0.0,0.0,0.0,0.0,0.0,0.0,0.0,0.0,0.0,0.0,0.0,0.0,0.0,-3.1427,-3.2293,0.0,0.0,0.0,0.0,0.0,0.0,0.0,0.0,0.0,0.0,0.0,0.0,0.0,-3.5778,-3.6984,-3.8787,-3.951,-3.9149,-4.1437,-4.2341,-4.2025,-4.2025,-4.2311,-4.2728,-4.1641,0.0,-3.8117,-3.6508,0.0,0.0,0.0,0.0,0.0,0.0,0.0,0.0,0.0,0.0,0.0,0.0,0.0,0.0,0.0,0.0,0.0,0.0,0.0,0.0,0.0,0.0,-3.4795,-3.4829,-3.4489,-3.4194,0.0,-3.1495,-2.8299,-2.6454,-2.5252,0.0,0.0,0.0,0.0,0.0,0.0,0.0,-3.2645,-3.5825,-3.8362,-3.9943,-3.9436,-3.8676,-3.7836,-3.6388,-3.4366,-3.1596,-2.9453,-2.747,-2.5753,-2.2828,0.0,0.0,0.0,0.0,0.0,0.0,0.0,0.0,0.0,0.0,0.0,0.0,0.0,0.0,0.0,0.0,0.0,0.0,0.0,0.0,0.0,0.0,0.0,0.0,0.0,0.0,0.0,0.0,0.0,-3.1444,-3.363,-3.3596,-3.364,-3.3141,0.0,0.0,0.0,0.0,0.0,0.0,0.0,0.0,0.0,-3.7195,-3.7913,-3.8871,-4.0224,-4.1444,-4.2102,-4.2192,-4.329,-4.3928,-4.4018,-4.4018,-4.4167,-4.4407,-4.4137,-4.3166,-4.1576,-3.9117,-3.7071,-3.5431,0.0,0.0,0.0,0.0,-3.4215,-3.3699,-3.4911,-3.4591,0.0,-3.268,0.0,0.0,0.0,0.0,0.0,0.0,0.0,0.0,0.0,0.0,-3.511,-3.5957,-3.5875,-3.5742,-3.6131,-3.4697,-3.2505,0.0,-2.9364,-2.8213,-2.4237,0.0,0.0,0.0,0.0,-3.0751,-3.366,-3.6299,-3.8464,-3.9943,-3.9073,-3.7926,-3.6799,-3.5361,-3.3648,-3.1634,-2.9662,-2.8094,-2.7017,-2.438,-2.2412,0.0,0.0,0.0,0.0,0.0,0.0,0.0,0.0,0.0,0.0,0.0,0.0,0.0,0.0,0.0,0.0,0.0,0.0,0.0,0.0,0.0,0.0,0.0,0.0,0.0,0.0,0.0,0.0,-3.2722,-3.507,-3.4816,-3.5339,-3.4849,0.0,0.0,0.0,0.0,0.0,0.0,-3.5669,-3.6716,-3.8242,-4.033,-4.1055,-4.1953,-4.3129,-4.3808,-4.4377,-4.4825,-4.5005,-4.5334,-4.5813,-4.5813,-4.5813,-4.5813,-4.5813,-4.5424,-4.4586,-4.1474,-3.92,-3.7683,-3.6765,-3.6134,-3.586,-3.7437,-3.7343,-3.6654,-3.8249,-3.8007,-3.6746,-3.5429,0.0,-3.3117,-3.0955,0.0,0.0,0.0,0.0,-3.244,-3.3563,-3.4423,-3.5217,-3.6322,-3.6477,-3.6445,-3.6893,-3.6828,-3.5817,0.0,-3.306,-3.2138,-2.7317,0.0,0.0,0.0,0.0,-3.2577,-3.4776,-3.6907,-3.8667,-3.9977,-3.8612,-3.7178,-3.6161,-3.4398,-3.2883,-3.1769,-2.991,-2.86,-2.8056,-2.5838,-2.3876,-2.2286,0.0,0.0,0.0,0.0,0.0,0.0,0.0,0.0,0.0,0.0,0.0,0.0,0.0,0.0,0.0,0.0,0.0,0.0,0.0,0.0,0.0,0.0,0.0,0.0,0.0,0.0,0.0,0.0,0.0,-3.5374,-3.6034,0.0,0.0,0.0,0.0,-3.51,-3.6417,-3.7764,-3.9074,-4.0995,-4.2372,-4.308,-4.3778,-4.4436,-4.5155,-4.5843,-4.616,-4.619,-4.686,-4.7189,-4.7189,-4.7189,-4.7189,-4.7189,-4.7189,-4.683,-4.598,-4.3329,-4.1841,-4.1033,-3.9715,-3.9176,-3.9146,-3.9272,-3.9272,-3.9206,-3.9326,-3.8906,-3.8392,-3.8931,-3.7019,-3.4295,-3.3515,-3.2329,0.0,0.0,-3.3726,-3.5216,-3.5354,-3.5914,-3.6411,-3.6569,-3.607,-3.5973,-3.744,-3.7139,-3.636,0.0,-3.4864,-3.3897,-3.2192,0.0,-3.0987,-3.0886,-3.2239,-3.41,-3.6389,-3.799,-3.9242,-4.0011,-3.8145,-3.681,-3.6759,-3.424,-3.2625,-3.254,-3.0661,-2.9532,-2.9495,-2.695,-2.5387,-2.5108,-2.2162,0.0,0.0,0.0,0.0,0.0,0.0,0.0,0.0,0.0,0.0,0.0,0.0,0.0,0.0,0.0,0.0,0.0,0.0,0.0,0.0,0.0,0.0,0.0,0.0,0.0,0.0,0.0,0.0,-3.8003,-3.9738,0.0,-3.7853,-3.8212,-3.8422,-3.8063,-3.9619,-4.0995,-4.1855,-4.3,-4.4137,-4.5173,-4.5442,-4.5933,-4.6591,-4.683,-4.695,-4.695,-4.7189,-4.7309,-4.7309,-4.7309,-4.7309,-4.7309,-4.7309,-4.716,-4.686,-4.5484,-4.4018,-4.2551,-4.1654,-4.1055,-4.0696,-4.0696,-4.0696,-4.0696,-4.0696,-4.0516,-4.0217,-3.9619,-3.8033,-3.6327,-3.6088,-3.5651,-3.5297,-3.5584,-3.6132,-3.6685,-3.6723,-3.6896,-3.6993,-3.6632,-3.6318,-3.6162,-3.6287,-3.6477,-3.6534,-3.6285,-3.6468,-3.5995,-3.4035,-3.4324,-3.4493,-3.3457,-3.4629,-3.6197,-3.799,-3.8667,-3.9276,-4.0011,-3.8538,-3.7302,-3.6835,-3.4633,-3.2893,-3.2004,-3.0479,-2.9412,-2.8966,-2.6811,-2.5355,-2.4873,-2.2945,-2.0862,0.0,0.0,0.0,0.0,0.0,0.0,0.0,0.0,0.0,0.0,0.0,0.0,0.0,0.0,0.0,0.0,0.0,0.0,0.0,0.0,0.0,0.0,0.0,0.0,0.0,0.0,-3.9828,-4.0068,-4.2192,-4.2821,-4.0636,-4.1414,-4.1773,-4.1115,-4.2491,-4.3629,-4.4276,-4.4975,-4.5723,-4.6621,-4.6651,-4.686,-4.7309,-4.7309,-4.7309,-4.7309,-4.7309,-4.7309,-4.7309,-4.7309,-4.7309,-4.7309,-4.7309,-4.7309,-4.7279,-4.683,-4.5711,-4.4216,-4.3359,-4.2761,-4.2342,-4.2132,-4.2043,-4.2013,-4.1841,-4.1752,-4.1542,-4.0187,-3.899,-3.8033,-3.7823,-3.7584,-3.7464,-3.7674,-3.7734,-3.7734,-3.7734,-3.7734,-3.7524,-3.6686,-3.6477,-3.6297,-3.5639,-3.5879,-3.6291,-3.6538,-3.7262,-3.7261,-3.5521,-3.6082,-3.6413,-3.5392,-3.6095,-3.7236,-3.843,-3.8587,-3.879,-3.9256,-3.8018,-3.6823,-3.6167,-3.4133,-3.2422,-3.129,-3.0011,-2.8936,-2.8278,-2.6782,-2.5525,-2.4634,-2.3131,-2.1265,-1.9031,0.0,0.0,0.0,0.0,0.0,0.0,0.0,0.0,0.0,0.0,0.0,0.0,0.0,0.0,0.0,0.0,0.0,0.0,0.0,0.0,0.0,0.0,0.0,-3.5489,-3.8422,-4.0756,-4.1414,-4.321,-4.3898,-4.265,-4.306,-4.3678,-4.4347,-4.4975,-4.5663,-4.6322,-4.695,-4.7309,-4.7309,-4.7309,-4.7309,-4.7309,-4.7309,-4.7309,-4.7309,-4.7309,-4.7309,-4.7309,-4.7309,-4.7309,-4.7309,-4.7309,-4.7309,-4.7309,-4.7309,-4.692,-4.619,-4.4885,-4.4347,-4.4227,-4.3559,-4.3319,-4.32,-4.265,-4.241,-4.2201,-4.0876,-4.0008,-3.932,-3.8661,-3.8003,-3.7614,-3.8242,-3.8422,-3.8422,-3.8422,-3.8422,-3.8093,-3.6836,-3.6537,-3.6327,-3.5669,-3.5519,-3.5686,-3.6415,-3.7174,-3.7511,-3.6837,-3.671,-3.6736,-3.6751,-3.6734,0.0,-3.7701,-3.7797,-3.7793,-3.7793,-3.6517,-3.5388,-3.4765,-3.2784,-3.124,-3.055,-2.9295,-2.8278,-2.7615,-2.6956,-2.5944,-2.4634,-2.2742,-2.1096,-1.9768,0.0,0.0,0.0,0.0,0.0,0.0,0.0,0.0,0.0,0.0,0.0,0.0,0.0,0.0,0.0,0.0,0.0,0.0,0.0,0.0,0.0,-3.516,-3.7375,-3.7584,-4.0457,-4.294,-4.4077,-4.5574,-4.6172,-4.5304,-4.5843,-4.6082,-4.5741,-4.6381,-4.683,-4.704,-4.7219,-4.7309,-4.7309,-4.7309,-4.7309,-4.7309,-4.7309,-4.7309,-4.7309,-4.7309,-4.7309,-4.7309,-4.7309,-4.7309,-4.7309,-4.7309,-4.7309,-4.7309,-4.7309,-4.7189,-4.695,-4.607,-4.5185,-4.4287,-4.4107,-4.3708,-4.326,-4.312,-4.2761,-4.2351,-4.1991,-4.1055,-4.0098,-3.9918,-3.9379,-3.8901,-3.908,-3.914,-3.914,-3.914,-3.914,-3.8931,-3.8063,-3.7494,-3.6985,-3.6357,-3.5848,-3.5554,-3.575,-3.5975,-3.6415,-3.7335,-3.7505,-3.7527,-3.75,-3.752,0.0,-3.779,-3.7809,-3.7793,-3.7793,-3.6982,-3.614,-3.5471,-3.3892,-3.2269,-3.0663,-2.9342,-2.8278,-2.7615,-2.6482,-2.5472,-2.4634,-2.361,-2.2443,0.0,0.0,0.0,0.0,0.0,0.0,0.0,0.0,0.0,0.0,0.0,0.0,0.0,0.0,0.0,0.0,0.0,0.0,0.0,0.0,0.0,0.0,-3.8093,-4.0337,-4.1175,-4.294,-4.4646,-4.5992,-4.683,-4.716,-4.677,-4.707,-4.716,-4.677,-4.71,-4.7309,-4.7309,-4.7309,-4.7309,-4.7309,-4.7309,-4.7309,-4.7309,-4.7309,-4.7309,-4.7309,-4.7309,-4.7309,-4.7309,-4.7309,-4.7309,0.0,-4.7309,-4.7309,-4.7309,-4.7309,-4.7309,0.0,0.0,0.0,0.0,0.0,-4.3898,-4.329,-4.329,-4.309,-4.2731,-4.25,-4.1871,-4.1115,-4.0576,-4.0127,-3.9768,-3.9499,-3.9373,-3.9373,-3.9373,-3.9373,-3.926,-3.8542,-3.8093,-3.7584,-3.6686,-3.6178,-3.5848,-3.5549,-3.5519,0.0,-3.6692,-3.6845,-3.6935,-3.7233,-3.7025,-3.6935,-3.7233,-3.7025,-3.6845,-3.6845,-3.6441,-3.5912,-3.5256,-3.3921,0.0,0.0,0.0,-2.8158,-2.7225,-2.6153,0.0,0.0,0.0,0.0,0.0,0.0,0.0,0.0,-2.1145,-2.0917,0.0,0.0,0.0,0.0,0.0,0.0,0.0,0.0,0.0,0.0,0.0,0.0,0.0,0.0,0.0,0.0,-4.1003,-4.3369,-4.5155,-4.5484,-4.5963,-4.716,-4.7309,-4.7309,-4.7309,-4.7309,-4.7309,-4.7309,-4.7309,-4.7309,-4.7309,0.0,0.0,0.0,0.0,-4.7309,-4.7309,-4.7309,-4.7309,-4.7309,-4.7309,-4.7309,-4.7309,-4.7309,-4.7309,-4.7309,-4.7309,-4.7309,-4.7309,-4.7309,-4.7309,-4.7249,-4.6591,-4.6219,-4.601,-4.4796,-4.3898,-4.329,-4.329,0.0,0.0,-4.2671,-4.247,-4.2171,-4.0965,-4.0576,-4.0367,-3.9709,-3.9493,-3.9529,-3.9403,-3.9373,-3.926,-3.8661,-3.8452,-3.8093,-3.6956,-3.6596,-3.6297,-3.5729,-3.5549,-3.5519,-3.5519,-3.5519,-3.5718,-3.6384,-3.5911,-3.5718,-3.6384,-3.5879,-3.5519,-3.5519,0.0,0.0,-3.4563,-3.3395,-3.2348,-3.154,-2.9744,-2.8158,-2.6871,-2.6333,-2.6033,-2.5944,-2.6512,-2.6782,-2.6692,-2.7315,-2.7645,-2.7615,-2.4051,-2.361,0.0,0.0,0.0,0.0,0.0,0.0,0.0,0.0,0.0,0.0,0.0,0.0,0.0,0.0,0.0,-4.0457,-4.3,-4.5065,-4.5992,-4.6591,-4.701,-4.7279,-4.7309,-4.7309,-4.7309,-4.7309,-4.7309,-4.7309,-4.7309,-4.7309,-4.7309,-4.7309,-4.7309,-4.7309,-4.7309,-4.7309,-4.7309,-4.7309,-4.7309,-4.7309,0.0,0.0,-4.7309,-4.7309,-4.7309,-4.7309,-4.7309,-4.7309,-4.7309,-4.7309,-4.7309,-4.7249,-4.6591,-4.5992,-4.5394,-4.4616,-4.3898,-4.329,-4.329,-4.329,-4.326,-4.314,-4.2791,-4.2351,-4.2081,-4.1662,0.0,-4.0397,-4.0217,-4.0098,-3.9559,-3.9373,-3.9379,-3.926,-3.8781,-3.8332,-3.8093,-3.7225,-3.6447,-3.6327,-3.5878,-3.5519,-3.5519,-3.5519,-3.5554,-3.5686,-3.5587,-3.5554,-3.5686,-3.5587,-3.5519,-3.5519,-3.5519,-3.522,-3.4563,-3.4264,-3.3365,-3.16,-3.0193,-2.9026,-2.8248,-2.8607,-2.8577,-2.8038,-2.8158,-2.7949,-2.7405,-2.7525,-2.7884,-2.8368,-2.7076,-2.6716,0.0,0.0,0.0,0.0,0.0,0.0,0.0,0.0,0.0,0.0,0.0,-3.4949,-3.6656,0.0,-4.1414,-4.306,-4.4736,-4.6052,-4.6711,-4.71,-4.7309,-4.7309,-4.7309,-4.7309,-4.7309,-4.7309,-4.7309,-4.7309,-4.7309,-4.7309,-4.7309,-4.7309,-4.7309,-4.7309,-4.7309,-4.7309,-4.7309,-4.7309,-4.7309,-4.7309,-4.7309,-4.7309,-4.7309,-4.7309,-4.7309,-4.7309,-4.7309,-4.7309,-4.7309,-4.7309,-4.7309,-4.7279,-4.695,-4.6411,-4.5723,-4.5065,-4.4377,-4.3738,-4.3409,-4.329,-4.329,-4.329,-4.312,-4.2791,-4.25,-4.2171,-4.1782,-4.1085,-4.0666,-4.0337,-4.0008,-3.9679,-3.9373,-3.9373,-3.914,-3.8811,-3.8452,-3.7883,-3.7255,-3.6596,-3.6207,-3.5878,-3.5579,-3.5519,-3.5519,-3.5519,-3.5519,-3.5519,-3.5519,-3.5519,-3.5519,-3.5519,-3.5519,-3.537,-3.5011,-3.4713,-3.3784,-3.2108,-3.142,-3.0761,-3.0076,-3.0372,-3.0402,-3.0046,-3.0402,-3.0402,-3.0043,-3.04,-3.0702,-3.1031,-3.073,-3.0193,0.0,0.0,0.0,0.0,0.0,0.0,0.0,-3.169,-3.3065,-3.4532,-3.6716,-3.8901,-4.0636,-4.2491,-4.4137,-4.5304,-4.6082,-4.6711,-4.7219,-4.7309,-4.7309,-4.7309,-4.7309,-4.7309,-4.7309,-4.7309,-4.7309,-4.7309,-4.7309,-4.7309,-4.7309,-4.7309,-4.7309,-4.7309,-4.7309,-4.7309,-4.7309,-4.7309,-4.7309,-4.7309,-4.7309,-4.7309,-4.7309,-4.7309,-4.7309,-4.7309,-4.7309,-4.7309,-4.7309,-4.7309,-4.7309,-4.7309,-4.7309,-4.698,-4.6441,-4.5753,-4.5005,-4.4227,-4.3678,-4.3409,-4.329,-4.329,-4.329,-4.32,-4.2701,-4.259,-4.244,-4.1782,-4.1242,-4.0756,-4.0636,-4.0098,-3.9582,-3.9582,-3.9463,-3.926,-3.8721,-3.8482,-3.8093,-3.7045,-3.6656,-3.6327,-3.5789,-3.5579,-3.5519,-3.5519,-3.5519,-3.5519,-3.5519,-3.5519,-3.5519,-3.5519,-3.5519,-3.5519,-3.5519,-3.4891,-3.4054,-3.2976,-3.2766,-3.2437,-3.1899,-3.1899,-3.1899,-3.1899,-3.2407,-3.2706,-3.2706,-3.3245,-3.3484,-3.3484,-3.3484,-3.2916,-3.163,-3.0283,-3.0041,-3.2258,-3.2138,-3.2587,0.0,-3.7464,-3.7315,-3.923,-4.0786,-4.2081,-4.2811,-4.4137,-4.5334,-4.6082,-4.677,-4.7219,-4.7309,-4.7309,-4.7309,-4.7309,-4.7309,-4.7309,-4.7309,-4.7309,-4.7309,-4.7309,-4.7309,-4.7309,-4.7309,-4.7309,-4.7309,-4.7309,-4.7309,-4.7309,-4.7309,-4.7309,-4.7309,-4.7309,-4.7309,-4.7309,-4.7309,-4.7309,-4.7309,-4.7309,-4.7309,-4.7309,-4.7309,-4.7309,-4.7309,-4.7309,-4.7309,-4.7249,-4.713,-4.6441,-4.5394,-4.4317,-4.4227,-4.3798,-4.329,-4.329,-4.329,-4.329,-4.32,-4.32,-4.309,-4.247,-4.2231,-4.2051,-4.1452,-4.0786,-4.0277,-4.0277,-3.9858,-3.9409,-3.932,-3.8811,-3.8332,-3.8212,-3.7255,-3.6477,-3.6387,-3.5878,-3.5519,-3.5519,-3.5519,-3.5519,-3.5519,-3.5519,-3.5519,-3.5519,-3.5519,-3.5519,-3.5519,-3.4891,-3.4444,-3.4294,-3.3694,-3.3335,-3.3275,-3.3275,-3.3275,-3.3275,-3.3335,-3.3395,-3.3395,-3.3455,-3.3484,-3.3484,-3.3484,-3.3425,-3.4831,-3.4023,-3.3873,-3.4951,-3.5968,-3.7165,-3.8955,-3.9858,-4.0636,-4.1863,-4.315,-4.4287,-4.4945,-4.5843,-4.6561,-4.686,-4.713,-4.7309,-4.7309,-4.7309,-4.716,-4.677,-4.707,-4.7309,-4.7309,-4.7309,-4.7309,-4.7309,-4.7309,-4.7309,-4.7309,-4.7309,-4.7309,-4.7309,-4.7309,-4.7309,-4.7309,-4.7309,-4.7309,-4.7309,-4.7309,-4.7309,-4.7309,-4.7309,-4.7309,-4.7309,-4.7309,-4.7309,-4.7309,-4.7309,-4.7309,-4.7309,-4.7309,-4.7309,-4.7219,-4.6561,-4.592,-4.5364,-4.4586,-4.4137,-4.3838,-4.3409,-4.329,-4.329,-4.329,-4.329,-4.323,-4.3,-4.2641,-4.2351,-4.2051,-4.1175,-4.0397,-4.0397,-3.9888,-3.9373,-3.9373,-3.92,-3.8871,-3.8482,-3.7973,-3.7345,-3.6626,-3.6267,-3.5938,-3.5579,-3.5519,-3.5519,-3.5519,-3.5519,-3.5519,-3.5519,-3.5519,-3.5519,-3.5519,-3.525,-3.507,-3.507,-3.4831,-3.4651,-3.4651,-3.4651,-3.4651,-3.4651,-3.4651,-3.4651,-3.4651,-3.4651,-3.4651,-3.4651,-3.4651,-3.4651,-3.6237,-3.6207,-3.6626,-3.7165,-3.899,-4.0696,-4.0756,-4.2013,-4.3359,-4.3977,-4.4915,-4.5723,-4.619,-4.6711,-4.704,-4.704,-4.7189,-4.7309,-4.7309,-4.716,-4.686,-4.6339,-4.6591,-4.683,-4.701,-4.7189,-4.7309,-4.7309,-4.7309,-4.7309,-4.7309,-4.7309,-4.7309,-4.7309,-4.7309,-4.7309,-4.7309,-4.7309,-4.7309,-4.7309,-4.7309,-4.7309,-4.7309,-4.7309,-4.7309,-4.7309,-4.7309,-4.7309,-4.7309,-4.7309,-4.7309,-4.7309,-4.7309,-4.7309,-4.7249,-4.677,-4.6429,-4.61,-4.4975,-4.4466,-4.4197,-4.3499,-4.329,-4.329,-4.329,-4.329,-4.329,-4.329,-4.3,-4.2641,-4.2641,-4.1773,-4.0935,-4.0935,-4.0307,-3.9679,-3.9679,-3.9559,-3.926,-3.8781,-3.8512,-3.8093,-3.7165,-3.6716,-3.6327,-3.5848,-3.5609,-3.5519,-3.5519,-3.5519,-3.5519,-3.5519,-3.5519,-3.5519,-3.5519,-3.5519,-3.5519,-3.5519,-3.5519,-3.5519,-3.5519,-3.5519,-3.5519,-3.5519,-3.5519,-3.5519,-3.5519,-3.5519,-3.5519,-3.5519,-3.5519,-3.5519,-3.4773,-3.5522,-3.6956,-3.8841,-4.0337,-4.1833,-4.3748,-4.4706,-4.5394,-4.6082,-4.6219,-4.6249,-4.6279,-4.6352,-4.6309,-4.6309,-4.689,-4.7309,-4.7309,-4.6741,-4.6309,-4.6279,-4.5753,-4.5633,0.0,-4.692,-4.7309,-4.7309,-4.7309,-4.7309,-4.7309,-4.7309,-4.7309,-4.7309,-4.7309,-4.7309,-4.7309,-4.7309,-4.7309,-4.7309,-4.7309,-4.7309,-4.7309,-4.7309,-4.7309,-4.7309,-4.7309,-4.7309,-4.7309,-4.7309,-4.7309,-4.7309,-4.7309,-4.7309,-4.7309,-4.7279,-4.686,-4.619,-4.5514,-4.4855,-4.4197,-4.3499,-4.329,-4.329,-4.329,-4.329,-4.329,-4.329,-4.329,-4.326,-4.326,-4.2791,-4.2351,-4.2351,-4.1362,-4.0367,-4.0367,-3.9858,-3.9373,-3.9343,-3.8841,-3.8392,-3.8332,-3.7315,-3.6477,-3.6447,-3.5908,-3.5519,-3.5519,-3.5519,-3.5519,-3.5519,-3.5519,-3.5519,-3.5519,-3.5519,-3.5519,-3.5519,-3.5519,-3.5519,-3.5519,-3.5519,-3.5519,-3.5519,-3.5519,-3.5519,-3.5519,-3.5519,-3.5519,-3.5519,-3.5519,-3.5519,-3.6387,-3.7734,-3.9469,-4.0995,-4.2671,-4.4287,-4.5394,-4.6172,-4.6561,-4.6381,-4.5963,-4.5514,-4.5065,-4.4975,-4.5125,-4.5574,-4.6202,-4.68,-4.7249,-4.713,-4.6651,-4.5753,-4.5843,0.0,0.0,0.0,0.0,-4.7249,-4.689,-4.683,-4.7279,-4.7309,-4.7309,-4.7309,-4.7309,-4.7309,-4.7309,-4.7309,-4.7309,-4.7309,-4.7309,-4.7309,-4.7309,-4.7309,-4.7309,-4.7309,-4.7309,-4.7309,-4.7309,-4.7309,-4.7309,-4.7309,-4.7309,-4.7309,-4.7309,-4.7309,-4.716,-4.689,-4.6202,-4.5544,-4.4855,-4.4197,-4.3648,-4.329,-4.329,-4.329,-4.329,-4.329,-4.329,-4.329,-4.329,-4.2851,-4.241,-4.241,-4.1722,-4.0935,-4.0487,-4.0217,-3.9948,-3.9499,-3.923,-3.8931,-3.8482,-3.8033,-3.7464,-3.6626,-3.5938,-3.5519,-3.5519,-3.5519,-3.5519,-3.5519,-3.5519,-3.5519,-3.5519,-3.5519,-3.5519,-3.5519,-3.5519,-3.5519,-3.5519,-3.5519,-3.5519,-3.5519,-3.5519,-3.5519,-3.5519,-3.5519,-3.5519,-3.5519,-3.5519,-3.5519,-3.7823,-3.9409,-4.1175,-4.301,-4.4556,-4.5843,-4.6501,-4.683,-4.677,-4.6082,-4.5035,-4.4047,-4.3389,-4.306,-4.3299,-4.4436,-4.5155,-4.5992,-4.716,-4.689,-4.6352,-4.5723,-4.5633,-4.5454,0.0,0.0,0.0,-4.686,-4.677,-4.686,-4.7279,-4.7309,-4.7309,-4.7309,-4.7309,-4.7309,-4.7309,-4.7309,-4.7309,-4.7309,-4.7309,-4.7309,-4.7309,-4.7309,-4.7309,-4.7309,-4.7309,-4.7309,-4.7309,-4.7309,-4.7309,-4.7309,-4.7309,-4.7309,-4.7309,-4.7309,-4.7309,-4.7219,-4.6518,-4.6022,-4.5514,-4.4616,-4.3977,-4.3589,-4.3349,-4.329,-4.329,-4.329,-4.329,-4.329,-4.329,-4.303,-4.2701,-4.2701,-4.2261,-4.1602,-4.0876,-4.0576,-4.0217,-3.9559,-3.9373,-3.9254,-3.8841,-3.8542,-3.8033,-3.6985,-3.6267,-3.5759,-3.5519,-3.5519,-3.5519,-3.5519,-3.5519,-3.5519,-3.5519,-3.5519,-3.5519,-3.5519,-3.5519,-3.5519,-3.5519,-3.5519,-3.5519,-3.5519,-3.5519,-3.5519,-3.5519,-3.5519,-3.5519,-3.5519,-3.5519,-3.5519,-3.905,-4.0576,-4.2222,-4.4736,-4.5873,-4.6488,-4.713,-4.6711,-4.6022,-4.5304,-4.3539,-4.1991,-4.1302,-4.0666,-4.0935,-4.291,-4.3838,-4.5005,-4.701,-4.6202,-4.5633,-4.6219,-4.5185,-4.4915,-4.6142,-4.5155,0.0,-4.619,0.0,-4.7249,-4.7309,-4.7309,-4.7309,-4.7309,-4.7309,-4.7309,-4.7309,-4.7309,-4.7309,-4.7309,-4.7309,-4.7309,-4.7309,-4.7309,-4.7309,-4.7309,-4.7309,-4.7309,-4.7309,-4.7309,-4.7309,-4.7309,-4.7309,-4.7309,-4.7309,-4.7309,-4.7309,-4.7219,-4.6591,-4.6309,-4.607,-4.4796,-4.4347,-4.4197,-4.3499,-4.329,-4.329,-4.329,-4.329,-4.329,-4.329,-4.329,-4.329,-4.329,-4.2851,-4.2261,-4.1602,-4.0905,-4.0247,-3.9553,-3.9403,-3.9373,-3.9373,-3.8841,-3.8182,-3.7554,-3.6926,-3.6297,-3.5639,-3.5519,-3.5519,-3.5519,-3.5519,-3.5519,-3.5519,-3.5519,-3.5519,-3.5519,-3.5519,-3.5519,-3.5519,-3.5519,-3.5519,-3.5519,-3.5519,-3.5519,-3.5519,-3.5519,-3.5519,-3.5519,-3.5519,-3.5519,-4.1242,-4.3299,-4.5214,-4.5903,-4.6561,-4.698,-4.6651,-4.5663,-4.4496,-4.3399,-4.1183,-3.905,-3.7943,-3.8392,-3.9409,-4.0905,-4.294,-4.5005,-4.701,-4.701,-4.6681,-4.6309,-4.6022,-4.5753,-4.5574,-4.5723,0.0,0.0,-4.5992,-4.6232,-4.7249,-4.7309,-4.7309,-4.7309,-4.7309,-4.7309,-4.7309,-4.7309,-4.7309,-4.7309,-4.7309,-4.7309,-4.7309,-4.7309,-4.7309,-4.7309,-4.7309,-4.7309,-4.7309,-4.7309,-4.7309,-4.7309,-4.7309,-4.7309,-4.7309,-4.7309,-4.7309,-4.7279,-4.71,-4.6741,-4.613,-4.5334,-4.4706,-4.4197,-4.3499,-4.329,-4.329,-4.329,-4.329,-4.329,-4.329,-4.329,-4.329,-4.329,-4.317,-4.291,-4.2291,-4.1632,-4.0935,-4.0277,-3.9738,-3.9373,-3.9373,-3.8841,-3.8332,-3.8153,-3.7584,-3.6956,-3.6327,-3.5818,-3.5519,-3.5519,-3.5519,-3.5519,-3.5519,-3.5519,-3.5519,-3.5519,-3.5519,-3.5519,-3.5519,-3.5519,-3.5519,-3.5519,-3.5519,-3.5519,-3.5519,-3.5519,-3.5519,-3.5519,-3.5519,-3.5519,-4.3249,-4.4945,-4.6339,-4.6681,-4.68,-4.6621,-4.5622,-4.4407,-4.2851,-4.0673,-3.8542,-3.6626,-3.504,-3.5789,-3.7285,-3.92,-4.1743,-4.4257,-4.6561,-4.686,-4.683,-4.677,-4.6501,-4.6292,-4.6202,-4.6262,-4.6399,0.0,-4.6411,-4.6501,-4.7279,-4.7309,-4.7309,-4.7309,-4.7309,-4.7309,-4.7309,-4.7309,-4.7309,-4.7309,-4.7309,-4.7309,-4.7309,-4.7309,-4.7309,-4.7309,0.0,-4.7309,-4.7309,-4.7309,-4.7309,-4.7309,-4.7309,-4.7309,-4.7309,-4.7309,-4.7309,-4.7309,-4.7309,-4.707,-4.6651,-4.5963,-4.5304,-4.4616,-4.3958,-4.3529,-4.329,-4.329,-4.329,-4.329,-4.329,-4.329,-4.329,-4.329,-4.329,-4.315,-4.253,-4.2111,-4.1572,-4.0576,-4.0098,-3.9768,-3.9433,-3.911,-3.8841,-3.8841,-3.8272,-3.7704,-3.7375,-3.6507,-3.5818,-3.5549,-3.5519,-3.5519,-3.5519,-3.5519,-3.5519,-3.5519,-3.5519,-3.5519,-3.5519,-3.5519,-3.5519,-3.5519,-3.5519,-3.5519,-3.5519,-3.5519,-3.5519,-3.5519,-3.5519,-3.5519,-4.4915,-4.5933,-4.6591,-4.716,-4.6741,-4.5843,-4.4496,-4.291,-4.0883,-3.7793,-3.5938,-3.4322,-3.2557,-3.3395,-3.5222,-3.7823,-4.0524,-4.3219,-4.5933,-4.6279,-4.6561,-4.7219,-4.68,-4.6681,-4.7249,-4.68,-4.6681,-4.7279,-4.7309,-4.7309,-4.7309,-4.7309,-4.7309,-4.7309,-4.7309,-4.7309,-4.7309,-4.7309,-4.7309,-4.7309,-4.7309,-4.7309,-4.7309,-4.7309,-4.7309,-4.7309,-4.7309,0.0,-4.7309,-4.7309,-4.7309,-4.7309,-4.7309,-4.7309,-4.7309,-4.7309,-4.7309,-4.7309,-4.7309,-4.7309,-4.7189,-4.6531,-4.5933,-4.5304,-4.4646,-4.4047,-4.3529,-4.3439,-4.3409,-4.3409,-4.3319,-4.329,-4.329,-4.329,-4.329,-4.314,-4.265,-4.247,-4.2021,-4.0756,-4.0516,-4.0337,-3.9679,-3.9523,-3.9529,-3.9403,-3.8901,-3.8482,-3.8392,-3.7345,-3.6387,-3.5818,-3.5759,-3.5729,-3.5639,-3.5639,-3.5609,-3.5519,-3.5519,-3.5519,-3.5519,-3.5519,-3.5519,-3.5519,-3.5519,-3.5519,-3.5519,-3.5519,-3.5519,-3.5519,-3.5519,-3.5519,-4.5753,-4.6621,-4.716,-4.7279,-4.6381,-4.5125,-4.3838,-4.0816,-3.7793,-3.6178,-3.3455,-3.127,-3.0911,-3.2407,-3.4532,-3.7165,-3.9828,-4.2671,-4.5831,-4.6279,-4.6561,-4.7219,-4.7219,-4.7189,-4.7309,-4.7189,0.0,0.0,-4.7309,-4.7309,-4.7309,-4.7309,-4.7309,-4.7309,-4.7309,-4.7309,-4.7309,-4.7309,-4.7309,-4.7309,-4.7309,-4.7309,-4.7309,-4.7309,-4.7309,-4.7309,-4.7309,0.0,-4.7309,-4.7309,-4.7309,-4.7309,-4.7309,-4.7309,-4.7309,-4.7309,-4.7309,-4.7309,-4.7309,-4.7309,-4.7189,-4.6531,-4.619,-4.6022,-4.5334,-4.5035,-4.4855,-4.4287,-4.4137,-4.4018,-4.3439,-4.329,-4.329,-4.329,-4.329,-4.326,-4.314,-4.2731,-4.2171,-4.1392,-4.1205,-4.0995,-4.0337,-4.0217,-4.0038,-3.9463,-3.932,-3.902,-3.8452,-3.7734,-3.7195,-3.7075,-3.7075,-3.6866,-3.6357,-3.6327,-3.6088,-3.5549,-3.5519,-3.5519,-3.5519,-3.5519,-3.5519,-3.5519,-3.5519,-3.5519,-3.5519,-3.5519,-3.5519,-3.5519,-3.5519,-3.5519,-4.6471,-4.707,-4.7309,-4.7309,-4.5783,-4.3838,-4.2222,-3.902,-3.5759,-3.3395,-3.136,-2.9804,-2.9116,-3.0881,-3.3125,-3.504,-3.7883,-4.0995,-4.4276,-4.5024,-4.5783,-4.716,-4.7309,-4.7309,-4.7309,-4.7309,-4.7309,-4.7309,-4.7309,-4.7309,-4.7309,-4.7309,-4.7309,-4.7309,-4.7309,-4.7309,-4.7309,-4.7309,-4.7309,-4.7309,-4.7309,-4.7309,-4.7309,-4.7309,-4.7309,-4.7309,-4.7309,0.0,-4.7309,-4.7309,-4.7309,-4.7309,-4.7309,-4.7309,-4.7309,-4.7309,-4.7309,-4.7309,-4.7309,-4.7309,-4.7249,-4.692,-4.6548,-4.6219,-4.5933,-4.5574,-4.5214,-4.4915,-4.4825,-4.4676,-4.3977,-4.3798,-4.3708,-4.3379,-4.329,-4.329,-4.329,-4.309,-4.2671,-4.2051,-4.1931,-4.1722,-4.1025,-4.0905,-4.0696,-4.0038,-3.9918,-3.9679,-3.902,-3.8661,-3.8182,-3.7494,-3.7404,-3.7285,-3.6985,-3.6956,-3.6836,-3.6507,-3.6507,-3.6507,-3.6507,-3.6507,-3.6507,-3.6507,-3.6507,-3.6507,-3.6507,-3.6507,-3.6507,-3.6507,-3.6507,-3.6507,-4.677,-4.7189,-4.7279,-4.713,-4.5095,-4.2611,-4.0636,-3.7434,-3.4023,-3.112,-2.9774,-2.8903,-2.7974,-2.9624,-3.1689,-3.3425,-3.5998,-3.902,-4.2611,-4.3688,-4.4855,-4.686,-4.7219,-4.7309,-4.7309,-4.7309,0.0,-4.7309,-4.7309,-4.7309,-4.7309,-4.7309,-4.7309,-4.7309,-4.7309,-4.7309,-4.7309,-4.7309,-4.7309,-4.7309,-4.7309,-4.7309,-4.7309,-4.7309,-4.7309,-4.7309,-4.7309,0.0,0.0,-4.7309,-4.7309,-4.7309,-4.7309,-4.7309,-4.7309,-4.7309,-4.7309,-4.7309,-4.7309,-4.7309,-4.7309,-4.7309,-4.695,-4.6488,-4.6488,-4.6172,-4.5693,-4.5544,-4.5514,-4.5364,-4.4706,-4.4526,-4.4377,-4.3648,-4.3379,-4.329,-4.329,-4.329,-4.314,-4.2671,-4.262,-4.241,-4.1752,-4.1632,-4.1422,-4.0696,-4.0487,-4.0217,-3.9709,-3.9499,-3.902,-3.7943,-3.7823,-3.7764,-3.7644,-3.7614,-3.7554,-3.7434,-3.7404,-3.7404,-3.7404,-3.7404,-3.7404,-3.7404,-3.7404,-3.7404,-3.7404,-3.7404,-3.7404,-3.7404,-3.7404,-3.7404,-4.6202,-4.686,-4.716,-4.6518,-4.4407,-4.1961,-3.9948,-3.5995,-3.2347,-3.0821,-2.9026,-2.7944,-2.8427,-2.9205,-3.0791,-3.3904,-3.516,-3.7345,-4.1871,-4.303,-4.4197,-4.6172,-4.695,-4.7309,-4.7309,-4.7309,-4.7309,-4.7309,-4.7309,-4.7309,-4.7309,-4.7309,-4.7309,-4.7309,-4.7309,-4.7309,-4.7309,-4.7309,-4.7309,-4.7309,-4.7309,-4.7309,-4.7309,-4.7309,-4.7309,-4.7309,-4.7309,0.0,0.0,-4.7309,-4.7309,-4.7309,-4.7309,-4.7309,-4.7309,-4.7309,-4.7309,-4.7309,-4.7309,-4.7309,-4.7309,-4.7309,-4.7279,-4.7219,-4.7219,-4.7189,-4.701,-4.6381,-4.619,-4.6082,-4.5394,-4.5214,-4.5035,-4.4377,-4.3738,-4.329,-4.329,-4.329,-4.326,-4.323,-4.32,-4.303,-4.241,-4.2321,-4.2081,-4.1384,-4.0786,-4.0367,-4.0307,-3.9798,-3.9343,-3.926,-3.923,-3.899,-3.8362,-3.8302,-3.8033,-3.7434,-3.7404,-3.7404,-3.7404,-3.7404,-3.7404,-3.7404,-3.7404,-3.7404,-3.7404,-3.7404,-3.7404,-3.7404,-3.7404,-3.7404,-4.5891,-4.68,-4.716,-4.6501,-4.4018,-4.1183,-3.8751,-3.4919,-3.1391,-2.9714,-2.8423,-2.7675,-2.7944,-2.8547,-2.9684,-3.1749,-3.2647,-3.4442,-3.8337,-3.9379,-4.0965,-4.4097,-4.5095,-4.5992,0.0,0.0,-4.7309,-4.7309,-4.7309,0.0,-4.7309,-4.7309,-4.7309,-4.7309,-4.7309,-4.7309,-4.7309,-4.7309,-4.7309,-4.7309,-4.7309,-4.7309,-4.7309,-4.7309,-4.7309,-4.7309,-4.7309,0.0,0.0,-4.7309,-4.7309,-4.7309,-4.7309,-4.7309,-4.7309,-4.7309,-4.7309,-4.7309,-4.7309,-4.7309,-4.7309,-4.7309,-4.7309,-4.7309,-4.7309,-4.7309,-4.7249,-4.698,-4.692,-4.677,-4.6082,-4.5603,-4.5214,-4.4975,-4.4407,-4.3888,-4.3888,-4.3559,-4.329,-4.329,-4.329,-4.32,-4.3,-4.294,-4.2731,-4.2111,-4.1782,-4.1482,-4.1025,-4.0756,-4.0457,-4.0068,-3.9649,-3.932,-3.902,-3.902,-3.8901,-3.8631,-3.8601,-3.8601,-3.8601,-3.8601,-3.8601,-3.8601,-3.8601,-3.8601,-3.8601,-3.8601,-3.8601,-3.8601,-3.8601,-3.8601,-4.4706,-4.5903,-4.6501,-4.5663,-4.324,-4.0337,-3.7494,-3.4052,-3.0943,-2.8996,-2.8094,-2.7585,-2.7585,-2.8004,-2.8786,0.0,0.0,-3.2437,-3.5998,-3.7015,-3.8661,-4.2034,-4.321,-4.4436,-4.6232,-4.695,-4.7309,-4.7309,-4.7309,0.0,-4.7309,-4.7309,-4.7309,-4.7309,-4.7309,-4.7309,-4.7309,-4.7309,-4.7309,-4.7309,-4.7309,-4.7309,-4.7309,-4.7309,-4.7309,-4.7309,-4.7309,0.0,0.0,-4.7309,-4.7309,-4.7309,-4.7309,-4.7309,-4.7309,-4.7309,-4.7309,-4.7309,-4.7309,-4.7309,-4.7309,-4.7309,-4.7309,-4.7309,-4.7309,-4.7309,-4.7309,-4.7309,-4.7309,-4.7189,-4.6741,-4.6112,-4.5603,-4.5603,-4.5095,-4.4556,-4.4347,-4.3958,-4.3529,-4.3319,-4.329,-4.329,-4.329,-4.329,-4.314,-4.2731,-4.253,-4.2231,-4.1782,-4.1542,-4.1205,-4.0756,-4.0277,-3.9828,-3.9403,-3.9373,-3.9373,-3.9373,-3.9373,-3.9373,-3.9373,-3.9373,-3.9373,-3.9373,-3.9373,-3.9373,-3.9373,-3.9373,-3.9373,-3.9373,-3.9373,-3.9373,-4.2261,-4.3878,-4.5005,-4.3648,-4.1863,-3.9559,-3.6267,-3.3424,-3.0943,-2.8996,-2.8094,-2.7585,-2.7585,-2.7615,-2.8244,-3.0193,-3.0522,0.0,-3.5938,-3.7015,-3.8153,-4.0187,-4.1632,-4.295,-4.4227,-4.6142,-4.7309,-4.7309,-4.7309,0.0,-4.7309,-4.7309,-4.7309,-4.7309,-4.7309,-4.7309,-4.7309,-4.7309,-4.7309,-4.7309,-4.7309,-4.7309,-4.7309,-4.7309,-4.7309,0.0,0.0,0.0,0.0,-4.7309,-4.7309,-4.7309,-4.7309,-4.7309,-4.7309,-4.7309,-4.7309,-4.7309,-4.7309,-4.7309,-4.7309,-4.7309,-4.7309,-4.7309,-4.7309,-4.7309,-4.7309,-4.7309,-4.7309,-4.7309,-4.7309,-4.68,-4.6279,-4.6279,-4.5783,-4.5095,-4.4436,-4.4317,-4.4107,-4.3409,-4.329,-4.329,-4.329,-4.329,-4.329,-4.329,-4.2761,-4.241,-4.2381,-4.1811,-4.1422,-4.1422,-4.1354,-4.0816,-3.9493,-3.9373,-3.9373,-3.9373,-3.9373,-3.9373,-3.9373,-3.9373,-3.9373,-3.9373,-3.9373,-3.9373,-3.9373,-3.9373,-3.9373,-3.9373,-3.9373,-3.9373,-4.0038,-4.1115,-4.1624,-4.0277,-3.914,-3.7494,-3.4203,-3.2437,-3.0823,-2.8397,-2.7735,-2.7585,-2.7585,-2.7585,-2.8244,-3.0193,-3.0492,0.0,-3.4083,-3.5789,-3.7674,-4.0098,-4.3569,-4.5903,0.0,0.0,-4.7309,-4.7309,0.0,0.0,-4.7309,-4.7309,-4.7309,-4.7309,-4.7309,-4.7309,-4.7309,-4.7309,-4.7309,-4.7309,-4.7309,-4.7309,-4.7309,-4.7309,-4.7309,0.0,0.0,0.0,0.0,-4.7309,-4.7309,-4.7309,-4.7309,-4.7309,-4.7309,-4.7309,-4.7309,-4.7309,-4.7309,-4.7309,-4.7309,-4.7309,-4.7309,-4.7309,-4.7309,-4.7309,-4.7309,-4.7309,-4.7309,-4.7309,-4.7309,-4.716,-4.698,-4.698,-4.6471,-4.5933,-4.5681,-4.4975,-4.4257,-4.4007,-4.3589,-4.329,-4.329,-4.329,-4.329,-4.329,-4.311,-4.303,-4.303,-4.2851,-4.2551,-4.2141,-4.2081,-4.1752,-4.0816,-4.0756,-4.0576,-4.0127,-4.0098,-3.9888,-3.9403,-3.9373,-3.9373,-3.9373,-3.9373,-3.9373,-3.9373,-3.9373,-3.9373,-3.9373,-3.9373,-3.9373,-3.7375,-3.8601,-3.902,-3.7943,-3.7165,-3.5878,-3.2796,-3.16,-3.0434,-2.8094,-2.7585,-2.7585,-2.7585,-2.7585,-2.8094,-2.9535,-3.0013,-3.0851,-3.2856,-3.4861,-3.7285,-4.0397,-4.3958,0.0,0.0,-4.701,-4.7309,-4.7309,0.0,0.0,-4.7309,-4.7309,-4.7309,-4.7309,-4.7309,-4.7309,-4.7309,-4.7309,-4.7309,-4.7309,-4.7309,-4.7309,-4.7309,-4.7309,-4.7309,0.0,0.0,0.0,0.0,-4.7309,-4.7309,-4.7309,-4.7309,-4.7309,-4.7309,-4.7309,-4.7309,-4.7309,-4.7309,-4.7309,-4.7309,-4.7309,-4.7309,-4.7309,-4.7309,-4.7309,-4.7309,-4.7309,-4.7309,-4.7309,-4.7309,-4.7309,-4.7309,-4.7309,-4.698,-4.6621,-4.6339,-4.5622,-4.5005,-4.4736,-4.4347,-4.3947,-4.3708,-4.3678,-4.3589,-4.3319,-4.329,-4.329,-4.329,-4.329,-4.314,-4.2761,-4.2731,-4.2551,-4.2162,-4.1654,-4.1205,-4.0786,-4.0756,-4.0576,-4.0187,-4.0157,-4.0157,-4.0157,-4.0157,-4.0038,-3.9798,-3.9493,-3.9373,-3.9373,-3.9373,-3.9373,0.0,-3.5998,-3.6776,-3.6148,-3.5579,-3.4472,-3.1869,-3.0853,0.0,-2.7944,-2.7525,-2.7555,-2.7645,-2.7585,-2.7824,-2.8727,-2.9355,-3.0402,-3.2377,-3.4532,-3.7345,-4.1205,-4.3359,0.0,-4.5364,-4.6561,-4.7309,0.0,0.0,0.0,-4.7309,-4.7309,-4.7309,-4.7309,-4.7309,-4.7309,-4.7309,-4.7309,-4.7309,-4.7309,-4.7309,-4.7309,-4.7309,-4.7309,-4.7309,0.0,0.0,0.0,0.0,-4.7309,-4.7309,-4.7309,-4.7309,-4.7309,-4.7309,-4.7309,-4.7309,-4.7309,-4.7309,-4.7309,-4.7309,-4.7309,-4.7309,-4.7309,-4.7309,-4.7309,-4.7309,-4.7309,-4.7309,-4.7309,-4.7309,-4.7309,-4.7309,-4.7309,-4.7309,-4.713,-4.6531,-4.6309,-4.6142,-4.5484,-4.5334,-4.5095,-4.4496,-4.4377,-4.4167,-4.3469,-4.3349,-4.3349,-4.329,-4.329,-4.329,-4.329,-4.329,-4.329,-4.329,-4.2222,-4.1542,-4.1444,-4.1444,-4.1482,-4.1422,-4.1422,-4.1422,-4.1422,-4.1422,-4.1085,-4.0457,-3.9858,-3.9559,-3.9559,-3.9559,-3.9559,-3.0612,0.0,-3.1988,-3.136,-3.145,-3.127,0.0,-2.9564,-2.9262,-2.7255,-2.6836,-2.7165,-2.8158,-2.753,-2.7859,-3.1061,-3.1271,-3.1779,-3.3754,-3.7464,-4.1085,-4.4018,-4.5693,-4.6651,-4.683,-4.713,-4.7309,0.0,0.0,-4.7309,-4.7309,-4.7309,-4.7309,-4.7309,-4.7309,-4.7309,-4.7309,-4.7309,-4.7309,-4.7309,-4.7309,-4.7309,-4.7309,-4.7309,-4.7309,0.0,0.0,0.0,-4.7309,-4.7309,-4.7309,-4.7309,-4.7309,-4.7309,-4.7309,-4.7309,-4.7309,-4.7309,-4.7309,-4.7309,-4.7309,-4.7309,-4.7309,-4.7309,-4.7309,-4.7309,-4.7309,-4.7309,-4.7309,-4.7309,-4.7309,-4.7309,-4.7309,-4.7309,-4.7309,-4.7279,-4.71,-4.6681,-4.6219,-4.6112,-4.5663,-4.5244,-4.5095,-4.5065,-4.4855,-4.4197,-4.4077,-4.3898,-4.3349,-4.329,-4.329,-4.329,-4.329,-4.329,-4.329,-4.3021,-4.2671,-4.2201,-4.2171,-4.1931,-4.1414,-4.1422,-4.1422,-4.1422,-4.1422,-4.1294,-4.1145,-4.0995,-4.0905,-4.0905,-4.0905,-4.0905,-2.8573,-2.9804,-3.0881,-3.0552,-3.0731,-3.0673,-2.9714,-2.9056,-2.8304,-2.6871,-2.6363,-2.6452,-2.75,-2.759,-2.8308,-3.0761,-3.1629,-3.3065,-3.6297,-3.9715,-4.2821,-4.5454,-4.6681,-4.7309,0.0,0.0,0.0,0.0,0.0,-4.7309,-4.7309,-4.7309,-4.7309,-4.7309,-4.7309,-4.7309,-4.7309,-4.7309,-4.7309,-4.7309,-4.7309,-4.7309,-4.7309,-4.7309,-4.7309,0.0,0.0,0.0,-4.7309,-4.7309,-4.7309,-4.7309,-4.7309,-4.7309,-4.7309,-4.7309,-4.7309,-4.7309,-4.7309,-4.7309,-4.7309,-4.7309,-4.7309,-4.7309,-4.7309,-4.7309,-4.7309,-4.7309,-4.7309,-4.7309,-4.7309,-4.7309,-4.7309,-4.7309,-4.7309,-4.7309,-4.7309,-4.701,-4.677,-4.677,-4.6471,-4.6112,-4.5813,-4.5753,-4.5544,-4.4855,-4.4766,-4.4646,-4.4287,-4.3917,-4.3738,-4.3738,-4.3469,-4.329,-4.329,-4.329,-4.314,-4.2821,-4.2791,-4.2641,-4.2282,-4.2282,-4.2282,-4.2282,-4.1983,-4.1871,-4.1871,-4.1572,-4.1422,-4.1422,-4.1422,-4.1422,-2.7854,-2.9654,-3.1421,-3.1002,-3.1062,-3.1002,-3.0223,-2.8783,-2.7405,-2.6746,-2.6153,-2.6063,-2.7021,-2.7979,-2.9026,-3.0283,-3.2048,-3.4801,-3.923,-4.1384,-4.3449,-4.6022,-4.689,0.0,-4.7309,0.0,0.0,0.0,0.0,-4.7309,-4.7309,-4.7309,-4.7309,-4.7309,-4.7309,-4.7309,-4.7309,-4.7309,-4.7309,-4.7309,-4.7309,-4.7309,-4.7309,-4.7309,-4.7309,-4.7309,0.0,0.0,-4.7309,-4.7309,-4.7309,-4.7309,-4.7309,-4.7309,-4.7309,-4.7309,-4.7309,-4.7309,-4.7309,-4.7309,-4.7309,-4.7309,-4.7309,-4.7309,-4.7309,-4.7309,-4.7309,-4.7309,-4.7309,-4.7309,-4.7309,-4.7309,-4.7309,-4.7309,-4.7309,-4.7309,-4.7309,-4.7309,-4.7309,-4.7309,-4.7309,-4.713,-4.6561,-4.6429,-4.6232,-4.5544,-4.5454,-4.5424,-4.5304,-4.4796,-4.4466,-4.4466,-4.3828,-4.3439,-4.3439,-4.3349,-4.329,-4.329,-4.329,-4.329,-4.329,-4.329,-4.329,-4.329,-4.2791,-4.256,-4.256,-4.1953,-4.1683,-4.1683,-4.1683,-4.1683,-2.8992,-3.0372,-3.0972,-2.8727,-2.9026,-2.9592,-2.8334,-2.7794,-2.7405,-2.6746,-2.6512,-2.7141,-2.9475,-2.9175,-2.9924,-3.3933,-3.5759,-3.7883,-4.1452,0.0,-4.3917,-4.604,0.0,-4.7309,0.0,0.0,0.0,0.0,0.0,-4.7309,-4.7309,-4.7309,-4.7309,-4.7309,-4.7309,-4.7309,-4.7309,-4.7309,-4.7309,-4.7309,-4.7309,-4.7309,-4.7309,-4.7309,-4.7309,-4.7309,0.0,-4.7309,-4.7309,-4.7309,-4.7309,-4.7309,-4.7309,-4.7309,-4.7309,-4.7309,-4.7309,-4.7309,-4.7309,-4.7309,-4.7309,-4.7309,-4.7309,-4.7309,-4.7309,-4.7309,-4.7309,-4.7309,-4.7309,-4.7309,-4.7309,-4.7309,-4.7309,-4.7309,-4.7309,-4.7309,-4.7309,-4.7309,-4.7309,-4.7309,-4.7309,-4.7279,-4.716,-4.716,-4.692,-4.6262,-4.6172,-4.5963,-4.5364,-4.5214,-4.5155,-4.5155,-4.4556,-4.4167,-4.4167,-4.3618,-4.329,-4.329,-4.329,-4.329,-4.329,-4.329,-4.329,-4.329,-4.32,-4.314,-4.314,-4.305,-4.2991,-4.2991,-4.2991,-4.2991,-2.8364,-2.9475,-3.0193,-2.8992,-3.022,-3.1539,-3.0939,-2.9951,-2.9056,-2.8757,-2.8427,-2.8667,-3.0223,-3.0911,-3.2527,-3.6417,-3.8452,-4.0337,-4.2581,-4.3748,-4.5005,0.0,0.0,-4.7309,0.0,0.0,0.0,0.0,0.0,0.0,-4.7309,-4.7309,-4.7309,-4.7309,-4.7309,-4.7309,-4.7309,-4.7309,-4.7309,-4.7309,-4.7309,-4.7309,-4.7309,-4.7309,-4.7309,-4.7309,0.0,-4.7309,-4.7309,-4.7309,-4.7309,-4.7309,-4.7309,-4.7309,-4.7309,-4.7309,-4.7309,-4.7309,-4.7309,-4.7309,-4.7309,-4.7309,-4.7309,-4.7309,-4.7309,-4.7309,-4.7309,-4.7309,-4.7309,-4.7309,-4.7309,-4.7309,-4.7309,-4.7309,-4.7309,-4.7309,-4.7309,-4.7309,-4.7309,-4.7309,-4.7309,-4.7309,-4.7309,-4.7309,-4.7219,-4.689,-4.686,-4.6741,-4.6411,-4.6082,-4.5843,-4.5843,-4.5244,-4.4855,-4.4855,-4.4556,-4.4077,-4.3349,-4.329,-4.329,-4.329,-4.329,-4.329,-4.329,-4.329,-4.329,-4.329,-4.329,-4.329,-4.329,-4.329,-4.329,-2.8214,-2.8813,-2.9442,-2.9741,-3.121,-3.2706,-3.3155,-3.1839,-3.0642,-3.112,-3.0821,-3.0702,-3.13,-3.3185,-3.5609,-3.8601,-4.0636,-4.2342,-4.3798,-4.4915,-4.5963,-4.716,-4.7309,0.0,0.0,0.0,0.0,0.0,0.0,0.0,-4.7309,-4.7309,-4.7309,-4.7309,-4.7309,-4.7309,-4.7309,-4.7309,-4.7309,-4.7309,-4.7309,-4.7309,-4.7309,-4.7309,-4.7309,-4.7309,-4.7309,-4.7309,-4.7309,-4.7309,-4.7309,-4.7309,-4.7309,-4.7309,-4.7309,-4.7309,-4.7309,-4.7309,-4.7309,-4.7309,-4.7309,-4.7309,-4.7309,-4.7309,-4.7309,-4.7309,-4.7309,-4.7309,-4.7309,-4.7309,-4.7309,-4.7309,-4.7309,-4.7309,-4.7309,-4.7309,-4.7309,-4.7309,-4.7309,-4.7309,-4.7309,-4.7309,-4.7309,-4.7309,-4.7309,-4.7309,-4.7309,-4.7309,-4.7309,-4.686,-4.6518,-4.6518,-4.5933,-4.5454,-4.5304,-4.5304,-4.4855,-4.3828,-4.3618,-4.3439,-4.329,-4.329,-4.329,-4.329,-4.329,-4.329,-4.329,-4.329,-4.329,-4.329,-4.329,-4.329,-2.9983,-2.9505,-2.8966,-3.0133,-3.0163,-3.0342,-3.2168,-3.1509,-3.1031,-3.2886,-3.3245,-3.3425,-3.4084,-3.6297,-3.8721,-4.0816,-4.2312,-4.3828,-4.5801,0.0,-4.6501,-4.7219,-4.7309,0.0,0.0,0.0,0.0,0.0,0.0,0.0,-4.7309,-4.7309,-4.7309,-4.7309,-4.7309,-4.7309,-4.7309,-4.7309,-4.7309,-4.7309,-4.7309,-4.7309,-4.7309,-4.7309,-4.7309,-4.7309,-4.7309,-4.7309,-4.7309,-4.7309,-4.7309,-4.7309,-4.7309,-4.7309,-4.7309,-4.7309,-4.7309,-4.7309,-4.7309,-4.7309,-4.7309,-4.7309,-4.7309,-4.7309,-4.7309,-4.7309,-4.7309,-4.7309,-4.7309,-4.7309,-4.7309,-4.7309,-4.7309,-4.7309,-4.7309,-4.7309,-4.7309,-4.7309,-4.7309,-4.7309,-4.7309,-4.7309,-4.7309,-4.7309,-4.7309,-4.7309,-4.7309,-4.7309,-4.7309,-4.7279,-4.7249,-4.7249,-4.6651,-4.5992,-4.5334,-4.5304,-4.5244,-4.5155,-4.4586,-4.3917,-4.3319,-4.329,-4.329,-4.329,-4.329,-4.329,-4.329,-4.329,-4.329,-4.329,-4.329,-4.329,-2.8667,-2.8637,-2.8906,-3.0193,-3.0642,-3.142,-3.3844,-3.4592,-3.525,-3.6836,-3.7195,-3.7135,-3.6956,-3.8392,-4.0008,-4.1242,-4.318,-4.4975,-4.61,-4.6681,-4.704,-4.7279,0.0,0.0,0.0,0.0,0.0,0.0,0.0,0.0,-4.7309,-4.7309,-4.7309,-4.7309,-4.7309,-4.7309,-4.7309,-4.7309,-4.7309,-4.7309,-4.7309,-4.7309,-4.7309,-4.7309,-4.7309,-4.7309,-4.7309,-4.7309,-4.7309,-4.7309,-4.7309,-4.7309,-4.7309,-4.7309,-4.7309,-4.7309,-4.7309,-4.7309,-4.7309,-4.7309,-4.7309,-4.7309,-4.7309,-4.7309,-4.7309,-4.7309,-4.7309,-4.7309,-4.7309,-4.7309,-4.7309,-4.7309,-4.7309,-4.7309,-4.7309,-4.7309,-4.7309,-4.7309,-4.7309,-4.7309,-4.7309,-4.7309,-4.7309,-4.7309,-4.7309,-4.7309,-4.7309,-4.7309,-4.7309,-4.7309,-4.7309,-4.7309,-4.707,-4.683,-4.6561,-4.6531,-4.6381,-4.5963,-4.5304,-4.4825,-4.4556,-4.4167,-4.3917,-4.3917,-4.3499,-4.329,-4.329,-4.329,-4.329,-4.329,-4.329,-4.329,-2.8154,-2.8124,-2.8577,-2.9894,-3.1002,-3.2557,-3.5459,-3.6626,-3.7734,-3.9888,-3.9858,-3.9313,-3.908,-3.9619,-4.0516,0.0,-4.3868,-4.5603,-4.6501,-4.701,-4.7309,0.0,0.0,0.0,0.0,0.0,0.0,0.0,0.0,0.0,0.0,-4.7309,-4.7309,-4.7309,-4.7309,-4.7309,-4.7309,-4.7309,-4.7309,-4.7309,-4.7309,-4.7309,-4.7309,-4.7309,-4.7309,-4.7309,-4.7309,-4.7309,-4.7309,-4.7309,-4.7309,-4.7309,-4.7309,-4.7309,-4.7309,-4.7309,-4.7309,-4.7309,-4.7309,-4.7309,-4.7309,-4.7309,-4.7309,-4.7309,-4.7309,-4.7309,-4.7309,-4.7309,-4.7309,-4.7309,-4.7309,-4.7309,-4.7309,-4.7309,-4.7309,-4.7309,-4.7309,-4.7309,-4.7309,-4.7309,-4.7309,-4.7309,-4.7309,-4.7309,-4.7309,-4.7309,-4.7309,-4.7309,-4.7309,-4.7309,-4.7309,-4.7309,-4.7309,-4.7309,-4.7309,-4.7309,-4.71,-4.6608,-4.6202,-4.5753,-4.5304,-4.4855,-4.4616,-4.4616,-4.3947,-4.3618,-4.3618,-4.3379,-4.329,-4.329,-4.329,-4.3409,-2.8936,-2.8124,-2.7914,-2.9292,-3.1091,-3.3425,-3.6686,-3.6956,-3.7678,-4.1602,-4.0816,-3.9649,-4.0307,-3.9888,-4.027,-4.2871,-4.4436,-4.5753,-4.713,-4.7309,0.0,0.0,0.0,0.0,0.0,0.0,0.0,0.0,0.0,0.0,0.0,-4.7279,-4.7279,-4.7279,-4.7279,-4.7279,-4.7279,-4.7279,-4.7279,-4.7279,-4.7309,-4.7309,-4.7309,-4.7309,-4.7309,-4.7309,-4.7309,-4.7309,-4.7309,-4.7309,-4.7309,-4.7309,-4.7309,-4.7309,-4.7309,-4.7309,-4.7309,-4.7309,-4.7309,-4.7309,-4.7309,-4.7309,-4.7309,-4.7309,-4.7309,-4.7309,-4.7309,-4.7309,-4.7309,-4.7309,-4.7309,-4.7309,-4.7309,-4.7309,-4.7309,-4.7309,-4.7309,-4.7309,-4.7309,-4.7309,-4.7309,-4.7309,-4.7309,-4.7309,-4.7309,-4.7309,-4.7309,-4.7309,-4.7309,-4.7309,-4.7309,-4.7309,-4.7309,-4.7309,-4.7309,-4.7309,-4.7309,-4.7309,-4.7309,-4.6711,-4.5364,-4.5304,-4.5304,-4.5304,-4.4646,-4.4317,-4.4317,-4.3618,-4.3319,-4.3319,-4.3319,-4.3648,-2.7679,-2.7739,-2.8727,-3.0522,-3.3155,-3.6058,-3.8871,-3.9738,-4.0786,-4.3808,-4.324,-4.2102,-4.1871,-4.1662,0.0,-4.318,-4.4466,-4.5753,-4.713,0.0,0.0,0.0,0.0,0.0,0.0,0.0,0.0,0.0,0.0,0.0,0.0,-4.6142,-4.5873,-4.5873,-4.5873,-4.5873,-4.5873,-4.5873,-4.5873,-4.5903,-4.6381,-4.686,-4.7309,-4.7309,-4.7309,-4.7309,-4.7309,-4.7309,-4.7309,-4.7309,-4.7309,-4.7309,-4.7309,-4.7309,-4.7309,-4.7309,-4.7309,-4.7309,-4.7309,-4.7309,-4.7309,-4.7309,-4.7309,-4.7309,-4.7309,-4.7309,-4.7309,-4.7309,-4.7309,-4.7309,-4.7309,-4.7309,-4.7309,-4.7309,-4.7309,-4.7309,-4.7309,-4.7309,-4.7309,-4.7309,-4.7309,-4.7309,-4.7309,-4.7309,-4.7309,-4.7309,-4.7309,-4.7309,-4.7309,-4.7309,-4.7309,-4.7309,-4.7309,-4.7309,-4.7309,-4.7309,-4.7309,-4.7309,-4.7309,-4.713,-4.6711,-4.6262,-4.6022,-4.6022,-4.5334,-4.5005,-4.5005,-4.4796,-4.4706,-4.4706,-4.4706,-4.4825,-2.8757,-2.9146,-3.0345,-3.2886,-3.5011,-3.7434,-4.1115,-4.2462,-4.3389,-4.4975,-4.4257,-4.324,-4.2821,-4.2312,0.0,-4.321,-4.4227,-4.5274,-4.6352,0.0,0.0,0.0,0.0,0.0,0.0,0.0,0.0,0.0,0.0,0.0,0.0,-4.5514,-4.5304,-4.5304,-4.5304,-4.5304,-4.5304,-4.5304,-4.5304,-4.5304,-4.5723,-4.6262,-4.692,-4.7189,-4.7309,-4.7309,-4.7309,-4.7309,-4.7309,-4.7309,-4.7309,-4.7309,-4.7309,-4.7309,-4.7309,-4.7309,-4.7309,-4.7309,-4.7309,-4.7309,-4.7309,-4.7309,-4.7309,-4.7309,-4.7309,-4.7309,-4.7309,-4.7309,-4.7309,-4.7309,-4.7309,-4.7309,-4.7309,-4.7309,-4.7309,-4.7309,-4.7309,-4.7309,-4.7309,-4.7309,-4.7309,-4.7309,-4.7309,-4.7309,-4.7309,-4.7309,-4.7309,-4.7309,-4.7309,-4.7309,-4.7309,-4.7309,-4.7309,-4.7309,-4.7309,-4.7309,-4.7309,-4.7309,-4.7309,-4.7309,-4.7309,-4.692,-4.6711,-4.6711,-4.6052,-4.5693,-4.5693,-4.5424,-4.5304,-4.5304,-4.5304,-4.5454,-3.0853,-3.1331,-3.2288,-3.5639,-3.6746,-3.8302,-4.321,-4.4766,-4.5244,-4.5364,-4.4407,-4.3539,-4.3409,-4.2402,-4.1953,-4.317,-4.3888,-4.4556,-4.5214,0.0,0.0,0.0,0.0,0.0,0.0,0.0,0.0,0.0,0.0,0.0,0.0,-4.5155,-4.5125,-4.5125,-4.5125,-4.5125,-4.5125,-4.5125,-4.5125,0.0,-4.5185,-4.5544,-4.613,-4.689,-4.7249,-4.7309,-4.7309,-4.7309,-4.7309,-4.7309,-4.7309,-4.7309,-4.7309,-4.7309,-4.7309,-4.7309,-4.7309,-4.7309,-4.7309,-4.7309,-4.7309,-4.7309,-4.7309,-4.7309,-4.7309,-4.7309,-4.7309,-4.7309,-4.7309,-4.7309,-4.7309,-4.7309,-4.7309,-4.7309,-4.7309,-4.7309,-4.7309,-4.7309,-4.7309,-4.7309,-4.7309,-4.7309,-4.7309,-4.7309,-4.7309,-4.7309,-4.7309,-4.7309,-4.7309,-4.7309,-4.7309,-4.7309,-4.7309,-4.7309,-4.7309,-4.7309,-4.7309,-4.7309,-4.7309,-4.7309,-4.7309,-4.7309,-4.7309,-4.7309,-4.6711,-4.6369,-4.6369,-4.5783,-4.5484,-4.5484,-4.5484,-4.5813,-2.8513,-2.9953,-3.2288,-3.5639,-3.8846,-4.1692,-4.3838,-4.4436,-4.4825,-4.5873,-4.5454,-4.4736,-4.4197,-4.3449,-4.314,-4.3917,-4.4227,-4.4556,0.0,0.0,0.0,0.0,0.0,0.0,0.0,0.0,0.0,0.0,0.0,0.0,-4.4526,-4.4047,-4.3708,-4.3708,-4.3708,-4.3708,-4.3708,-4.3708,-4.3708,0.0,-4.4287,-4.4616,-4.4796,-4.5992,-4.68,-4.7309,-4.7309,-4.7309,-4.7309,-4.7309,-4.7309,-4.7309,-4.7309,-4.7309,-4.7309,-4.7309,-4.7309,-4.7309,-4.7309,-4.7309,-4.7309,-4.7309,-4.7309,-4.7309,-4.7309,-4.7309,-4.7309,-4.7309,-4.7309,-4.7309,-4.7309,-4.7309,-4.7309,-4.7309,-4.7309,-4.7309,-4.7309,-4.7309,-4.7309,-4.7309,-4.7309,-4.7309,-4.7309,-4.7309,-4.7309,-4.7309,-4.7309,-4.7309,-4.7309,-4.7309,-4.7309,-4.7309,-4.7309,-4.7309,-4.7309,-4.7309,-4.7309,-4.7309,-4.7309,-4.7309,-4.7309,-4.7309,-4.7309,-4.7309,-4.716,-4.71,-4.71,-4.695,-4.686,-4.686,-4.686,-4.695,-2.9594,-3.142,-3.3814,-3.7464,-4.0606,-4.309,-4.4077,-4.4317,-4.4526,-4.5214,-4.5065,-4.4706,-4.4377,-4.3738,-4.3409,-4.3738,-4.3798,0.0,0.0,0.0,0.0,0.0,0.0,0.0,0.0,0.0,0.0,0.0,0.0,-4.3798,-4.3798,-4.3469,-4.329,-4.329,-4.329,-4.329,-4.329,-4.329,-4.329,-4.329,-4.3648,-4.4018,-4.4377,-4.5723,-4.6501,-4.686,-4.716,-4.7309,-4.7309,-4.7309,-4.7309,-4.7309,-4.7309,-4.7309,-4.7309,-4.7309,-4.7309,-4.7309,-4.7309,-4.7309,-4.7309,-4.7309,-4.7309,-4.7309,-4.7309,-4.7309,-4.7309,-4.7309,-4.7309,-4.7309,-4.7309,-4.7309,-4.7309,-4.7309,-4.7309,-4.7309,-4.7309,-4.7309,-4.7309,-4.7309,-4.7309,-4.7309,-4.7309,-4.7309,-4.7309,-4.7309,-4.7309,-4.7309,-4.7309,-4.7309,-4.7309,-4.7309,-4.7309,-4.7309,-4.7309,-4.7309,-4.7309,-4.7309,-4.7309,-4.7309,-4.7309,-4.7309,-4.7309,-4.7309,-4.7309,-4.7309,-4.7309,-4.7309,-4.7309,-4.7309,-4.7309,-4.7309,-3.0432,-3.2766,-3.5462,-3.9409,-4.1803,-4.3329,-4.3988,-4.4137,-4.4137,-4.4137,-4.4227,-4.4287,-4.4167,-4.3648,-4.329,-4.329,-4.329,0.0,0.0,0.0,0.0,0.0,0.0,0.0,0.0,0.0,0.0,0.0,0.0,-4.329,-4.329,-4.329,-4.329,-4.329,-4.329,-4.329,-4.329,-4.329,-4.329,-4.329,-4.329,-4.3589,-4.4197,-4.5424,-4.607,-4.6309,-4.689,-4.7189,-4.7309,-4.7309,-4.7309,-4.7309,-4.7309,-4.7309,-4.7309,-4.7309,-4.7309,-4.7309,-4.7309,-4.7309,-4.7309,-4.7309,-4.7309,-4.7309,-4.7309,-4.7309,-4.7309,-4.7309,-4.7309,-4.7309,-4.7309,-4.7309,-4.7309,-4.7309,-4.7309,-4.7309,-4.7309,-4.7309,-4.7309,-4.7309,-4.7309,-4.7309,-4.7309,-4.7309,-4.7309,-4.7309,-4.7309,-4.7309,-4.7309,-4.7309,-4.7309,-4.7309,-4.7309,-4.7309,-4.7309,-4.7309,-4.7309,-4.7309,-4.7309,-4.7309,-4.7309,-4.7309,-4.7309,-4.7309,-4.7309,-4.7309,-4.7309,-4.7309,-4.7309,-4.7309,-4.7309,-4.7309,-2.5681,-2.9983,-3.5462,-3.9409,-4.1444,-4.2671,-4.326,-4.3409,-4.3409,-4.3409,-4.3888,-4.4137,-4.3529,-4.3349,-4.329,-4.329,0.0,0.0,0.0,0.0,0.0,0.0,0.0,0.0,0.0,0.0,0.0,0.0,-4.329,-4.329,-4.329,-4.329,-4.329,-4.329,-4.329,-4.329,-4.329,-4.329,-4.329,-4.329,-4.329,-4.3349,-4.3439,-4.4216,-4.5173,-4.6279,-4.6369,-4.677,-4.7309,-4.7309,-4.7309,-4.7309,-4.7309,-4.7309,-4.7309,-4.7309,-4.7309,-4.7309,-4.7309,-4.7309,-4.7309,-4.7309,-4.7309,-4.7309,-4.7309,-4.7309,-4.7309,-4.7309,-4.7309,-4.7309,-4.7309,-4.7309,-4.7309,-4.7309,-4.7309,-4.7309,-4.7309,-4.7309,-4.7309,-4.7309,-4.7309,-4.7309,-4.7309,-4.7309,-4.7309,-4.7309,-4.7309,-4.7309,-4.7309,-4.7309,-4.7309,-4.7309,-4.7309,-4.7309,-4.7309,-4.7309,-4.7309,-4.7309,-4.7309,-4.7309,-4.7309,-4.7309,-4.7309,-4.7309,-4.7309,-4.7309,-4.7309,-4.7309,-4.7309,-4.7309,-4.7309,-4.7309,-2.7744,-3.142,-3.5372,-3.896,-4.0576,-4.1444,-4.2102,-4.2521,-4.2791,-4.2791,-4.3299,-4.3648,-4.3349,-4.329,-4.329,-4.329,0.0,0.0,0.0,0.0,0.0,0.0,0.0,0.0,0.0,0.0,0.0,0.0,-4.329,-4.329,-4.329,-4.329,-4.329,-4.329,-4.329,-4.329,-4.329,-4.329,-4.329,-4.329,-4.329,-4.329,-4.329,-4.3589,-4.4246,-4.5244,-4.595,-4.6501,-4.68,-4.716,-4.7309,-4.7309,-4.7309,-4.7309,-4.7309,-4.7309,-4.7309,-4.7309,-4.7309,-4.7309,-4.7309,-4.7309,-4.7309,-4.7309,-4.7309,-4.7309,-4.7309,-4.7309,-4.7309,-4.7309,-4.7309,-4.7309,-4.7309,-4.7309,-4.7309,-4.7309,-4.7309,-4.7309,-4.7309,-4.7309,-4.7309,-4.7309,-4.7309,-4.7309,-4.7309,-4.7309,-4.7309,-4.7309,-4.7309,-4.7309,-4.7309,-4.7309,-4.7309,-4.7309,-4.7309,-4.7309,-4.7309,-4.7309,-4.7309,-4.7309,-4.7309,-4.7309,-4.7309,-4.7309,-4.7309,-4.7309,-4.7309,-4.7309,-4.7309,-4.7309,-4.7309,-4.7309,-2.864,-3.133,-3.3635,-3.7255,-3.8901,-3.9888,-4.0905,-4.1504,-4.1961,0.0,-4.2641,-4.309,-4.309,-4.32,-4.329,0.0,0.0,0.0,0.0,0.0,0.0,0.0,0.0,0.0,0.0,0.0,0.0,0.0,-4.329,-4.329,-4.329,-4.329,-4.329,-4.329,-4.329,-4.329,-4.329,-4.329,-4.329,-4.329,-4.329,-4.329,-4.329,-4.329,-4.3559,-4.4137,-4.5263,-4.6022,-4.6309,-4.686,-4.716,-4.7309,-4.7309,-4.7309,-4.7309,-4.7309,-4.7309,-4.7309,-4.7309,-4.7309,-4.7309,-4.7309,-4.7309,-4.7309,-4.7309,-4.7309,-4.7309,-4.7309,-4.7309,-4.7309,-4.7309,-4.7309,-4.7309,-4.7309,-4.7309,-4.7309,-4.7309,-4.7309,-4.7309,-4.7309,-4.7309,-4.7309,-4.7309,-4.7309,-4.7309,-4.7309,-4.7309,-4.7309,-4.7309,-4.7309,-4.7309,-4.7309,-4.7309,-4.7309,-4.7309,-4.7309,-4.7309,-4.7309,-4.7309,-4.7309,-4.7309,-4.7309,-4.7309,-4.7309,-4.7309,-4.7309,-4.7309,-4.7309,-4.7309,-4.7309,-4.7309,-4.7309,-2.4807,-2.6901,-2.9052,-3.3635,-3.6148,-3.8063,-4.0008,-4.0487,-4.0666,-4.1294,-4.1991,-4.244,-4.244,-4.291,-4.329,0.0,0.0,0.0,0.0,0.0,0.0,0.0,0.0,0.0,0.0,0.0,0.0,0.0,-4.329,-4.329,-4.329,-4.329,-4.329,-4.329,-4.329,-4.329,-4.329,-4.329,-4.329,-4.329,-4.329,-4.329,-4.329,-4.329,-4.3319,-4.3379,-4.4107,-4.5155,-4.6279,-4.6309,-4.6741,-4.7309,-4.7309,-4.7309,-4.7309,-4.7309,-4.7309,-4.7309,-4.7309,-4.7309,-4.7309,-4.7309,-4.7309,-4.7309,-4.7309,-4.7309,-4.7309,-4.7309,-4.7309,-4.7309,-4.7309,-4.7309,-4.7309,-4.7309,-4.7309,-4.7309,-4.7309,-4.7309,-4.7309,-4.7309,-4.7309,-4.7309,-4.7309,-4.7309,-4.7309,-4.7309,-4.7309,-4.7309,-4.7309,-4.7309,-4.7309,-4.7309,-4.7309,-4.7309,-4.7309,-4.7309,-4.7309,-4.7309,-4.7309,-4.7309,-4.7309,-4.7309,-4.7309,-4.7309,-4.7309,-4.7309,-4.7309,-4.7309,-4.7309,-4.7309,-4.7309,-4.7309,-2.3819,-2.5914,-2.8393,-3.1749,-3.3754,-3.5429,-3.7434,-3.8871,-3.9828,-4.0068,-4.0965,-4.1782,-4.1782,-4.2611,-4.329,0.0,0.0,0.0,0.0,0.0,0.0,0.0,0.0,0.0,0.0,0.0,0.0,0.0,0.0,-4.329,-4.329,-4.329,-4.329,-4.329,-4.329,-4.329,-4.329,-4.329,-4.329,-4.329,-4.329,-4.329,-4.329,-4.329,-4.329,-4.329,-4.3529,-4.4436,-4.5693,-4.6142,-4.6711,-4.7309,-4.7309,-4.7309,-4.7309,-4.7309,-4.7309,-4.7309,-4.7309,-4.7309,-4.7309,-4.7309,-4.7309,-4.7309,-4.7309,-4.7309,-4.7309,-4.7309,-4.7309,-4.7309,-4.7309,-4.7309,-4.7309,-4.7309,-4.7309,-4.7309,-4.7309,-4.7309,-4.7309,-4.7309,-4.7309,-4.7309,-4.7309,-4.7309,-4.7309,-4.7309,-4.7309,-4.7309,-4.7309,-4.7309,-4.7309,-4.7309,-4.7309,-4.7309,-4.7309,-4.7309,-4.7309,-4.7309,-4.7309,-4.7309,-4.7309,-4.7309,-4.7309,-4.7309,-4.7309,-4.7309,-4.7309,-4.7309,-4.7309,-4.7309,-4.7309,-4.7309,-2.2592,-2.4567,-2.723,-2.9866,-3.1031,-3.2377,-3.5729,-3.6985,-3.7734,-3.8841,-3.9948,-4.0786,-4.0995,-4.1953,-4.2671,0.0,0.0,0.0,0.0,0.0,0.0,0.0,0.0,0.0,0.0,0.0,0.0,0.0,0.0,0.0,-4.3,-4.317,-4.329,-4.329,-4.329,-4.329,-4.329,-4.329,-4.329,-4.329,-4.329,-4.329,-4.329,-4.329,-4.329,-4.329,-4.329,-4.3917,-4.5035,-4.5693,-4.6381,-4.701,-4.7219,-4.7309,-4.7309,-4.7309,-4.7309,-4.7309,-4.7309,-4.7309,-4.7309,-4.7309,-4.7309,-4.7309,-4.7309,-4.7309,-4.7309,-4.7309,-4.7309,-4.7309,-4.7309,-4.7309,-4.7309,-4.7309,-4.7309,-4.7309,-4.7309,-4.7309,-4.7309,-4.7309,-4.7309,-4.7309,-4.7309,-4.7309,-4.7309,-4.7309,-4.7309,-4.7309,-4.7309,-4.7309,-4.7309,-4.7309,-4.7309,-4.7309,-4.7309,-4.7309,-4.7309,-4.7309,-4.7309,-4.7309,-4.7309,-4.7309,-4.7309,-4.7309,-4.7309,-4.7309,-4.7309,-4.7309,-4.7309,-4.7309,-4.7309,-4.7309,0.0,0.0,0.0,-2.7829,-2.8034,-2.9082,-3.4921,0.0,-3.4322,-3.7614,-3.8811,-3.9499,-4.0217,-4.0876,-4.1332,0.0,0.0,0.0,0.0,0.0,0.0,0.0,0.0,0.0,0.0,0.0,0.0,0.0,-4.2021,-4.2381,-4.2381,-4.294,-4.323,-4.326,-4.326,-4.326,-4.329,-4.329,-4.329,-4.329,-4.329,-4.329,-4.329,-4.329,-4.329,-4.329,-4.329,-4.3648,-4.4347,-4.5005,-4.5693,-4.6381,-4.704,-4.7309,-4.7309,-4.7309,-4.7309,-4.7309,-4.7309,-4.7309,-4.7309,-4.7309,-4.7309,-4.7309,-4.7309,-4.7309,-4.7309,-4.7309,-4.7309,-4.7309,-4.7309,-4.7309,-4.7309,-4.7309,-4.7309,-4.7309,-4.7309,-4.7309,-4.7309,-4.7309,-4.7309,-4.7309,-4.7309,-4.7309,-4.7309,-4.7309,-4.7309,-4.7309,-4.7309,-4.7309,-4.7309,-4.7309,-4.7309,-4.7309,-4.7309,-4.7309,-4.7309,-4.7309,-4.7309,-4.7309,-4.7309,-4.7309,-4.7309,-4.7309,-4.7309,-4.7309,-4.7309,-4.7309,-4.7309,-4.7309,-4.7309,-4.7309,-2.2194,0.0,0.0,0.0,0.0,0.0,0.0,0.0,-3.1628,-3.4923,-3.5729,-3.6477,-3.8571,-3.908,0.0,0.0,0.0,0.0,0.0,0.0,0.0,0.0,0.0,0.0,0.0,0.0,0.0,0.0,-4.1602,-4.1692,-4.1692,-4.1833,-4.2132,-4.2611,-4.2641,-4.2851,-4.329,-4.329,-4.329,-4.329,-4.329,-4.329,-4.329,-4.329,-4.329,-4.329,-4.329,-4.3409,-4.3648,-4.4825,-4.5693,-4.6381,-4.704,-4.7309,-4.7309,-4.7309,-4.7309,-4.7309,-4.7309,-4.7309,-4.7309,-4.7309,-4.7309,-4.7309,-4.7309,-4.7309,-4.7309,-4.7309,-4.7309,-4.7309,-4.7309,-4.7309,-4.7309,-4.7309,-4.7309,-4.7309,-4.7309,-4.7309,-4.7309,-4.7309,-4.7309,-4.7309,-4.7309,-4.7309,-4.7309,-4.7309,-4.7309,-4.7309,-4.7309,-4.7309,-4.7309,-4.7309,-4.7309,-4.7309,-4.7309,-4.7309,-4.7309,-4.7309,-4.7309,-4.7309,-4.7309,-4.7309,-4.7309,-4.7309,-4.7309,-4.7309,-4.7309,-4.7309,-4.7309,-4.7309,-4.7309,-4.7309,-2.3302,-2.4029,-2.5143,-2.5704,0.0,0.0,-2.8996,-2.9265,-2.9951,0.0,-3.4921,-3.5549,-3.7614,-3.7973,0.0,0.0,0.0,0.0,0.0,0.0,0.0,0.0,0.0,0.0,0.0,-4.0576,-4.0576,-4.0576,-4.0816,-4.1085,-4.1422,-4.1422,-4.1602,-4.1991,-4.2261,-4.259,-4.291,-4.314,-4.329,-4.329,-4.329,-4.329,-4.329,-4.329,-4.329,-4.329,-4.329,-4.329,-4.3379,-4.4766,-4.5544,-4.5992,-4.695,-4.7309,-4.7309,-4.7309,-4.7309,-4.7309,-4.7309,-4.7309,-4.7309,-4.7309,-4.7309,-4.7309,-4.7309,-4.7309,-4.7309,-4.7309,-4.7309,-4.7309,-4.7309,-4.7309,-4.7309,-4.7309,-4.7309,-4.7309,-4.7309,-4.7309,-4.7309,-4.7309,-4.7309,-4.7309,-4.7309,-4.7309,-4.7309,-4.7309,-4.7309,-4.7309,-4.7309,-4.7309,-4.7309,-4.7309,-4.7309,-4.7309,-4.7309,-4.7309,-4.7309,-4.7309,-4.7309,-4.7309,-4.7309,-4.7309,-4.7309,-4.7309,-4.7309,-4.7309,-4.7309,-4.7309,-4.7309,-4.7309,-4.7309,-4.7309,-2.4627,-2.5046,-2.6183,-2.7136,-2.5338,0.0,-2.9507,-2.8936,-2.8783,0.0,-3.4681,-3.507,-3.6596,-3.6926,0.0,0.0,0.0,0.0,0.0,0.0,0.0,0.0,0.0,0.0,-3.9373,-3.9373,-3.9373,-3.9373,-3.9948,-4.0546,-4.1145,-4.1175,-4.1205,-4.1265,-4.1871,-4.2261,-4.241,-4.294,-4.323,-4.329,-4.329,-4.329,-4.329,-4.329,-4.329,-4.329,-4.329,-4.329,-4.3379,-4.4766,-4.5304,-4.5424,-4.677,-4.7309,-4.7309,-4.7309,-4.7309,-4.7309,-4.7309,-4.7309,-4.7309,-4.7309,-4.7309,-4.7309,-4.7309,-4.7309,-4.7309,-4.7309,-4.7309,-4.7309,-4.7309,-4.7309,-4.7309,-4.7309,-4.7309,-4.7309,-4.7309,-4.7309,-4.7309,-4.7309,-4.7309,-4.7309,-4.7309,-4.7309,-4.7309,-4.7309,-4.7309,-4.7309,-4.7309,-4.7309,-4.7309,-4.7309,-4.7309,-4.7309,-4.7309,-4.7309,-4.7309,-4.7309,-4.7309,-4.7309,-4.7309,-4.7309,-4.7309,-4.7309,-4.7309,-4.7309,-4.7309,-4.7309,-4.7309,-4.7309,-4.7309,-4.7309,-2.759,-2.7829,-2.7679,-2.6333,-2.6722,0.0,-2.5495,-2.5585,-2.6752,0.0,-2.9505,-3.0041,-3.2916,-3.3903,0.0,0.0,0.0,0.0,0.0,0.0,0.0,0.0,0.0,0.0,-3.9373,-3.9373,-3.9373,-3.9373,-3.9493,-3.9679,-3.9798,-3.9798,-4.0038,-4.0576,-4.0726,-4.1294,-4.2381,-4.253,-4.2821,-4.329,-4.329,-4.329,-4.329,-4.329,-4.329,-4.329,-4.329,-4.329,-4.3379,-4.4766,-4.5304,-4.5424,-4.677,-4.7309,-4.7309,-4.7309,-4.7309,-4.7309,-4.7309,-4.7309,-4.7309,-4.7309,-4.7309,-4.7309,-4.7309,-4.7309,-4.7309,-4.7309,-4.7309,-4.7309,-4.7309,-4.7309,-4.7309,-4.7309,-4.7309,-4.7309,-4.7309,-4.7309,-4.7309,-4.7309,-4.7309,-4.7309,-4.7309,-4.7309,-4.7309,-4.7309,-4.7309,-4.7309,-4.7309,-4.7309,-4.7309,-4.7309,-4.7309,-4.7309,-4.7309,-4.7309,-4.7309,-4.7309,-4.7309,-4.7309,-4.7309,-4.7309,-4.7309,-4.7309,-4.7309,-4.7309,-4.7309,-4.7309,-4.7309,-4.7309,-4.7309,-4.7309,-2.9175,-2.9086,-2.8936,-2.8218,0.0,0.0,0.0,-2.5854,-2.6363,-2.8996,-2.8757,-2.8906,-3.1511,0.0,0.0,0.0,0.0,0.0,0.0,0.0,0.0,0.0,0.0,0.0,-3.8871,-3.8901,-3.905,-3.9343,-3.9373,-3.9373,-3.9373,-3.9373,-3.9559,-3.9888,-4.0217,-4.0876,-4.1901,-4.2231,-4.2671,-4.329,-4.329,-4.329,-4.329,-4.329,-4.329,-4.329,-4.329,-4.329,-4.3379,-4.4766,-4.5304,-4.5424,-4.677,-4.7309,-4.7309,-4.7309,-4.7309,-4.7309,-4.7309,-4.7309,-4.7309,-4.7309,-4.7309,-4.7309,-4.7309,-4.7309,-4.7309,-4.7309,-4.7309,-4.7309,-4.7309,-4.7309,-4.7309,-4.7309,-4.7309,-4.7309,-4.7309,-4.7309,-4.7309,-4.7309,-4.7309,-4.7309,-4.7309,-4.7309,-4.7309,-4.7309,-4.7309,-4.7309,-4.7309,-4.7309,-4.7309,-4.7309,-4.7309,-4.7309,-4.7309,-4.7309,-4.7309,-4.7309,-4.7309,-4.7309,-4.7309,-4.7309,-4.7309,-4.7309,-4.7309,-4.7309,-4.7309,-4.7309,-4.7309,-4.7309,-4.7309,-4.7309,-3.0672,-3.0522,-3.0642,0.0,0.0,-2.7859,0.0,0.0,0.0,0.0,0.0,0.0,0.0,0.0,0.0,0.0,0.0,0.0,0.0,0.0,0.0,0.0,0.0,0.0,0.0,-3.7913,-3.8182,-3.896,-3.8931,-3.896,-3.92,-3.9313,-3.9373,-3.9373,-3.9948,-4.0516,-4.1175,-4.1871,-4.2491,-4.315,-4.323,-4.329,-4.329,-4.329,-4.329,-4.329,-4.329,-4.329,-4.3379,-4.4766,-4.5304,-4.5424,-4.677,-4.7309,-4.7309,-4.7309,-4.7309,-4.7309,-4.7309,-4.7309,-4.7309,-4.7309,-4.7309,-4.7309,-4.7309,-4.7309,-4.7309,-4.7309,-4.7309,-4.7309,-4.7309,-4.7309,-4.7309,-4.7309,-4.7309,-4.7309,-4.7309,-4.7309,-4.7309,-4.7309,-4.7309,-4.7309,-4.7309,-4.7309,-4.7309,-4.7309,-4.7309,-4.7309,-4.7309,-4.7309,-4.7309,-4.7309,-4.7309,-4.7309,-4.7309,-4.7309,-4.7309,-4.7309,-4.7309,-4.7309,-4.7309,-4.7309,-4.7309,-4.7309,-4.7309,-4.7309,-4.7309,-4.7309,-4.7309,-4.7309,-4.7309,-4.7309,0.0,0.0,0.0,0.0,-3.0761,0.0,0.0,0.0,-2.6422,-2.6213,0.0,0.0,0.0,0.0,0.0,0.0,0.0,0.0,0.0,0.0,0.0,0.0,0.0,0.0,0.0,-3.6178,-3.6327,-3.7554,-3.7135,-3.7315,-3.8452,-3.908,-3.9373,-3.9373,-3.9463,-3.9858,-4.0516,-4.1175,-4.1871,-4.253,-4.306,-4.329,-4.329,-4.329,-4.329,-4.329,-4.329,-4.329,-4.3379,-4.4766,-4.5304,-4.5424,-4.677,-4.7309,-4.7309,-4.7309,-4.7309,-4.7309,-4.7309,-4.7309,-4.7309,-4.7309,-4.7309,-4.7309,-4.7309,-4.7309,-4.7309,-4.7309,-4.7309,-4.7309,-4.7309,-4.7309,-4.7309,-4.7309,-4.7309,-4.7309,-4.7309,-4.7309,-4.7309,-4.7309,-4.7309,-4.7309,-4.7309,-4.7309,-4.7309,-4.7309,-4.7309,-4.7309,-4.7309,-4.7309,-4.7309,-4.7309,-4.7309,-4.7309,-4.7309,-4.7309,-4.7309,-4.7309,-4.7309,-4.7309,-4.7309,-4.7309,-4.7309,-4.7309,-4.7309,-4.7309,-4.7309,-4.7309,-4.7309,-4.7309,-4.7309,-4.7309,0.0,0.0,0.0,0.0,0.0,0.0,-2.6303,0.0,-2.6063,0.0,0.0,0.0,0.0,0.0,0.0,0.0,0.0,0.0,0.0,0.0,0.0,0.0,0.0,0.0,0.0,0.0,0.0,0.0,-3.6477,-3.6656,-3.8302,-3.8661,-3.902,-3.9373,-3.9373,-3.9738,-4.0397,-4.1055,-4.1752,-4.241,-4.303,-4.329,-4.329,-4.329,-4.329,-4.329,-4.329,-4.329,-4.3379,-4.4766,-4.5304,-4.5424,-4.677,-4.7309,-4.7309,-4.7309,-4.7309,-4.7309,-4.7309,-4.7309,-4.7309,-4.7309,-4.7309,-4.7309,-4.7309,-4.7309,-4.7309,-4.7309,-4.7309,-4.7309,-4.7309,-4.7309,-4.7309,-4.7309,-4.7309,-4.7309,-4.7309,-4.7309,-4.7309,-4.7309,-4.7309,-4.7309,-4.7309,-4.7309,-4.7309,-4.7309,-4.7309,-4.7309,-4.7309,-4.7309,-4.7309,-4.7309,-4.7309,-4.7309,-4.7309,-4.7309,-4.7309,-4.7309,-4.7309,-4.7309,-4.7309,-4.7309,-4.7309,-4.7309,-4.7309,-4.7309,-4.7309,-4.7309,-4.7309,-4.7309,-4.7309,-4.7309,-3.4262,0.0,0.0,0.0,0.0,0.0,0.0,0.0,0.0,0.0,0.0,0.0,0.0,0.0,0.0,0.0,0.0,0.0,0.0,0.0,0.0,0.0,0.0,0.0,0.0,0.0,0.0,0.0,0.0,-3.5609,-3.7764,-3.8212,-3.8631,-3.911,-3.932,-3.9649,-4.0127,-4.0965,-4.1662,-4.2141,-4.294,-4.329,-4.329,-4.329,-4.329,-4.329,-4.329,-4.329,-4.3379,-4.4766,-4.5304,-4.5424,-4.677,-4.7309,-4.7309,-4.7309,-4.7309,-4.7309,-4.7309,-4.7309,-4.7309,-4.7309,-4.7309,-4.7309,-4.7309,-4.7309,-4.7309,-4.7309,-4.7309,-4.7309,-4.7309,-4.7309,-4.7309,-4.7309,-4.7309,-4.7309,-4.7309,-4.7309,-4.7309,-4.7309,-4.7309,-4.7309,-4.7309,-4.7309,-4.7309,-4.7309,-4.7309,-4.7309,-4.7309,-4.7309,-4.7309,-4.7309,-4.7309,-4.7309,-4.7309,-4.7309,-4.7309,-4.7309,-4.7309,-4.7309,-4.7309,-4.7309,-4.7309,-4.7309,-4.7309,-4.7309,-4.7309,-4.7309,-4.7309,-4.7309,-4.7309,-4.7309,0.0,0.0,0.0,-3.0941,0.0,0.0,0.0,0.0,-2.7735,0.0,0.0,0.0,0.0,0.0,0.0,0.0,0.0,0.0,0.0,0.0,0.0,0.0,0.0,0.0,0.0,0.0,0.0,0.0,0.0,0.0,-3.6417,-3.7734,-3.8392,-3.8422,-3.908,-3.9403,-3.9403,-4.0726,-4.1384,-4.1482,-4.2701,-4.329,-4.329,-4.329,-4.329,-4.329,-4.329,-4.329,-4.3379,-4.4766,-4.5304,-4.5424,-4.677,-4.7309,-4.7309,-4.7309,-4.7309,-4.7309,-4.7309,-4.7309,-4.7309,-4.7309,-4.7309,-4.7309,-4.7309,-4.7309,-4.7309,-4.7309,-4.7309,-4.7309,-4.7309,-4.7309,-4.7309,-4.7309,-4.7309,-4.7309,-4.7309,-4.7309,-4.7309,-4.7309,-4.7309,-4.7309,-4.7309,-4.7309,-4.7309,-4.7309,-4.7309,-4.7309,-4.7309,-4.7309,-4.7309,-4.7309,-4.7309,-4.7309,-4.7309,-4.7309,-4.7309,-4.7309,-4.7309,-4.7309,-4.7309,-4.7309,-4.7309,-4.7309,-4.7309,-4.7309,-4.7309,-4.7309,-4.7309,-4.7309,-4.7309,-4.7309,0.0,0.0,-3.7793,-3.3845,0.0,0.0,0.0,0.0,0.0,0.0,0.0,0.0,0.0,0.0,0.0,0.0,0.0,0.0,0.0,0.0,0.0,0.0,0.0,0.0,0.0,0.0,0.0,0.0,-3.2766,0.0,0.0,-3.7285,-3.7943,-3.8392,-3.905,-3.9373,-3.9373,-4.0726,-4.1422,-4.1422,-4.2701,-4.329,-4.329,-4.329,-4.329,-4.329,-4.329,-4.329,-4.3379,-4.4766,-4.5304,-4.5424,-4.677,-4.7309,-4.7309,-4.7309,-4.7309,-4.7309,-4.7309,-4.7309,-4.7309,-4.7309,-4.7309,-4.7309,-4.7309,-4.7309,-4.7309,-4.7309,-4.7309,-4.7309,-4.7309,-4.7309,-4.7309,-4.7309,-4.7309,-4.7309,-4.7309,-4.7309,-4.7309,-4.7309,-4.7309,-4.7309,-4.7309,-4.7309,-4.7309,-4.7309,-4.7309,-4.7309,-4.7309,-4.7309,-4.7309,-4.7309,-4.7309,-4.7309,-4.7309,-4.7309,-4.7309,-4.7309,-4.7309,-4.7309,-4.7309,-4.7309,-4.7309,-4.7309,-4.7309,-4.7309,-4.7309,-4.7309,-4.7309,-4.7309,-4.7309,-4.7309,-3.8392,-3.905,0.0,-3.5968,-3.4893,0.0,-3.0133,0.0,0.0,0.0,0.0,0.0,0.0,0.0,0.0,0.0,0.0,0.0,0.0,-2.2413,0.0,0.0,0.0,0.0,0.0,0.0,-3.0494,-3.2377,-3.1869,0.0,0.0,0.0,-3.7375,-3.8033,-3.8691,-3.917,-3.9373,-4.0726,-4.1422,-4.1422,-4.2701,-4.329,-4.329,-4.329,-4.329,-4.329,-4.329,-4.3439,-4.3738,-4.4855,-4.5454,-4.5783,-4.689,-4.7309,-4.7309,-4.7309,-4.7309,-4.7309,-4.7309,-4.7309,-4.7309,-4.7309,-4.7309,-4.7309,-4.7309,-4.7309,-4.7309,-4.7309,-4.7309,-4.7309,-4.7309,-4.7309,-4.7309,-4.7309,-4.7309,-4.7309,-4.7309,-4.7309,-4.7309,-4.7309,-4.7309,-4.7309,-4.7309,-4.7309,-4.7309,-4.7309,-4.7309,-4.7309,-4.7309,-4.7309,-4.7309,-4.7309,-4.7309,-4.7309,-4.7309,-4.7309,-4.7309,-4.7309,-4.7309,-4.7309,-4.7309,-4.7309,-4.7309,-4.7309,-4.7309,-4.7309,-4.7309,-4.7309,-4.7309,-4.7309,-4.7309,-4.7309]},{"header":{"parameterUnit":"m.s-1","parameterCategory":1,"la1":30.6,"la2":29.2853,"lo1":-89.7004,"lo2":-87.6739,"dy":0.0162,"dx":0.0183,"nx":112,"ny":82,"refTime":"2026-03-07T00:00:00:Z","depth":0,"parameterNumber":3,"parameterNumberName":"V-component_of_WINDS"},"data":[0.0,0.0,0.0,0.0,0.0,0.0,0.0,0.0,0.0,0.0,0.0,0.0,0.0,0.0,0.0,0.0,0.0,0.0,0.0,0.0,0.0,0.0,0.0,0.0,0.0,0.0,0.0,0.0,0.0,0.0,0.0,0.0,0.0,0.0,0.0,0.0,0.0,0.0,0.0,0.0,0.0,0.0,0.0,0.0,0.0,0.0,0.0,0.0,0.0,0.0,0.0,0.0,0.0,0.0,0.0,0.0,0.0,0.0,0.0,0.0,0.0,0.0,0.0,0.0,0.0,0.0,0.0,0.0,0.0,0.0,0.0,0.0,0.0,0.0,0.0,0.0,0.0,0.0,0.0,0.0,0.0,0.0,0.0,0.0,0.0,0.0,0.0,0.0,0.0,0.0,1.739,1.8248,2.1195,2.3101,2.3101,2.2594,2.1094,1.8203,0.0,0.0,0.0,0.0,0.0,0.0,0.0,0.0,0.0,0.0,0.0,0.0,0.0,0.0,0.0,0.0,0.0,0.0,0.0,0.0,0.0,0.0,0.0,0.0,0.0,0.0,0.0,0.0,0.0,0.0,0.0,0.0,0.0,0.0,0.0,0.0,0.0,0.0,0.0,0.0,0.0,0.0,0.0,0.0,0.0,0.0,0.0,0.0,0.0,0.0,0.0,0.0,0.0,0.0,0.0,0.0,0.0,0.0,0.0,0.0,0.0,0.0,0.0,0.0,0.0,0.0,0.0,0.0,0.0,0.0,0.0,0.0,0.0,0.0,0.0,0.0,0.0,0.0,0.0,0.0,0.0,0.0,0.0,0.0,0.0,0.0,0.0,0.0,0.0,0.0,0.0,0.0,0.0,0.0,0.0,0.0,0.0,0.0,0.0,0.0,0.0,0.0,0.0,0.0,1.8472,2.1438,2.2571,2.3101,2.3101,2.2048,2.0411,1.8144,0.0,0.0,0.0,0.0,0.0,0.0,0.0,0.0,0.0,0.0,0.0,0.0,0.0,0.0,0.0,0.0,0.0,0.0,0.0,0.0,0.0,0.0,0.0,0.0,0.0,0.0,0.0,0.0,0.0,0.0,0.0,0.0,0.0,0.0,0.0,0.0,0.0,0.0,0.0,0.0,0.0,0.0,0.0,0.0,0.0,0.0,0.0,0.0,0.0,0.0,0.0,0.0,0.0,0.0,0.0,0.0,0.0,0.0,0.0,0.0,0.0,0.0,0.0,0.0,0.0,0.0,0.0,0.0,0.0,0.0,0.0,0.0,0.0,0.0,0.0,0.0,0.0,0.0,0.0,0.0,0.0,0.0,0.0,0.0,0.0,0.0,0.0,0.0,0.0,0.0,0.0,0.0,0.0,0.0,0.0,0.0,0.0,0.0,0.0,0.0,0.0,0.0,0.0,1.7378,1.9199,2.2187,2.2847,2.3101,2.3101,2.2187,2.0566,1.8164,1.7383,0.0,0.0,0.0,0.0,0.0,0.0,0.0,0.0,0.0,0.0,0.0,0.0,0.0,0.0,0.0,0.0,0.0,0.0,0.0,0.0,0.0,0.0,0.0,0.0,0.0,0.0,0.0,0.0,0.0,0.0,0.0,0.0,0.0,0.0,0.0,0.0,0.0,0.0,0.0,0.0,0.0,0.0,0.0,0.0,0.0,0.0,0.0,0.0,0.0,0.0,0.0,0.0,0.0,0.0,0.0,0.0,0.0,0.0,0.0,0.0,0.0,0.0,0.0,0.0,0.0,0.0,0.0,0.0,0.0,0.0,0.0,0.0,0.0,0.0,0.0,0.0,0.0,0.0,0.0,0.0,0.0,0.0,0.0,0.0,0.0,0.0,0.0,0.0,0.0,0.0,0.0,0.0,0.0,0.0,0.0,0.0,0.0,0.0,0.0,0.0,0.0,0.0,1.9104,2.0079,2.2422,2.2906,2.3101,2.3101,2.209,2.0449,1.8164,1.6882,0.0,0.0,0.0,0.0,0.0,0.0,0.0,0.0,0.0,0.0,0.0,0.0,0.0,0.0,0.0,0.0,0.0,0.0,0.0,0.0,0.0,0.0,0.0,0.0,0.0,0.0,0.0,0.0,0.0,0.0,0.0,0.0,0.0,0.0,0.0,0.0,0.0,0.0,0.0,0.0,0.0,0.0,0.0,0.0,0.0,0.0,0.0,0.0,0.0,0.0,0.0,0.0,0.0,0.0,0.0,0.0,0.0,0.0,0.0,0.0,0.0,0.0,0.0,0.0,0.0,0.0,0.0,0.0,0.0,0.0,0.0,0.0,0.0,0.0,0.0,0.0,0.0,0.0,0.0,0.0,0.0,0.0,0.0,0.0,0.0,0.0,0.0,0.0,0.0,0.0,0.0,0.0,0.0,0.0,0.0,0.0,0.0,0.0,0.0,0.0,0.0,0.0,1.9787,2.1541,2.2906,2.3081,2.3101,2.3101,2.121,1.9473,1.8105,1.6074,0.0,0.0,0.0,0.0,0.0,0.0,0.0,0.0,0.0,0.0,0.0,0.0,0.0,0.0,0.0,0.0,0.0,0.0,0.0,0.0,0.0,0.0,0.0,0.0,0.0,0.0,0.0,0.0,0.0,0.0,0.0,0.0,0.0,0.0,0.0,0.0,0.0,0.0,0.0,0.0,0.0,0.0,0.0,0.0,0.0,0.0,0.0,0.0,0.0,0.0,0.0,0.0,0.0,0.0,0.0,0.0,0.0,0.0,0.0,0.0,0.0,0.0,0.0,0.0,0.0,0.0,0.0,0.0,0.0,0.0,0.0,0.0,0.0,0.0,0.0,0.0,0.0,0.0,0.0,0.0,0.0,0.0,0.0,0.0,0.0,0.0,0.0,0.0,0.0,0.0,0.0,0.0,0.0,0.0,0.0,0.0,0.0,0.0,0.0,0.0,0.0,0.0,1.9414,2.1073,0.0,2.3101,2.2984,2.2773,2.1483,1.9844,1.7754,0.0,0.0,0.0,0.0,0.0,0.0,0.0,0.0,0.0,0.0,0.0,0.0,0.0,0.0,0.0,0.0,0.0,0.0,0.0,0.0,0.0,0.0,0.0,0.0,0.0,0.0,0.0,0.0,0.0,0.0,0.0,0.0,0.0,0.0,0.0,0.0,0.0,0.0,0.0,0.0,0.0,0.0,0.0,0.0,0.0,0.0,0.0,0.0,0.0,0.0,0.0,0.0,0.0,0.0,0.0,0.0,0.0,0.0,0.0,0.0,0.0,0.0,0.0,0.0,0.0,0.0,0.0,0.0,0.0,0.0,0.0,0.0,0.0,0.0,0.0,0.0,0.0,0.0,0.0,0.0,0.0,0.0,0.0,0.0,0.0,0.0,0.0,0.0,0.0,0.0,0.0,0.0,0.0,0.0,0.0,0.0,0.0,0.0,0.0,0.0,0.0,0.0,1.7773,1.9492,2.1211,0.0,2.3101,2.2925,2.2539,2.1348,1.9687,1.7553,0.0,0.0,0.0,0.0,0.0,0.0,0.0,0.0,0.0,0.0,0.0,0.0,0.0,0.0,0.0,0.0,0.0,0.0,0.0,0.0,0.0,0.0,0.0,0.0,0.0,0.0,0.0,0.0,0.0,0.0,0.0,0.0,0.0,0.0,0.0,0.0,0.0,0.0,0.0,0.0,0.0,0.0,0.0,0.0,0.0,0.0,0.0,0.0,0.0,0.0,0.0,0.0,0.0,0.0,0.0,0.0,0.0,0.0,0.0,0.0,0.0,0.0,0.0,0.0,0.0,0.0,0.0,0.0,0.0,0.0,0.0,0.0,0.0,0.0,0.0,0.0,0.0,0.0,0.0,0.0,0.0,0.0,0.0,0.0,0.0,0.0,0.0,0.0,0.0,0.0,0.0,0.0,0.0,0.0,0.0,0.0,0.0,0.0,0.0,0.0,0.0,0.0,1.7852,2.0273,2.2207,2.3003,2.3101,2.2925,2.2539,2.0547,1.875,0.0,0.0,0.0,0.0,0.0,0.0,0.0,0.0,0.0,0.0,0.0,0.0,0.0,0.0,0.0,0.0,0.0,0.0,0.0,0.0,0.0,0.0,0.0,0.0,0.0,0.0,0.0,0.0,0.0,0.0,0.0,0.0,0.0,0.0,0.0,0.0,0.0,0.0,0.0,0.0,0.0,0.0,0.0,0.0,0.0,0.0,0.0,0.0,0.0,0.0,0.0,0.0,0.0,0.0,0.0,0.0,0.0,0.0,0.0,0.0,0.0,0.0,0.0,0.0,0.0,0.0,0.0,0.0,0.0,0.0,0.0,0.0,0.0,0.0,0.0,0.0,0.0,0.0,0.0,0.0,0.0,0.0,0.0,0.0,0.0,0.0,0.0,0.0,0.0,0.0,0.0,0.0,0.0,0.0,0.0,0.0,0.0,0.0,0.0,0.0,0.0,0.0,0.0,1.7852,2.0273,2.2207,2.3003,2.3101,2.2808,2.2129,2.0918,1.9258,1.707,0.0,0.0,0.0,0.0,0.0,0.0,0.0,0.0,0.0,0.0,0.0,0.0,0.0,0.0,0.0,0.0,0.0,0.0,0.0,0.0,0.0,0.0,0.0,0.0,0.0,0.0,0.0,0.0,0.0,0.0,0.0,0.0,0.0,0.0,0.0,0.0,0.0,0.0,0.0,0.0,0.0,0.0,0.0,0.0,0.0,0.0,0.0,0.0,0.0,0.0,0.0,0.0,0.0,0.0,0.0,0.0,0.0,0.0,0.0,0.0,0.0,0.0,0.0,0.0,0.0,0.0,0.0,0.0,0.0,0.0,0.0,0.0,0.0,0.0,0.0,0.0,0.0,0.0,0.0,0.0,0.0,0.0,0.0,0.0,0.0,0.0,0.0,0.0,0.0,0.0,0.0,0.0,0.0,0.0,0.0,0.0,0.0,0.0,0.0,0.0,0.0,0.0,1.7793,2.0117,2.2012,2.2984,2.3101,2.275,2.1953,2.1114,1.9473,1.6863,0.0,0.0,0.0,0.0,0.0,0.0,0.0,0.0,0.0,0.0,0.0,0.0,0.0,0.0,0.0,0.0,0.0,0.0,0.0,0.0,0.0,0.0,0.0,0.0,0.0,0.0,0.0,0.0,0.0,0.0,0.0,0.0,0.0,0.0,0.0,0.0,0.0,0.0,0.0,0.0,0.0,0.0,0.0,0.0,0.0,0.0,0.0,0.0,0.0,0.0,0.0,0.0,0.0,0.0,0.0,0.0,0.0,0.0,0.0,0.0,0.0,0.0,0.0,0.0,0.0,0.0,0.0,0.0,0.0,0.0,0.0,0.0,0.0,0.0,0.0,0.0,0.0,0.0,0.0,0.0,0.0,0.0,0.0,0.0,0.0,0.0,0.0,0.0,0.0,0.0,0.0,0.0,0.0,0.0,0.0,0.0,0.0,0.0,0.0,0.0,0.0,0.0,1.7734,1.9904,2.1736,2.2964,2.3101,2.275,2.1953,2.1153,1.9568,1.7049,0.0,0.0,0.0,0.0,0.0,0.0,0.0,0.0,0.0,0.0,0.0,0.0,0.0,0.0,0.0,0.0,0.0,0.0,0.0,0.0,0.0,0.0,0.0,0.0,0.0,0.0,0.0,0.0,0.0,0.0,0.0,0.0,0.0,0.0,0.0,0.0,0.0,0.0,0.0,0.0,0.0,0.0,0.0,0.0,0.0,0.0,0.0,0.0,0.0,0.0,0.0,0.0,0.0,0.0,0.0,0.0,0.0,0.0,0.0,0.0,2.0818,0.0,0.0,0.0,0.0,0.0,0.0,0.0,0.0,0.0,0.0,0.0,0.0,0.0,0.0,0.0,0.0,0.0,0.0,0.0,0.0,0.0,0.0,0.0,0.0,0.0,0.0,0.0,0.0,0.0,0.0,0.0,0.0,0.0,0.0,0.0,0.0,0.0,0.0,0.0,0.0,0.0,1.7773,2.0195,2.2109,2.3003,2.3101,2.275,2.1953,2.1406,2.0244,1.8241,1.6732,0.0,0.0,0.0,0.0,0.0,0.0,0.0,0.0,0.0,0.0,0.0,0.0,0.0,0.0,0.0,0.0,0.0,0.0,0.0,0.0,0.0,0.0,0.0,0.0,0.0,0.0,0.0,0.0,0.0,0.0,0.0,0.0,0.0,0.0,0.0,0.0,0.0,0.0,0.0,0.0,0.0,0.0,0.0,0.0,0.0,0.0,0.0,0.0,0.0,0.0,0.0,0.0,0.0,0.0,0.0,0.0,0.0,0.0,0.0,0.0,2.2479,0.0,0.0,0.0,0.0,0.0,0.0,0.0,0.0,0.0,0.0,0.0,0.0,0.0,0.0,0.0,0.0,0.0,0.0,0.0,0.0,0.0,0.0,0.0,0.0,0.0,0.0,0.0,0.0,0.0,0.0,0.0,0.0,0.0,0.0,0.0,0.0,0.0,0.0,0.0,0.0,1.7793,2.0098,2.1973,2.2984,2.2906,2.2729,2.2594,2.1968,2.0839,1.9099,1.8021,0.0,0.0,0.0,0.0,0.0,0.0,0.0,0.0,0.0,0.0,0.0,0.0,0.0,0.0,0.0,0.0,0.0,0.0,0.0,0.0,0.0,0.0,0.0,0.0,0.0,0.0,0.0,0.0,0.0,0.0,0.0,0.0,0.0,0.0,0.0,0.0,0.0,0.0,0.0,0.0,0.0,0.0,0.0,0.0,0.0,0.0,0.0,0.0,0.0,0.0,0.0,0.0,0.0,2.8472,2.9032,2.9735,2.9735,3.0454,3.1579,2.7727,2.6325,2.6571,2.4825,0.0,0.0,0.0,0.0,0.0,0.0,0.0,0.0,0.0,0.0,0.0,0.0,0.0,0.0,0.0,0.0,0.0,0.0,0.0,0.0,0.0,0.0,0.0,0.0,2.0917,2.0588,0.0,0.0,0.0,0.0,0.0,0.0,0.0,0.0,0.0,0.0,0.0,0.0,1.8008,2.0059,2.1775,2.2964,2.2711,2.2641,2.3021,2.2491,2.1481,2.0002,1.9424,1.7883,0.0,0.0,0.0,0.0,0.0,0.0,0.0,0.0,0.0,0.0,0.0,0.0,0.0,0.0,0.0,0.0,0.0,0.0,0.0,0.0,0.0,0.0,0.0,0.0,0.0,0.0,0.0,0.0,0.0,0.0,0.0,0.0,2.2468,2.439,0.0,0.0,0.0,0.0,0.0,0.0,0.0,0.0,0.0,0.0,0.0,0.0,0.0,2.9493,3.0487,3.2045,3.2642,3.2343,3.4234,3.4981,3.4566,3.4566,3.4956,3.5615,3.4479,0.0,2.9314,2.8267,0.0,0.0,0.0,0.0,0.0,0.0,0.0,0.0,0.0,0.0,0.0,0.0,0.0,0.0,0.0,0.0,0.0,0.0,0.0,0.0,0.0,0.0,2.5806,2.3107,2.3263,2.3282,0.0,1.8184,1.6297,1.5273,1.4543,0.0,0.0,0.0,0.0,0.0,0.0,0.0,1.8848,2.0684,2.2148,2.3003,2.2711,2.2386,2.2121,2.2408,2.2317,2.1614,2.1399,2.0794,1.9761,1.7477,0.0,0.0,0.0,0.0,0.0,0.0,0.0,0.0,0.0,0.0,0.0,0.0,0.0,0.0,0.0,0.0,0.0,0.0,0.0,0.0,0.0,0.0,0.0,0.0,0.0,0.0,0.0,0.0,0.0,2.2846,2.4489,2.5838,2.5523,2.4691,0.0,0.0,0.0,0.0,0.0,0.0,0.0,0.0,0.0,3.121,3.1813,3.2616,3.3677,3.4776,3.5328,3.5403,3.6405,3.686,3.6935,3.6935,3.7061,3.7262,3.7036,3.5821,3.3818,3.1889,2.9886,2.7869,0.0,0.0,0.0,0.0,2.5145,2.551,2.6367,2.6723,0.0,2.5995,0.0,0.0,0.0,0.0,0.0,0.0,0.0,0.0,0.0,0.0,2.688,2.6005,2.6184,2.5968,2.3971,2.1945,1.9773,0.0,1.6953,1.6289,1.3958,0.0,0.0,0.0,0.0,1.7754,1.9434,2.0957,2.2207,2.3003,2.2559,2.2507,2.3444,2.3294,2.318,2.3248,2.3071,2.2347,2.0872,1.8919,1.712,0.0,0.0,0.0,0.0,0.0,0.0,0.0,0.0,0.0,0.0,0.0,0.0,0.0,0.0,0.0,0.0,0.0,0.0,0.0,0.0,0.0,0.0,0.0,0.0,0.0,0.0,0.0,0.0,2.5052,2.6547,2.7324,2.7922,2.7534,0.0,0.0,0.0,0.0,0.0,0.0,2.993,3.0809,3.2089,3.3916,3.4449,3.5203,3.611,3.6759,3.7236,3.7613,3.7764,3.804,3.8442,3.8442,3.8442,3.8442,3.8442,3.8115,3.7412,3.4801,3.2893,3.148,2.9705,2.8743,2.8397,2.8403,2.8655,2.9156,3.0288,3.0778,3.0834,2.9729,0.0,2.6698,2.49,0.0,0.0,0.0,0.0,2.439,2.6578,2.7443,2.7825,2.806,2.8307,2.8092,2.6376,2.5311,2.3595,0.0,1.9377,1.8555,1.5732,0.0,0.0,0.0,0.0,1.8809,2.0078,2.1309,2.2324,2.3023,2.2574,2.2839,2.4277,2.4086,2.4055,2.4433,2.4329,2.3524,2.2018,2.0415,1.8865,1.7412,0.0,0.0,0.0,0.0,0.0,0.0,0.0,0.0,0.0,0.0,0.0,0.0,0.0,0.0,0.0,0.0,0.0,0.0,0.0,0.0,0.0,0.0,0.0,0.0,0.0,0.0,0.0,0.0,0.0,2.9551,3.0102,0.0,0.0,0.0,0.0,2.9453,3.0557,3.1687,3.286,3.4399,3.5554,3.6229,3.6734,3.7287,3.7889,3.8467,3.8818,3.8844,3.932,3.9597,3.9597,3.9597,3.9597,3.9597,3.9597,3.9295,3.8668,3.6358,3.5031,3.4354,3.3251,3.28,3.2775,3.2807,3.2807,3.2825,3.2925,3.2574,3.2215,3.2667,3.0994,2.865,2.806,2.6121,0.0,0.0,2.7189,2.77,2.9209,3.0002,3.0015,2.8443,2.8949,2.9131,2.6953,2.7169,2.6843,0.0,2.1156,1.957,1.8539,0.0,1.7891,1.7832,1.8613,1.9687,2.0956,2.1934,2.2656,2.3042,2.3204,2.3282,2.3362,2.431,2.4921,2.4969,2.4829,2.4725,2.4586,2.2514,2.0788,1.9573,1.8067,0.0,0.0,0.0,0.0,0.0,0.0,0.0,0.0,0.0,0.0,0.0,0.0,0.0,0.0,0.0,0.0,0.0,0.0,0.0,0.0,0.0,0.0,0.0,0.0,0.0,0.0,0.0,0.0,3.1888,3.3345,0.0,3.1763,3.2064,3.224,3.1938,3.3244,3.4399,3.5198,3.6081,3.7036,3.7989,3.8215,3.8542,3.9094,3.9295,3.9396,3.9396,3.9597,3.9697,3.9697,3.9697,3.9697,3.9697,3.9697,3.9572,3.932,3.8165,3.6935,3.5705,3.4951,3.4449,3.4148,3.4148,3.4148,3.4148,3.4148,3.3997,3.3746,3.3244,3.1913,3.0482,3.0281,2.9585,2.9032,2.9727,2.9984,3.0174,3.0678,3.0959,3.0904,2.993,3.0005,3.0009,2.8864,2.8371,2.7719,2.6484,2.431,2.2004,1.9799,1.9767,1.9865,1.9316,1.9943,2.0898,2.1934,2.2324,2.2676,2.3042,2.27,2.2635,2.3241,2.3747,2.4173,2.4447,2.4681,2.4625,2.4305,2.2498,2.1134,2.0368,1.9083,1.7312,0.0,0.0,0.0,0.0,0.0,0.0,0.0,0.0,0.0,0.0,0.0,0.0,0.0,0.0,0.0,0.0,0.0,0.0,0.0,0.0,0.0,0.0,0.0,0.0,0.0,0.0,3.342,3.3621,3.5403,3.5931,3.4098,3.4751,3.5052,3.45,3.5655,3.6609,3.7235,3.7739,3.8366,3.912,3.9145,3.932,3.9697,3.9697,3.9697,3.9697,3.9697,3.9697,3.9697,3.9697,3.9697,3.9697,3.9697,3.9697,3.9672,3.9295,3.8441,3.7184,3.6383,3.5881,3.5529,3.5353,3.5278,3.5253,3.5031,3.4956,3.4781,3.3721,3.2717,3.1913,3.1738,3.1537,3.1436,3.1612,3.1662,3.1662,3.1662,3.1662,3.1486,3.0783,3.0608,3.0457,2.9905,2.9184,2.8545,2.8164,2.6395,2.4313,2.225,2.2383,2.2368,2.1265,2.2065,2.2818,2.3034,2.353,2.3946,2.4233,2.3929,2.3913,2.4338,2.4459,2.4543,2.4667,2.4575,2.428,2.3728,2.2472,2.1418,2.0717,1.9409,1.7804,1.5969,0.0,0.0,0.0,0.0,0.0,0.0,0.0,0.0,0.0,0.0,0.0,0.0,0.0,0.0,0.0,0.0,0.0,0.0,0.0,0.0,0.0,0.0,0.0,2.9779,3.224,3.4198,3.4751,3.6257,3.6835,3.5708,3.6132,3.6732,3.7211,3.7739,3.8316,3.8868,3.9396,3.9697,3.9697,3.9697,3.9697,3.9697,3.9697,3.9697,3.9697,3.9697,3.9697,3.9697,3.9697,3.9697,3.9697,3.9697,3.9697,3.9697,3.9697,3.9371,3.8844,3.7663,3.7211,3.7111,3.6631,3.643,3.6329,3.5708,3.5508,3.5332,3.4299,3.3571,3.2993,3.2441,3.1888,3.1562,3.2089,3.224,3.224,3.224,3.224,3.1964,3.0909,3.0658,3.0482,2.993,2.9804,2.9482,2.8386,2.7319,2.6449,2.5914,2.5824,2.5307,2.3809,2.4894,0.0,2.4425,2.5554,2.6524,2.6524,2.6959,2.7032,2.6496,2.6489,2.6214,2.5578,2.4582,2.3728,2.312,2.2569,2.1769,2.0717,1.9083,1.7702,1.655,0.0,0.0,0.0,0.0,0.0,0.0,0.0,0.0,0.0,0.0,0.0,0.0,0.0,0.0,0.0,0.0,0.0,0.0,0.0,0.0,0.0,2.9503,3.1361,3.1537,3.3947,3.6031,3.6985,3.8241,3.8743,3.8015,3.8467,3.8668,3.8466,3.8919,3.9295,3.9471,3.9622,3.9697,3.9697,3.9697,3.9697,3.9697,3.9697,3.9697,3.9697,3.9697,3.9697,3.9697,3.9697,3.9697,3.9697,3.9697,3.9697,3.9697,3.9697,3.9597,3.9396,3.8743,3.7914,3.7161,3.701,3.6757,3.638,3.6182,3.5881,3.5458,3.5157,3.4449,3.3646,3.3495,3.3043,3.2641,3.2792,3.2842,3.2842,3.2842,3.2842,3.2667,3.1938,3.1461,3.1035,3.0507,3.008,2.9702,2.9404,2.9067,2.8323,2.6631,2.6322,2.6155,2.5713,2.6028,0.0,2.5912,2.6229,2.6524,2.6524,2.6318,2.6017,2.5477,2.5772,2.5381,2.4011,2.3974,2.3728,2.312,2.2221,2.1421,2.0717,1.9811,1.8832,0.0,0.0,0.0,0.0,0.0,0.0,0.0,0.0,0.0,0.0,0.0,0.0,0.0,0.0,0.0,0.0,0.0,0.0,0.0,0.0,0.0,0.0,3.1964,3.3847,3.455,3.6031,3.7462,3.8592,3.9295,3.9572,3.9245,3.9496,3.9572,3.9245,3.9521,3.9697,3.9697,3.9697,3.9697,3.9697,3.9697,3.9697,3.9697,3.9697,3.9697,3.9697,3.9697,3.9697,3.9697,3.9697,3.9697,0.0,3.9697,3.9697,3.9697,3.9697,3.9697,0.0,0.0,0.0,0.0,0.0,3.6835,3.6405,3.6405,3.6157,3.5855,3.5583,3.5056,3.45,3.4048,3.3671,3.337,3.3144,3.3111,3.3111,3.3111,3.3111,3.2943,3.234,3.1964,3.1537,3.0783,3.0357,3.008,2.9829,2.9804,0.0,2.8091,2.7891,2.7706,2.7238,2.7585,2.7706,2.7238,2.7585,2.7891,2.7891,2.7648,2.7246,2.6688,2.6502,0.0,0.0,0.0,2.3627,2.2794,2.1945,0.0,0.0,0.0,0.0,0.0,0.0,0.0,0.0,1.7704,1.7551,0.0,0.0,0.0,0.0,0.0,0.0,0.0,0.0,0.0,0.0,0.0,0.0,0.0,0.0,0.0,0.0,3.4329,3.631,3.7889,3.8165,3.8567,3.9572,3.9697,3.9697,3.9697,3.9697,3.9697,3.9697,3.9697,3.9697,3.9697,0.0,0.0,0.0,0.0,3.9697,3.9697,3.9697,3.9697,3.9697,3.9697,3.9697,3.9697,3.9697,3.9697,3.9697,3.9697,3.9697,3.9697,3.9697,3.9697,3.9647,3.9094,3.8869,3.8693,3.7588,3.6835,3.6405,3.6405,0.0,0.0,3.5805,3.5558,3.5307,3.4374,3.4048,3.3872,3.3319,3.3212,3.3169,3.3136,3.3111,3.2943,3.2441,3.2265,3.1964,3.1009,3.0708,3.0457,2.998,2.9829,2.9804,2.9804,2.9804,2.9443,2.8426,2.9145,2.9443,2.8426,2.9184,2.9804,2.9804,0.0,0.0,2.8938,2.8021,2.7203,2.6524,2.4958,2.3627,2.2548,2.2096,2.1845,2.1769,2.2246,2.2472,2.2397,2.2869,2.3145,2.312,2.0136,1.9811,0.0,0.0,0.0,0.0,0.0,0.0,0.0,0.0,0.0,0.0,0.0,0.0,0.0,0.0,0.0,3.3947,3.6081,3.7814,3.8592,3.9094,3.9446,3.9672,3.9697,3.9697,3.9697,3.9697,3.9697,3.9697,3.9697,3.9697,3.9697,3.9697,3.9697,3.9697,3.9697,3.9697,3.9697,3.9697,3.9697,3.9697,0.0,0.0,3.9697,3.9697,3.9697,3.9697,3.9697,3.9697,3.9697,3.9697,3.9697,3.9647,3.9094,3.8592,3.809,3.7437,3.6835,3.6405,3.6405,3.6405,3.638,3.6279,3.5906,3.5458,3.5232,3.4881,0.0,3.3897,3.3746,3.3646,3.3194,3.3111,3.3043,3.2943,3.2541,3.2164,3.1964,3.1235,3.0583,3.0482,3.0105,2.9804,2.9804,2.9804,2.9702,2.9482,2.9663,2.9702,2.9482,2.9663,2.9804,2.9804,2.9804,2.9553,2.8938,2.8687,2.7996,2.6575,2.5335,2.4356,2.3703,2.4004,2.3979,2.3527,2.3627,2.3452,2.2945,2.3045,2.3346,2.3803,2.2669,2.2368,0.0,0.0,0.0,0.0,0.0,0.0,0.0,0.0,0.0,0.0,0.0,2.939,3.0758,0.0,3.4751,3.6132,3.7538,3.8642,3.9195,3.9521,3.9697,3.9697,3.9697,3.9697,3.9697,3.9697,3.9697,3.9697,3.9697,3.9697,3.9697,3.9697,3.9697,3.9697,3.9697,3.9697,3.9697,3.9697,3.9697,3.9697,3.9697,3.9697,3.9697,3.9697,3.9697,3.9697,3.9697,3.9697,3.9697,3.9697,3.9697,3.9672,3.9396,3.8944,3.8366,3.7814,3.7236,3.6782,3.6505,3.6405,3.6405,3.6405,3.6182,3.5906,3.5583,3.5307,3.4981,3.4474,3.4123,3.3847,3.3571,3.3294,3.3111,3.3111,3.2842,3.2566,3.2265,3.1788,3.126,3.0708,3.0382,3.0105,2.9854,2.9804,2.9804,2.9804,2.9804,2.9804,2.9804,2.9804,2.9804,2.9804,2.9804,2.9679,2.9377,2.9063,2.8348,2.7002,2.6364,2.5812,2.5292,2.5485,2.5511,2.5267,2.5511,2.5511,2.5209,2.5452,2.5762,2.6038,2.5728,2.5335,0.0,0.0,0.0,0.0,0.0,0.0,0.0,2.665,2.7806,2.8976,3.0809,3.2641,3.4098,3.5655,3.7036,3.8015,3.8668,3.9195,3.9622,3.9697,3.9697,3.9697,3.9697,3.9697,3.9697,3.9697,3.9697,3.9697,3.9697,3.9697,3.9697,3.9697,3.9697,3.9697,3.9697,3.9697,3.9697,3.9697,3.9697,3.9697,3.9697,3.9697,3.9697,3.9697,3.9697,3.9697,3.9697,3.9697,3.9697,3.9697,3.9697,3.9697,3.9697,3.9421,3.8969,3.8391,3.7764,3.7111,3.6732,3.6505,3.6405,3.6405,3.6405,3.6329,3.583,3.5658,3.5533,3.4981,3.453,3.4198,3.4098,3.3646,3.3287,3.3287,3.3187,3.2943,3.2491,3.229,3.1964,3.1085,3.0758,3.0482,3.003,2.9854,2.9804,2.9804,2.9804,2.9804,2.9804,2.9804,2.9804,2.9804,2.9804,2.9804,2.9804,2.9277,2.8512,2.767,2.7494,2.7278,2.6826,2.6826,2.6826,2.6826,2.7253,2.7444,2.7444,2.7896,2.8097,2.8097,2.8097,2.762,2.66,2.541,2.5151,2.7067,2.6967,2.7404,0.0,3.1436,3.1311,3.2918,3.4223,3.5232,3.6003,3.7036,3.804,3.8668,3.9245,3.9622,3.9697,3.9697,3.9697,3.9697,3.9697,3.9697,3.9697,3.9697,3.9697,3.9697,3.9697,3.9697,3.9697,3.9697,3.9697,3.9697,3.9697,3.9697,3.9697,3.9697,3.9697,3.9697,3.9697,3.9697,3.9697,3.9697,3.9697,3.9697,3.9697,3.9697,3.9697,3.9697,3.9697,3.9697,3.9697,3.9647,3.9546,3.8969,3.809,3.7186,3.7111,3.6832,3.6405,3.6405,3.6405,3.6405,3.6329,3.6329,3.6157,3.5558,3.5357,3.5207,3.4705,3.4223,3.3796,3.3796,3.3445,3.3068,3.2993,3.2566,3.2164,3.2064,3.126,3.0608,3.0532,3.0105,2.9804,2.9804,2.9804,2.9804,2.9804,2.9804,2.9804,2.9804,2.9804,2.9804,2.9804,2.9277,2.8838,2.8712,2.8273,2.7971,2.7921,2.7921,2.7921,2.7921,2.7971,2.8021,2.8021,2.8072,2.8097,2.8097,2.8097,2.8047,2.9227,2.8549,2.8423,2.9327,3.0181,3.1185,3.2759,3.3445,3.4098,3.5127,3.6207,3.7161,3.7713,3.8467,3.9069,3.932,3.9546,3.9697,3.9697,3.9697,3.9572,3.9245,3.9496,3.9697,3.9697,3.9697,3.9697,3.9697,3.9697,3.9697,3.9697,3.9697,3.9697,3.9697,3.9697,3.9697,3.9697,3.9697,3.9697,3.9697,3.9697,3.9697,3.9697,3.9697,3.9697,3.9697,3.9697,3.9697,3.9697,3.9697,3.9697,3.9697,3.9697,3.9697,3.9622,3.9069,3.8617,3.8065,3.7412,3.7036,3.6784,3.6505,3.6405,3.6405,3.6405,3.6405,3.6355,3.6081,3.578,3.5458,3.5207,3.455,3.3897,3.3897,3.347,3.3111,3.3111,3.2893,3.2616,3.229,3.1863,3.1336,3.0733,3.0432,3.0156,2.9854,2.9804,2.9804,2.9804,2.9804,2.9804,2.9804,2.9804,2.9804,2.9804,2.9578,2.9428,2.9428,2.9227,2.9076,2.9076,2.9076,2.9076,2.9076,2.9076,2.9076,2.9076,2.9076,2.9076,2.9076,2.9076,2.9076,3.0407,3.0382,3.0733,3.1185,3.2717,3.4148,3.4198,3.5253,3.6383,3.6983,3.7688,3.8366,3.8844,3.9195,3.9471,3.9471,3.9597,3.9697,3.9697,3.9572,3.932,3.8969,3.9094,3.9295,3.9446,3.9597,3.9697,3.9697,3.9697,3.9697,3.9697,3.9697,3.9697,3.9697,3.9697,3.9697,3.9697,3.9697,3.9697,3.9697,3.9697,3.9697,3.9697,3.9697,3.9697,3.9697,3.9697,3.9697,3.9697,3.9697,3.9697,3.9697,3.9697,3.9697,3.9647,3.9245,3.9045,3.8768,3.7739,3.7312,3.7086,3.6581,3.6405,3.6405,3.6405,3.6405,3.6405,3.6405,3.6081,3.578,3.578,3.5052,3.4349,3.4349,3.3822,3.3294,3.3294,3.3194,3.2943,3.2541,3.2315,3.1964,3.1185,3.0809,3.0482,3.008,2.988,2.9804,2.9804,2.9804,2.9804,2.9804,2.9804,2.9804,2.9804,2.9804,2.9804,2.9804,2.9804,2.9804,2.9804,2.9804,2.9804,2.9804,2.9804,2.9804,2.9804,2.9804,2.9804,2.9804,2.9804,2.9804,2.9113,2.974,3.1009,3.2591,3.3847,3.5102,3.6709,3.7513,3.809,3.8668,3.8869,3.8894,3.8919,3.8894,3.8944,3.8944,3.9346,3.9697,3.9697,3.922,3.8944,3.8919,3.8391,3.8291,0.0,3.9371,3.9697,3.9697,3.9697,3.9697,3.9697,3.9697,3.9697,3.9697,3.9697,3.9697,3.9697,3.9697,3.9697,3.9697,3.9697,3.9697,3.9697,3.9697,3.9697,3.9697,3.9697,3.9697,3.9697,3.9697,3.9697,3.9697,3.9697,3.9697,3.9697,3.9672,3.932,3.8844,3.8191,3.7638,3.7086,3.6581,3.6405,3.6405,3.6405,3.6405,3.6405,3.6405,3.6405,3.638,3.638,3.5906,3.5458,3.5458,3.463,3.3872,3.3872,3.3445,3.3111,3.3086,3.2591,3.2215,3.2164,3.1311,3.0608,3.0583,3.0131,2.9804,2.9804,2.9804,2.9804,2.9804,2.9804,2.9804,2.9804,2.9804,2.9804,2.9804,2.9804,2.9804,2.9804,2.9804,2.9804,2.9804,2.9804,2.9804,2.9804,2.9804,2.9804,2.9804,2.9804,2.9804,3.0532,3.1662,3.3119,3.4399,3.5805,3.7161,3.809,3.8743,3.9069,3.8919,3.8567,3.8191,3.7814,3.7739,3.7864,3.8241,3.8768,3.927,3.9647,3.9546,3.9145,3.8391,3.8467,0.0,0.0,0.0,0.0,3.9647,3.9346,3.9295,3.9672,3.9697,3.9697,3.9697,3.9697,3.9697,3.9697,3.9697,3.9697,3.9697,3.9697,3.9697,3.9697,3.9697,3.9697,3.9697,3.9697,3.9697,3.9697,3.9697,3.9697,3.9697,3.9697,3.9697,3.9697,3.9697,3.9572,3.9346,3.8768,3.8216,3.7638,3.7086,3.6707,3.6405,3.6405,3.6405,3.6405,3.6405,3.6405,3.6405,3.6405,3.5956,3.5508,3.5508,3.4931,3.4349,3.3972,3.3746,3.352,3.3144,3.2918,3.2667,3.229,3.1913,3.1436,3.0733,3.0156,2.9804,2.9804,2.9804,2.9804,2.9804,2.9804,2.9804,2.9804,2.9804,2.9804,2.9804,2.9804,2.9804,2.9804,2.9804,2.9804,2.9804,2.9804,2.9804,2.9804,2.9804,2.9804,2.9804,2.9804,2.9804,3.1738,3.3068,3.455,3.6009,3.7387,3.8467,3.9019,3.9295,3.9245,3.8668,3.7789,3.696,3.6408,3.6132,3.6332,3.7287,3.7889,3.8592,3.9572,3.9346,3.8894,3.8366,3.8291,3.814,0.0,0.0,0.0,3.932,3.9245,3.932,3.9672,3.9697,3.9697,3.9697,3.9697,3.9697,3.9697,3.9697,3.9697,3.9697,3.9697,3.9697,3.9697,3.9697,3.9697,3.9697,3.9697,3.9697,3.9697,3.9697,3.9697,3.9697,3.9697,3.9697,3.9697,3.9697,3.9697,3.9622,3.912,3.8617,3.8191,3.7437,3.6983,3.6656,3.6455,3.6405,3.6405,3.6405,3.6405,3.6405,3.6405,3.6107,3.583,3.583,3.5382,3.4831,3.4299,3.4048,3.3746,3.3194,3.3111,3.3011,3.2591,3.234,3.1913,3.1035,3.0432,3.0005,2.9804,2.9804,2.9804,2.9804,2.9804,2.9804,2.9804,2.9804,2.9804,2.9804,2.9804,2.9804,2.9804,2.9804,2.9804,2.9804,2.9804,2.9804,2.9804,2.9804,2.9804,2.9804,2.9804,2.9804,3.2767,3.4048,3.5429,3.7538,3.8492,3.9095,3.9546,3.9195,3.8617,3.8015,3.6533,3.5157,3.458,3.4123,3.4349,3.6006,3.6784,3.7764,3.9446,3.8768,3.8291,3.8869,3.7914,3.7688,3.8718,3.7889,0.0,3.8844,0.0,3.9647,3.9697,3.9697,3.9697,3.9697,3.9697,3.9697,3.9697,3.9697,3.9697,3.9697,3.9697,3.9697,3.9697,3.9697,3.9697,3.9697,3.9697,3.9697,3.9697,3.9697,3.9697,3.9697,3.9697,3.9697,3.9697,3.9697,3.9697,3.9622,3.9094,3.8944,3.8743,3.7588,3.7211,3.7086,3.6581,3.6405,3.6405,3.6405,3.6405,3.6405,3.6405,3.6405,3.6405,3.6405,3.5956,3.5382,3.4831,3.4324,3.3771,3.3262,3.3136,3.3111,3.3111,3.2591,3.2039,3.1512,3.0984,3.0457,2.9905,2.9804,2.9804,2.9804,2.9804,2.9804,2.9804,2.9804,2.9804,2.9804,2.9804,2.9804,2.9804,2.9804,2.9804,2.9804,2.9804,2.9804,2.9804,2.9804,2.9804,2.9804,2.9804,2.9804,3.453,3.6332,3.7939,3.8517,3.9069,3.9421,3.9145,3.8316,3.7337,3.6335,3.448,3.2767,3.1838,3.2215,3.3068,3.4324,3.6031,3.7764,3.9446,3.9446,3.917,3.8944,3.8617,3.8391,3.8241,3.8366,0.0,0.0,3.8592,3.8793,3.9647,3.9697,3.9697,3.9697,3.9697,3.9697,3.9697,3.9697,3.9697,3.9697,3.9697,3.9697,3.9697,3.9697,3.9697,3.9697,3.9697,3.9697,3.9697,3.9697,3.9697,3.9697,3.9697,3.9697,3.9697,3.9697,3.9697,3.9672,3.9521,3.922,3.8793,3.804,3.7513,3.7086,3.6581,3.6405,3.6405,3.6405,3.6405,3.6405,3.6405,3.6405,3.6405,3.6405,3.6304,3.6006,3.5408,3.4856,3.4349,3.3796,3.3345,3.3111,3.3111,3.2591,3.2164,3.2014,3.1537,3.1009,3.0482,3.0055,2.9804,2.9804,2.9804,2.9804,2.9804,2.9804,2.9804,2.9804,2.9804,2.9804,2.9804,2.9804,2.9804,2.9804,2.9804,2.9804,2.9804,2.9804,2.9804,2.9804,2.9804,2.9804,3.621,3.7713,3.8969,3.917,3.927,3.912,3.8366,3.7262,3.5956,3.4053,3.234,3.0733,2.9402,3.003,3.1286,3.2893,3.5027,3.7136,3.9069,3.932,3.9295,3.9245,3.9019,3.8843,3.8768,3.8818,3.902,0.0,3.8944,3.9019,3.9672,3.9697,3.9697,3.9697,3.9697,3.9697,3.9697,3.9697,3.9697,3.9697,3.9697,3.9697,3.9697,3.9697,3.9697,3.9697,0.0,3.9697,3.9697,3.9697,3.9697,3.9697,3.9697,3.9697,3.9697,3.9697,3.9697,3.9697,3.9697,3.9496,3.9145,3.8567,3.8015,3.7437,3.6885,3.6606,3.6405,3.6405,3.6405,3.6405,3.6405,3.6405,3.6405,3.6405,3.6405,3.6207,3.5608,3.5257,3.4806,3.4048,3.3646,3.337,3.3162,3.2817,3.2591,3.2591,3.2114,3.1637,3.1361,3.0633,3.0055,2.9829,2.9804,2.9804,2.9804,2.9804,2.9804,2.9804,2.9804,2.9804,2.9804,2.9804,2.9804,2.9804,2.9804,2.9804,2.9804,2.9804,2.9804,2.9804,2.9804,2.9804,3.7688,3.8542,3.9094,3.9572,3.922,3.8467,3.7337,3.6006,3.4229,3.1712,3.0156,2.88,2.7318,2.8021,2.949,3.1738,3.3928,3.6185,3.8542,3.8919,3.9069,3.9622,3.927,3.917,3.9647,3.927,3.917,3.9672,3.9697,3.9697,3.9697,3.9697,3.9697,3.9697,3.9697,3.9697,3.9697,3.9697,3.9697,3.9697,3.9697,3.9697,3.9697,3.9697,3.9697,3.9697,3.9697,0.0,3.9697,3.9697,3.9697,3.9697,3.9697,3.9697,3.9697,3.9697,3.9697,3.9697,3.9697,3.9697,3.9597,3.9044,3.8542,3.8015,3.7462,3.696,3.6606,3.6531,3.6505,3.6505,3.643,3.6405,3.6405,3.6405,3.6405,3.6279,3.5708,3.5558,3.5182,3.4198,3.3997,3.3847,3.3294,3.3237,3.3169,3.3136,3.2641,3.229,3.2215,3.1336,3.0532,3.0055,3.0005,2.998,2.9905,2.9905,2.988,2.9804,2.9804,2.9804,2.9804,2.9804,2.9804,2.9804,2.9804,2.9804,2.9804,2.9804,2.9804,2.9804,2.9804,2.9804,3.8391,3.912,3.9572,3.9672,3.8919,3.7864,3.6784,3.4248,3.1712,3.0357,2.8072,2.6239,2.5937,2.7193,2.8976,3.1185,3.342,3.5805,3.8542,3.8919,3.9069,3.9622,3.9622,3.9597,3.9697,3.9597,0.0,0.0,3.9697,3.9697,3.9697,3.9697,3.9697,3.9697,3.9697,3.9697,3.9697,3.9697,3.9697,3.9697,3.9697,3.9697,3.9697,3.9697,3.9697,3.9697,3.9697,0.0,3.9697,3.9697,3.9697,3.9697,3.9697,3.9697,3.9697,3.9697,3.9697,3.9697,3.9697,3.9697,3.9597,3.9044,3.8844,3.8617,3.804,3.7789,3.7638,3.7161,3.7036,3.6935,3.6531,3.6405,3.6405,3.6405,3.6405,3.638,3.6279,3.5855,3.5307,3.4655,3.4575,3.4399,3.3847,3.3746,3.3596,3.3187,3.2993,3.2742,3.2265,3.1662,3.121,3.111,3.111,3.0934,3.0507,3.0482,3.0281,2.9829,2.9804,2.9804,2.9804,2.9804,2.9804,2.9804,2.9804,2.9804,2.9804,2.9804,2.9804,2.9804,2.9804,2.9804,3.8994,3.9496,3.9697,3.9697,3.8417,3.6784,3.5429,3.2742,3.0005,2.8021,2.6314,2.5008,2.4431,2.5912,2.7795,2.9402,3.1788,3.4399,3.7235,3.7863,3.8417,3.9572,3.9697,3.9697,3.9697,3.9697,3.9697,3.9697,3.9697,3.9697,3.9697,3.9697,3.9697,3.9697,3.9697,3.9697,3.9697,3.9697,3.9697,3.9697,3.9697,3.9697,3.9697,3.9697,3.9697,3.9697,3.9697,0.0,3.9697,3.9697,3.9697,3.9697,3.9697,3.9697,3.9697,3.9697,3.9697,3.9697,3.9697,3.9697,3.9647,3.9371,3.9145,3.8869,3.8542,3.8241,3.7939,3.7688,3.7613,3.7487,3.6983,3.6832,3.6757,3.648,3.6405,3.6405,3.6405,3.6157,3.5805,3.5207,3.5107,3.4931,3.4424,3.4324,3.4148,3.3596,3.3495,3.3294,3.2742,3.2441,3.2039,3.1461,3.1386,3.1286,3.1035,3.1009,3.0909,3.0633,3.0633,3.0633,3.0633,3.0633,3.0633,3.0633,3.0633,3.0633,3.0633,3.0633,3.0633,3.0633,3.0633,3.0633,3.9245,3.9597,3.9672,3.9546,3.7839,3.5755,3.4098,3.1411,2.8549,2.6113,2.4983,2.4199,2.3421,2.4858,2.659,2.8047,3.0206,3.2742,3.5755,3.6659,3.7638,3.932,3.9622,3.9697,3.9697,3.9697,0.0,3.9697,3.9697,3.9697,3.9697,3.9697,3.9697,3.9697,3.9697,3.9697,3.9697,3.9697,3.9697,3.9697,3.9697,3.9697,3.9697,3.9697,3.9697,3.9697,3.9697,0.0,0.0,3.9697,3.9697,3.9697,3.9697,3.9697,3.9697,3.9697,3.9697,3.9697,3.9697,3.9697,3.9697,3.9697,3.9396,3.9095,3.9095,3.8743,3.8341,3.8216,3.8191,3.8065,3.7513,3.7362,3.7236,3.6707,3.648,3.6405,3.6405,3.6405,3.6279,3.5805,3.5683,3.5508,3.4956,3.4856,3.468,3.4148,3.3972,3.3746,3.3319,3.3144,3.2742,3.1838,3.1738,3.1687,3.1587,3.1562,3.1512,3.1411,3.1386,3.1386,3.1386,3.1386,3.1386,3.1386,3.1386,3.1386,3.1386,3.1386,3.1386,3.1386,3.1386,3.1386,3.8768,3.932,3.9572,3.912,3.7262,3.5132,3.352,3.027,2.7143,2.5862,2.4356,2.3396,2.3853,2.4506,2.5837,2.8386,2.9503,3.1336,3.5056,3.6107,3.7086,3.8743,3.9396,3.9697,3.9697,3.9697,3.9697,3.9697,3.9697,3.9697,3.9697,3.9697,3.9697,3.9697,3.9697,3.9697,3.9697,3.9697,3.9697,3.9697,3.9697,3.9697,3.9697,3.9697,3.9697,3.9697,3.9697,0.0,0.0,3.9697,3.9697,3.9697,3.9697,3.9697,3.9697,3.9697,3.9697,3.9697,3.9697,3.9697,3.9697,3.9697,3.9672,3.9622,3.9622,3.9597,3.9446,3.8919,3.8844,3.8668,3.809,3.7939,3.7789,3.7236,3.6782,3.6405,3.6405,3.6405,3.638,3.6355,3.6329,3.6107,3.5508,3.5433,3.5232,3.4726,3.4223,3.3872,3.3822,3.3395,3.3086,3.2943,3.2918,3.2717,3.219,3.2139,3.1913,3.1411,3.1386,3.1386,3.1386,3.1386,3.1386,3.1386,3.1386,3.1386,3.1386,3.1386,3.1386,3.1386,3.1386,3.1386,3.8592,3.927,3.9572,3.9019,3.6935,3.448,3.2516,2.9365,2.6399,2.4933,2.3797,2.317,2.3396,2.3954,2.4908,2.664,2.7394,2.89,3.2098,3.3043,3.4374,3.7084,3.7839,3.8592,0.0,0.0,3.9697,3.9697,3.9697,0.0,3.9697,3.9697,3.9697,3.9697,3.9697,3.9697,3.9697,3.9697,3.9697,3.9697,3.9697,3.9697,3.9697,3.9697,3.9697,3.9697,3.9697,0.0,0.0,3.9697,3.9697,3.9697,3.9697,3.9697,3.9697,3.9697,3.9697,3.9697,3.9697,3.9697,3.9697,3.9697,3.9697,3.9697,3.9697,3.9697,3.9647,3.9421,3.9371,3.9245,3.8668,3.8266,3.7939,3.7739,3.7262,3.6908,3.6908,3.6631,3.6405,3.6405,3.6405,3.6329,3.6081,3.6031,3.5855,3.5257,3.4981,3.4731,3.4424,3.4198,3.3947,3.3621,3.3269,3.2993,3.2742,3.2742,3.2641,3.2416,3.239,3.239,3.239,3.239,3.239,3.239,3.239,3.239,3.239,3.239,3.239,3.239,3.239,3.239,3.7513,3.8517,3.9019,3.8316,3.6282,3.3847,3.1461,2.8636,2.6021,2.433,2.3521,2.3095,2.3095,2.3446,2.4155,0.0,0.0,2.7278,3.0206,3.106,3.2441,3.5349,3.6257,3.7287,3.8793,3.9396,3.9697,3.9697,3.9697,0.0,3.9697,3.9697,3.9697,3.9697,3.9697,3.9697,3.9697,3.9697,3.9697,3.9697,3.9697,3.9697,3.9697,3.9697,3.9697,3.9697,3.9697,0.0,0.0,3.9697,3.9697,3.9697,3.9697,3.9697,3.9697,3.9697,3.9697,3.9697,3.9697,3.9697,3.9697,3.9697,3.9697,3.9697,3.9697,3.9697,3.9697,3.9697,3.9697,3.9597,3.922,3.8693,3.8266,3.8266,3.7839,3.7387,3.7211,3.6885,3.6606,3.643,3.6405,3.6405,3.6405,3.6405,3.6279,3.5855,3.5608,3.5357,3.4981,3.4781,3.4575,3.4198,3.3796,3.342,3.3136,3.3111,3.3111,3.3111,3.3111,3.3111,3.3111,3.3111,3.3111,3.3111,3.3111,3.3111,3.3111,3.3111,3.3111,3.3111,3.3111,3.3111,3.5382,3.6737,3.7764,3.6707,3.5127,3.3194,3.0432,2.8108,2.6021,2.433,2.3521,2.3095,2.3095,2.312,2.3647,2.5335,2.5611,0.0,3.0156,3.106,3.2014,3.3721,3.4856,3.5959,3.7111,3.8718,3.9697,3.9697,3.9697,0.0,3.9697,3.9697,3.9697,3.9697,3.9697,3.9697,3.9697,3.9697,3.9697,3.9697,3.9697,3.9697,3.9697,3.9697,3.9697,0.0,0.0,0.0,0.0,3.9697,3.9697,3.9697,3.9697,3.9697,3.9697,3.9697,3.9697,3.9697,3.9697,3.9697,3.9697,3.9697,3.9697,3.9697,3.9697,3.9697,3.9697,3.9697,3.9697,3.9697,3.9697,3.927,3.8919,3.8919,3.8417,3.7839,3.7287,3.7186,3.701,3.6505,3.6405,3.6405,3.6405,3.6405,3.6405,3.6405,3.5881,3.5508,3.5483,3.5006,3.468,3.468,3.47,3.4248,3.3212,3.3111,3.3111,3.3111,3.3111,3.3111,3.3111,3.3111,3.3111,3.3111,3.3111,3.3111,3.3111,3.3111,3.3111,3.3111,3.3111,3.3111,3.3596,3.45,3.4926,3.3796,3.2842,3.1461,2.8699,2.7278,2.5921,2.3828,2.3221,2.3095,2.3095,2.3095,2.3647,2.5335,2.5586,0.0,2.8599,3.003,3.1612,3.3646,3.6558,3.8517,0.0,0.0,3.9697,3.9697,0.0,0.0,3.9697,3.9697,3.9697,3.9697,3.9697,3.9697,3.9697,3.9697,3.9697,3.9697,3.9697,3.9697,3.9697,3.9697,3.9697,0.0,0.0,0.0,0.0,3.9697,3.9697,3.9697,3.9697,3.9697,3.9697,3.9697,3.9697,3.9697,3.9697,3.9697,3.9697,3.9697,3.9697,3.9697,3.9697,3.9697,3.9697,3.9697,3.9697,3.9697,3.9697,3.9572,3.9421,3.9421,3.8994,3.8542,3.8416,3.7739,3.7136,3.7008,3.6656,3.6405,3.6405,3.6405,3.6405,3.6405,3.6254,3.6107,3.6107,3.5956,3.5705,3.5282,3.5232,3.4956,3.4248,3.4198,3.4048,3.3671,3.3646,3.347,3.3136,3.3111,3.3111,3.3111,3.3111,3.3111,3.3111,3.3111,3.3111,3.3111,3.3111,3.3111,3.1361,3.239,3.2742,3.1838,3.1185,3.0105,2.758,2.6575,2.5594,2.3521,2.3095,2.3095,2.3095,2.3095,2.3521,2.4782,2.5184,2.5887,2.757,2.9252,3.1286,3.3897,3.6885,0.0,0.0,3.9446,3.9697,3.9697,0.0,0.0,3.9697,3.9697,3.9697,3.9697,3.9697,3.9697,3.9697,3.9697,3.9697,3.9697,3.9697,3.9697,3.9697,3.9697,3.9697,0.0,0.0,0.0,0.0,3.9697,3.9697,3.9697,3.9697,3.9697,3.9697,3.9697,3.9697,3.9697,3.9697,3.9697,3.9697,3.9697,3.9697,3.9697,3.9697,3.9697,3.9697,3.9697,3.9697,3.9697,3.9697,3.9697,3.9697,3.9697,3.9421,3.912,3.8969,3.8366,3.7764,3.7538,3.7211,3.6958,3.6757,3.6732,3.6656,3.643,3.6405,3.6405,3.6405,3.6405,3.6279,3.5881,3.5855,3.5705,3.5378,3.4951,3.4575,3.4223,3.4198,3.4048,3.3721,3.3696,3.3696,3.3696,3.3696,3.3596,3.3395,3.3212,3.3111,3.3111,3.3111,3.3111,0.0,3.0206,3.0859,3.0331,2.9854,2.8925,2.6801,2.5946,0.0,2.3396,2.3045,2.307,2.3145,2.3095,2.3296,2.4104,2.4632,2.5511,2.7168,2.8976,3.1336,3.4575,3.6383,0.0,3.8065,3.9069,3.9697,0.0,0.0,0.0,3.9697,3.9697,3.9697,3.9697,3.9697,3.9697,3.9697,3.9697,3.9697,3.9697,3.9697,3.9697,3.9697,3.9697,3.9697,0.0,0.0,0.0,0.0,3.9697,3.9697,3.9697,3.9697,3.9697,3.9697,3.9697,3.9697,3.9697,3.9697,3.9697,3.9697,3.9697,3.9697,3.9697,3.9697,3.9697,3.9697,3.9697,3.9697,3.9697,3.9697,3.9697,3.9697,3.9697,3.9697,3.9546,3.9044,3.8944,3.8718,3.8165,3.804,3.7839,3.7337,3.7236,3.7061,3.6556,3.6455,3.6455,3.6405,3.6405,3.6405,3.6405,3.6405,3.6405,3.6405,3.5429,3.4781,3.4776,3.4776,3.4731,3.468,3.468,3.468,3.468,3.468,3.4474,3.3947,3.3445,3.3194,3.3194,3.3194,3.3194,2.5686,0.0,2.6841,2.6314,2.6389,2.6239,0.0,2.4808,2.4499,2.2819,2.2468,2.2744,2.3627,2.31,2.3376,2.6063,2.6298,2.6666,2.8323,3.1436,3.4474,3.6935,3.8341,3.9145,3.9295,3.9546,3.9697,0.0,0.0,3.9697,3.9697,3.9697,3.9697,3.9697,3.9697,3.9697,3.9697,3.9697,3.9697,3.9697,3.9697,3.9697,3.9697,3.9697,3.9697,0.0,0.0,0.0,3.9697,3.9697,3.9697,3.9697,3.9697,3.9697,3.9697,3.9697,3.9697,3.9697,3.9697,3.9697,3.9697,3.9697,3.9697,3.9697,3.9697,3.9697,3.9697,3.9697,3.9697,3.9697,3.9697,3.9697,3.9697,3.9697,3.9697,3.9672,3.9521,3.917,3.8869,3.8693,3.8316,3.7965,3.7839,3.7814,3.7638,3.7086,3.6985,3.6835,3.6455,3.6405,3.6405,3.6405,3.6405,3.6405,3.6405,3.6179,3.5805,3.5332,3.5307,3.5107,3.4751,3.468,3.468,3.468,3.468,3.465,3.4525,3.4399,3.4324,3.4324,3.4324,3.4324,2.3923,2.5008,2.5912,2.5636,2.5787,2.5795,2.4933,2.4381,2.3697,2.2548,2.2121,2.2196,2.3075,2.315,2.3753,2.5812,2.654,2.7806,3.0457,3.3251,3.5931,3.814,3.917,3.9697,0.0,0.0,0.0,0.0,0.0,3.9697,3.9697,3.9697,3.9697,3.9697,3.9697,3.9697,3.9697,3.9697,3.9697,3.9697,3.9697,3.9697,3.9697,3.9697,3.9697,0.0,0.0,0.0,3.9697,3.9697,3.9697,3.9697,3.9697,3.9697,3.9697,3.9697,3.9697,3.9697,3.9697,3.9697,3.9697,3.9697,3.9697,3.9697,3.9697,3.9697,3.9697,3.9697,3.9697,3.9697,3.9697,3.9697,3.9697,3.9697,3.9697,3.9697,3.9697,3.9446,3.9245,3.9245,3.8994,3.8693,3.8442,3.8391,3.8216,3.7638,3.7563,3.7462,3.7161,3.6933,3.6782,3.6782,3.6556,3.6405,3.6405,3.6405,3.6279,3.5931,3.5906,3.578,3.5479,3.5479,3.5479,3.5479,3.5228,3.5056,3.5056,3.4806,3.468,3.468,3.468,3.468,2.3321,2.4883,2.6424,2.6072,2.6122,2.6072,2.536,2.4098,2.2945,2.2393,2.1945,2.187,2.2673,2.3477,2.4356,2.541,2.6892,2.9202,3.2918,3.4726,3.6458,3.8617,3.9346,0.0,3.9697,0.0,0.0,0.0,0.0,3.9697,3.9697,3.9697,3.9697,3.9697,3.9697,3.9697,3.9697,3.9697,3.9697,3.9697,3.9697,3.9697,3.9697,3.9697,3.9697,3.9697,0.0,0.0,3.9697,3.9697,3.9697,3.9697,3.9697,3.9697,3.9697,3.9697,3.9697,3.9697,3.9697,3.9697,3.9697,3.9697,3.9697,3.9697,3.9697,3.9697,3.9697,3.9697,3.9697,3.9697,3.9697,3.9697,3.9697,3.9697,3.9697,3.9697,3.9697,3.9697,3.9697,3.9697,3.9697,3.9546,3.9069,3.9045,3.8793,3.8216,3.814,3.8115,3.8015,3.7588,3.7312,3.7312,3.6857,3.6531,3.6531,3.6455,3.6405,3.6405,3.6405,3.6405,3.6405,3.6405,3.6405,3.6405,3.5906,3.5633,3.5633,3.5203,3.4977,3.4977,3.4977,3.4977,2.4274,2.5485,2.6047,2.4104,2.4356,2.4775,2.3722,2.3271,2.2945,2.2393,2.2246,2.2774,2.4732,2.4481,2.5109,2.8473,3.0005,3.1788,3.4705,0.0,3.6933,3.8718,0.0,3.9697,0.0,0.0,0.0,0.0,0.0,3.9697,3.9697,3.9697,3.9697,3.9697,3.9697,3.9697,3.9697,3.9697,3.9697,3.9697,3.9697,3.9697,3.9697,3.9697,3.9697,3.9697,0.0,3.9697,3.9697,3.9697,3.9697,3.9697,3.9697,3.9697,3.9697,3.9697,3.9697,3.9697,3.9697,3.9697,3.9697,3.9697,3.9697,3.9697,3.9697,3.9697,3.9697,3.9697,3.9697,3.9697,3.9697,3.9697,3.9697,3.9697,3.9697,3.9697,3.9697,3.9697,3.9697,3.9697,3.9697,3.9672,3.9572,3.9572,3.9371,3.8818,3.8743,3.8567,3.8065,3.7939,3.7889,3.7889,3.7387,3.7061,3.7061,3.6681,3.6405,3.6405,3.6405,3.6405,3.6405,3.6405,3.6405,3.6405,3.6329,3.6279,3.6279,3.6204,3.6153,3.6153,3.6153,3.6153,2.3747,2.4732,2.5335,2.4274,2.5302,2.6465,2.5904,2.5076,2.4381,2.413,2.3853,2.4054,2.536,2.5937,2.7293,3.0557,3.2265,3.3847,3.573,3.6709,3.7764,0.0,0.0,3.9697,0.0,0.0,0.0,0.0,0.0,0.0,3.9697,3.9697,3.9697,3.9697,3.9697,3.9697,3.9697,3.9697,3.9697,3.9697,3.9697,3.9697,3.9697,3.9697,3.9697,3.9697,0.0,3.9697,3.9697,3.9697,3.9697,3.9697,3.9697,3.9697,3.9697,3.9697,3.9697,3.9697,3.9697,3.9697,3.9697,3.9697,3.9697,3.9697,3.9697,3.9697,3.9697,3.9697,3.9697,3.9697,3.9697,3.9697,3.9697,3.9697,3.9697,3.9697,3.9697,3.9697,3.9697,3.9697,3.9697,3.9697,3.9697,3.9697,3.9622,3.9346,3.932,3.922,3.8944,3.8668,3.8467,3.8467,3.7965,3.7638,3.7638,3.7387,3.6985,3.6455,3.6405,3.6405,3.6405,3.6405,3.6405,3.6405,3.6405,3.6405,3.6405,3.6405,3.6405,3.6405,3.6405,3.6405,2.3622,2.4123,2.465,2.4901,2.6189,2.7444,2.7821,2.6716,2.5711,2.6113,2.5862,2.5762,2.6264,2.7846,2.988,3.239,3.4098,3.5529,3.6832,3.7688,3.8567,3.9572,3.9697,0.0,0.0,0.0,0.0,0.0,0.0,0.0,3.9697,3.9697,3.9697,3.9697,3.9697,3.9697,3.9697,3.9697,3.9697,3.9697,3.9697,3.9697,3.9697,3.9697,3.9697,3.9697,3.9697,3.9697,3.9697,3.9697,3.9697,3.9697,3.9697,3.9697,3.9697,3.9697,3.9697,3.9697,3.9697,3.9697,3.9697,3.9697,3.9697,3.9697,3.9697,3.9697,3.9697,3.9697,3.9697,3.9697,3.9697,3.9697,3.9697,3.9697,3.9697,3.9697,3.9697,3.9697,3.9697,3.9697,3.9697,3.9697,3.9697,3.9697,3.9697,3.9697,3.9697,3.9697,3.9697,3.932,3.912,3.912,3.8542,3.814,3.8015,3.8015,3.7638,3.6857,3.6681,3.6531,3.6405,3.6405,3.6405,3.6405,3.6405,3.6405,3.6405,3.6405,3.6405,3.6405,3.6405,3.6405,2.5159,2.4757,2.4305,2.5285,2.531,2.546,2.6992,2.644,2.6038,2.7595,2.7896,2.8047,2.8537,3.0457,3.2491,3.4248,3.5504,3.6857,3.8517,0.0,3.9019,3.9622,3.9697,0.0,0.0,0.0,0.0,0.0,0.0,0.0,3.9697,3.9697,3.9697,3.9697,3.9697,3.9697,3.9697,3.9697,3.9697,3.9697,3.9697,3.9697,3.9697,3.9697,3.9697,3.9697,3.9697,3.9697,3.9697,3.9697,3.9697,3.9697,3.9697,3.9697,3.9697,3.9697,3.9697,3.9697,3.9697,3.9697,3.9697,3.9697,3.9697,3.9697,3.9697,3.9697,3.9697,3.9697,3.9697,3.9697,3.9697,3.9697,3.9697,3.9697,3.9697,3.9697,3.9697,3.9697,3.9697,3.9697,3.9697,3.9697,3.9697,3.9697,3.9697,3.9697,3.9697,3.9697,3.9697,3.9672,3.9647,3.9647,3.9145,3.8592,3.804,3.8015,3.7965,3.7889,3.7412,3.6933,3.643,3.6405,3.6405,3.6405,3.6405,3.6405,3.6405,3.6405,3.6405,3.6405,3.6405,3.6405,2.4054,2.4029,2.4255,2.5335,2.5711,2.6364,2.8398,2.9026,2.9578,3.0909,3.121,3.116,3.1009,3.2215,3.3571,3.453,3.6232,3.7739,3.8768,3.917,3.9471,3.9672,0.0,0.0,0.0,0.0,0.0,0.0,0.0,0.0,3.9697,3.9697,3.9697,3.9697,3.9697,3.9697,3.9697,3.9697,3.9697,3.9697,3.9697,3.9697,3.9697,3.9697,3.9697,3.9697,3.9697,3.9697,3.9697,3.9697,3.9697,3.9697,3.9697,3.9697,3.9697,3.9697,3.9697,3.9697,3.9697,3.9697,3.9697,3.9697,3.9697,3.9697,3.9697,3.9697,3.9697,3.9697,3.9697,3.9697,3.9697,3.9697,3.9697,3.9697,3.9697,3.9697,3.9697,3.9697,3.9697,3.9697,3.9697,3.9697,3.9697,3.9697,3.9697,3.9697,3.9697,3.9697,3.9697,3.9697,3.9697,3.9697,3.9496,3.9295,3.9069,3.9044,3.8919,3.8567,3.8015,3.7613,3.7387,3.7061,3.6933,3.6933,3.6581,3.6405,3.6405,3.6405,3.6405,3.6405,3.6405,3.6405,2.3572,2.3547,2.3979,2.5084,2.6072,2.7379,2.9754,3.0733,3.1662,3.347,3.3445,3.3061,3.2792,3.3244,3.3997,0.0,3.681,3.8266,3.9019,3.9446,3.9697,0.0,0.0,0.0,0.0,0.0,0.0,0.0,0.0,0.0,0.0,3.9697,3.9697,3.9697,3.9697,3.9697,3.9697,3.9697,3.9697,3.9697,3.9697,3.9697,3.9697,3.9697,3.9697,3.9697,3.9697,3.9697,3.9697,3.9697,3.9697,3.9697,3.9697,3.9697,3.9697,3.9697,3.9697,3.9697,3.9697,3.9697,3.9697,3.9697,3.9697,3.9697,3.9697,3.9697,3.9697,3.9697,3.9697,3.9697,3.9697,3.9697,3.9697,3.9697,3.9697,3.9697,3.9697,3.9697,3.9697,3.9697,3.9697,3.9697,3.9697,3.9697,3.9697,3.9697,3.9697,3.9697,3.9697,3.9697,3.9697,3.9697,3.9697,3.9697,3.9697,3.9697,3.9521,3.9196,3.8768,3.8391,3.8015,3.7638,3.7437,3.7437,3.6958,3.6681,3.6681,3.648,3.6405,3.6405,3.6405,3.6505,2.428,2.3547,2.3371,2.4525,2.6088,2.8047,3.0783,3.1009,3.1546,3.4831,3.4248,3.3269,3.3822,3.347,3.3866,3.6053,3.7287,3.8391,3.9546,3.9697,0.0,0.0,0.0,0.0,0.0,0.0,0.0,0.0,0.0,0.0,0.0,3.9672,3.9672,3.9672,3.9672,3.9672,3.9672,3.9672,3.9672,3.9672,3.9697,3.9697,3.9697,3.9697,3.9697,3.9697,3.9697,3.9697,3.9697,3.9697,3.9697,3.9697,3.9697,3.9697,3.9697,3.9697,3.9697,3.9697,3.9697,3.9697,3.9697,3.9697,3.9697,3.9697,3.9697,3.9697,3.9697,3.9697,3.9697,3.9697,3.9697,3.9697,3.9697,3.9697,3.9697,3.9697,3.9697,3.9697,3.9697,3.9697,3.9697,3.9697,3.9697,3.9697,3.9697,3.9697,3.9697,3.9697,3.9697,3.9697,3.9697,3.9697,3.9697,3.9697,3.9697,3.9697,3.9697,3.9697,3.9697,3.9195,3.8065,3.8015,3.8015,3.8015,3.7462,3.7186,3.7186,3.6681,3.643,3.643,3.643,3.6707,2.3226,2.3276,2.4104,2.5611,2.7821,3.0256,3.2616,3.3345,3.4223,3.6759,3.6282,3.5328,3.5056,3.4881,0.0,3.6232,3.7312,3.8391,3.9546,0.0,0.0,0.0,0.0,0.0,0.0,0.0,0.0,0.0,0.0,0.0,0.0,3.8718,3.8492,3.8492,3.8492,3.8492,3.8492,3.8492,3.8492,3.8517,3.8919,3.932,3.9697,3.9697,3.9697,3.9697,3.9697,3.9697,3.9697,3.9697,3.9697,3.9697,3.9697,3.9697,3.9697,3.9697,3.9697,3.9697,3.9697,3.9697,3.9697,3.9697,3.9697,3.9697,3.9697,3.9697,3.9697,3.9697,3.9697,3.9697,3.9697,3.9697,3.9697,3.9697,3.9697,3.9697,3.9697,3.9697,3.9697,3.9697,3.9697,3.9697,3.9697,3.9697,3.9697,3.9697,3.9697,3.9697,3.9697,3.9697,3.9697,3.9697,3.9697,3.9697,3.9697,3.9697,3.9697,3.9697,3.9697,3.9546,3.9195,3.8818,3.8617,3.8617,3.804,3.7764,3.7764,3.7588,3.7513,3.7513,3.7513,3.7613,2.413,2.4456,2.5519,2.7595,2.9377,3.1411,3.45,3.5629,3.6408,3.7739,3.7136,3.6282,3.5931,3.5504,0.0,3.6257,3.7111,3.799,3.8894,0.0,0.0,0.0,0.0,0.0,0.0,0.0,0.0,0.0,0.0,0.0,0.0,3.8191,3.8015,3.8015,3.8015,3.8015,3.8015,3.8015,3.8015,3.8015,3.8366,3.8818,3.9371,3.9597,3.9697,3.9697,3.9697,3.9697,3.9697,3.9697,3.9697,3.9697,3.9697,3.9697,3.9697,3.9697,3.9697,3.9697,3.9697,3.9697,3.9697,3.9697,3.9697,3.9697,3.9697,3.9697,3.9697,3.9697,3.9697,3.9697,3.9697,3.9697,3.9697,3.9697,3.9697,3.9697,3.9697,3.9697,3.9697,3.9697,3.9697,3.9697,3.9697,3.9697,3.9697,3.9697,3.9697,3.9697,3.9697,3.9697,3.9697,3.9697,3.9697,3.9697,3.9697,3.9697,3.9697,3.9697,3.9697,3.9697,3.9697,3.9371,3.9195,3.9195,3.8642,3.8341,3.8341,3.8115,3.8015,3.8015,3.8015,3.814,2.5946,2.6348,2.7153,2.9905,3.0834,3.2139,3.6257,3.7563,3.7965,3.8065,3.7262,3.6533,3.6505,3.5579,3.5203,3.6304,3.6908,3.7387,3.7939,0.0,0.0,0.0,0.0,0.0,0.0,0.0,0.0,0.0,0.0,0.0,0.0,3.7889,3.7864,3.7864,3.7864,3.7864,3.7864,3.7864,3.7864,0.0,3.7914,3.8216,3.8793,3.9346,3.9647,3.9697,3.9697,3.9697,3.9697,3.9697,3.9697,3.9697,3.9697,3.9697,3.9697,3.9697,3.9697,3.9697,3.9697,3.9697,3.9697,3.9697,3.9697,3.9697,3.9697,3.9697,3.9697,3.9697,3.9697,3.9697,3.9697,3.9697,3.9697,3.9697,3.9697,3.9697,3.9697,3.9697,3.9697,3.9697,3.9697,3.9697,3.9697,3.9697,3.9697,3.9697,3.9697,3.9697,3.9697,3.9697,3.9697,3.9697,3.9697,3.9697,3.9697,3.9697,3.9697,3.9697,3.9697,3.9697,3.9697,3.9697,3.9697,3.9697,3.9195,3.8994,3.8994,3.8417,3.8165,3.8165,3.8165,3.8442,2.3873,2.5134,2.7153,2.9905,3.2524,3.4906,3.6784,3.7287,3.7613,3.8492,3.814,3.7538,3.7086,3.6458,3.6279,3.6933,3.7111,3.7387,0.0,0.0,0.0,0.0,0.0,0.0,0.0,0.0,0.0,0.0,0.0,0.0,3.7362,3.696,3.6757,3.6757,3.6757,3.6757,3.6757,3.6757,3.6757,0.0,3.7161,3.7437,3.7588,3.8592,3.927,3.9697,3.9697,3.9697,3.9697,3.9697,3.9697,3.9697,3.9697,3.9697,3.9697,3.9697,3.9697,3.9697,3.9697,3.9697,3.9697,3.9697,3.9697,3.9697,3.9697,3.9697,3.9697,3.9697,3.9697,3.9697,3.9697,3.9697,3.9697,3.9697,3.9697,3.9697,3.9697,3.9697,3.9697,3.9697,3.9697,3.9697,3.9697,3.9697,3.9697,3.9697,3.9697,3.9697,3.9697,3.9697,3.9697,3.9697,3.9697,3.9697,3.9697,3.9697,3.9697,3.9697,3.9697,3.9697,3.9697,3.9697,3.9697,3.9697,3.9572,3.9521,3.9521,3.9396,3.932,3.932,3.932,3.9396,2.4833,2.6364,2.8373,3.1436,3.4073,3.6157,3.6985,3.7186,3.7362,3.7939,3.7814,3.7513,3.7236,3.6782,3.6505,3.6782,3.6832,0.0,0.0,0.0,0.0,0.0,0.0,0.0,0.0,0.0,0.0,0.0,0.0,3.6832,3.6832,3.6556,3.6405,3.6405,3.6405,3.6405,3.6405,3.6405,3.6405,3.6405,3.6707,3.6935,3.7236,3.8366,3.9019,3.932,3.9572,3.9697,3.9697,3.9697,3.9697,3.9697,3.9697,3.9697,3.9697,3.9697,3.9697,3.9697,3.9697,3.9697,3.9697,3.9697,3.9697,3.9697,3.9697,3.9697,3.9697,3.9697,3.9697,3.9697,3.9697,3.9697,3.9697,3.9697,3.9697,3.9697,3.9697,3.9697,3.9697,3.9697,3.9697,3.9697,3.9697,3.9697,3.9697,3.9697,3.9697,3.9697,3.9697,3.9697,3.9697,3.9697,3.9697,3.9697,3.9697,3.9697,3.9697,3.9697,3.9697,3.9697,3.9697,3.9697,3.9697,3.9697,3.9697,3.9697,3.9697,3.9697,3.9697,3.9697,3.9697,3.9697,2.5536,2.7494,2.969,3.3068,3.5077,3.6358,3.691,3.7036,3.7036,3.7036,3.7111,3.7161,3.7061,3.6707,3.6405,3.6405,3.6405,0.0,0.0,0.0,0.0,0.0,0.0,0.0,0.0,0.0,0.0,0.0,0.0,3.6405,3.6405,3.6405,3.6405,3.6405,3.6405,3.6405,3.6405,3.6405,3.6405,3.6405,3.6405,3.6656,3.7086,3.8115,3.8743,3.8944,3.9346,3.9597,3.9697,3.9697,3.9697,3.9697,3.9697,3.9697,3.9697,3.9697,3.9697,3.9697,3.9697,3.9697,3.9697,3.9697,3.9697,3.9697,3.9697,3.9697,3.9697,3.9697,3.9697,3.9697,3.9697,3.9697,3.9697,3.9697,3.9697,3.9697,3.9697,3.9697,3.9697,3.9697,3.9697,3.9697,3.9697,3.9697,3.9697,3.9697,3.9697,3.9697,3.9697,3.9697,3.9697,3.9697,3.9697,3.9697,3.9697,3.9697,3.9697,3.9697,3.9697,3.9697,3.9697,3.9697,3.9697,3.9697,3.9697,3.9697,3.9697,3.9697,3.9697,3.9697,3.9697,3.9697,2.1597,2.5159,2.969,3.3068,3.4776,3.5805,3.638,3.6505,3.6505,3.6505,3.6908,3.7036,3.6606,3.6455,3.6405,3.6405,0.0,0.0,0.0,0.0,0.0,0.0,0.0,0.0,0.0,0.0,0.0,0.0,3.6405,3.6405,3.6405,3.6405,3.6405,3.6405,3.6405,3.6405,3.6405,3.6405,3.6405,3.6405,3.6405,3.6455,3.6531,3.7184,3.7989,3.8919,3.8994,3.9245,3.9697,3.9697,3.9697,3.9697,3.9697,3.9697,3.9697,3.9697,3.9697,3.9697,3.9697,3.9697,3.9697,3.9697,3.9697,3.9697,3.9697,3.9697,3.9697,3.9697,3.9697,3.9697,3.9697,3.9697,3.9697,3.9697,3.9697,3.9697,3.9697,3.9697,3.9697,3.9697,3.9697,3.9697,3.9697,3.9697,3.9697,3.9697,3.9697,3.9697,3.9697,3.9697,3.9697,3.9697,3.9697,3.9697,3.9697,3.9697,3.9697,3.9697,3.9697,3.9697,3.9697,3.9697,3.9697,3.9697,3.9697,3.9697,3.9697,3.9697,3.9697,3.9697,3.9697,3.9697,2.3331,2.6364,2.9615,3.2692,3.4048,3.4776,3.5328,3.568,3.5906,3.5906,3.6332,3.6707,3.6455,3.6405,3.6405,3.6405,0.0,0.0,0.0,0.0,0.0,0.0,0.0,0.0,0.0,0.0,0.0,0.0,3.6405,3.6405,3.6405,3.6405,3.6405,3.6405,3.6405,3.6405,3.6405,3.6405,3.6405,3.6405,3.6405,3.6405,3.6405,3.6656,3.7209,3.7965,3.8642,3.9019,3.927,3.9572,3.9697,3.9697,3.9697,3.9697,3.9697,3.9697,3.9697,3.9697,3.9697,3.9697,3.9697,3.9697,3.9697,3.9697,3.9697,3.9697,3.9697,3.9697,3.9697,3.9697,3.9697,3.9697,3.9697,3.9697,3.9697,3.9697,3.9697,3.9697,3.9697,3.9697,3.9697,3.9697,3.9697,3.9697,3.9697,3.9697,3.9697,3.9697,3.9697,3.9697,3.9697,3.9697,3.9697,3.9697,3.9697,3.9697,3.9697,3.9697,3.9697,3.9697,3.9697,3.9697,3.9697,3.9697,3.9697,3.9697,3.9697,3.9697,3.9697,3.9697,3.9697,3.9697,2.4086,2.6289,2.8161,3.126,3.2641,3.347,3.4324,3.4826,3.5132,0.0,3.578,3.6157,3.6157,3.6329,3.6405,0.0,0.0,0.0,0.0,0.0,0.0,0.0,0.0,0.0,0.0,0.0,0.0,0.0,3.6405,3.6405,3.6405,3.6405,3.6405,3.6405,3.6405,3.6405,3.6405,3.6405,3.6405,3.6405,3.6405,3.6405,3.6405,3.6405,3.6631,3.7036,3.8064,3.8617,3.8944,3.932,3.9572,3.9697,3.9697,3.9697,3.9697,3.9697,3.9697,3.9697,3.9697,3.9697,3.9697,3.9697,3.9697,3.9697,3.9697,3.9697,3.9697,3.9697,3.9697,3.9697,3.9697,3.9697,3.9697,3.9697,3.9697,3.9697,3.9697,3.9697,3.9697,3.9697,3.9697,3.9697,3.9697,3.9697,3.9697,3.9697,3.9697,3.9697,3.9697,3.9697,3.9697,3.9697,3.9697,3.9697,3.9697,3.9697,3.9697,3.9697,3.9697,3.9697,3.9697,3.9697,3.9697,3.9697,3.9697,3.9697,3.9697,3.9697,3.9697,3.9697,3.9697,3.9697,2.0815,2.2573,2.4324,2.8161,3.0331,3.1938,3.3571,3.3972,3.4123,3.465,3.5157,3.5533,3.5533,3.6006,3.6405,0.0,0.0,0.0,0.0,0.0,0.0,0.0,0.0,0.0,0.0,0.0,0.0,0.0,3.6405,3.6405,3.6405,3.6405,3.6405,3.6405,3.6405,3.6405,3.6405,3.6405,3.6405,3.6405,3.6405,3.6405,3.6405,3.6405,3.643,3.648,3.701,3.7889,3.8919,3.8944,3.922,3.9697,3.9697,3.9697,3.9697,3.9697,3.9697,3.9697,3.9697,3.9697,3.9697,3.9697,3.9697,3.9697,3.9697,3.9697,3.9697,3.9697,3.9697,3.9697,3.9697,3.9697,3.9697,3.9697,3.9697,3.9697,3.9697,3.9697,3.9697,3.9697,3.9697,3.9697,3.9697,3.9697,3.9697,3.9697,3.9697,3.9697,3.9697,3.9697,3.9697,3.9697,3.9697,3.9697,3.9697,3.9697,3.9697,3.9697,3.9697,3.9697,3.9697,3.9697,3.9697,3.9697,3.9697,3.9697,3.9697,3.9697,3.9697,3.9697,3.9697,3.9697,1.9987,2.1744,2.3772,2.664,2.8323,2.9729,3.1411,3.2616,3.342,3.3621,3.4374,3.4981,3.4981,3.5755,3.6405,0.0,0.0,0.0,0.0,0.0,0.0,0.0,0.0,0.0,0.0,0.0,0.0,0.0,0.0,3.6405,3.6405,3.6405,3.6405,3.6405,3.6405,3.6405,3.6405,3.6405,3.6405,3.6405,3.6405,3.6405,3.6405,3.6405,3.6405,3.6405,3.6606,3.7287,3.8341,3.8718,3.9195,3.9697,3.9697,3.9697,3.9697,3.9697,3.9697,3.9697,3.9697,3.9697,3.9697,3.9697,3.9697,3.9697,3.9697,3.9697,3.9697,3.9697,3.9697,3.9697,3.9697,3.9697,3.9697,3.9697,3.9697,3.9697,3.9697,3.9697,3.9697,3.9697,3.9697,3.9697,3.9697,3.9697,3.9697,3.9697,3.9697,3.9697,3.9697,3.9697,3.9697,3.9697,3.9697,3.9697,3.9697,3.9697,3.9697,3.9697,3.9697,3.9697,3.9697,3.9697,3.9697,3.9697,3.9697,3.9697,3.9697,3.9697,3.9697,3.9697,3.9697,3.9697,1.8957,2.0614,2.2849,2.5116,2.6038,2.7168,2.998,3.1035,3.1662,3.2591,3.352,3.4223,3.4399,3.5203,3.5805,0.0,0.0,0.0,0.0,0.0,0.0,0.0,0.0,0.0,0.0,0.0,0.0,0.0,0.0,0.0,3.6081,3.6304,3.6405,3.6405,3.6405,3.6405,3.6405,3.6405,3.6405,3.6405,3.6405,3.6405,3.6405,3.6405,3.6405,3.6405,3.6405,3.6933,3.7789,3.8341,3.8919,3.9446,3.9622,3.9697,3.9697,3.9697,3.9697,3.9697,3.9697,3.9697,3.9697,3.9697,3.9697,3.9697,3.9697,3.9697,3.9697,3.9697,3.9697,3.9697,3.9697,3.9697,3.9697,3.9697,3.9697,3.9697,3.9697,3.9697,3.9697,3.9697,3.9697,3.9697,3.9697,3.9697,3.9697,3.9697,3.9697,3.9697,3.9697,3.9697,3.9697,3.9697,3.9697,3.9697,3.9697,3.9697,3.9697,3.9697,3.9697,3.9697,3.9697,3.9697,3.9697,3.9697,3.9697,3.9697,3.9697,3.9697,3.9697,3.9697,3.9697,3.9697,0.0,0.0,0.0,2.3351,2.3471,2.4349,2.9302,0.0,2.88,3.1562,3.2566,3.3144,3.3746,3.4299,3.4605,0.0,0.0,0.0,0.0,0.0,0.0,0.0,0.0,0.0,0.0,0.0,0.0,0.0,3.5182,3.5483,3.5483,3.6031,3.6355,3.638,3.638,3.638,3.6405,3.6405,3.6405,3.6405,3.6405,3.6405,3.6405,3.6405,3.6405,3.6405,3.6405,3.6707,3.7211,3.7764,3.8341,3.8919,3.9471,3.9697,3.9697,3.9697,3.9697,3.9697,3.9697,3.9697,3.9697,3.9697,3.9697,3.9697,3.9697,3.9697,3.9697,3.9697,3.9697,3.9697,3.9697,3.9697,3.9697,3.9697,3.9697,3.9697,3.9697,3.9697,3.9697,3.9697,3.9697,3.9697,3.9697,3.9697,3.9697,3.9697,3.9697,3.9697,3.9697,3.9697,3.9697,3.9697,3.9697,3.9697,3.9697,3.9697,3.9697,3.9697,3.9697,3.9697,3.9697,3.9697,3.9697,3.9697,3.9697,3.9697,3.9697,3.9697,3.9697,3.9697,3.9697,3.9697,1.8581,0.0,0.0,0.0,0.0,0.0,0.0,0.0,2.648,2.9239,2.998,3.0608,3.2365,3.2792,0.0,0.0,0.0,0.0,0.0,0.0,0.0,0.0,0.0,0.0,0.0,0.0,0.0,0.0,3.4831,3.4906,3.4906,3.5102,3.5353,3.5755,3.578,3.5956,3.6405,3.6405,3.6405,3.6405,3.6405,3.6405,3.6405,3.6405,3.6405,3.6405,3.6405,3.6505,3.6707,3.7613,3.8341,3.8919,3.9471,3.9697,3.9697,3.9697,3.9697,3.9697,3.9697,3.9697,3.9697,3.9697,3.9697,3.9697,3.9697,3.9697,3.9697,3.9697,3.9697,3.9697,3.9697,3.9697,3.9697,3.9697,3.9697,3.9697,3.9697,3.9697,3.9697,3.9697,3.9697,3.9697,3.9697,3.9697,3.9697,3.9697,3.9697,3.9697,3.9697,3.9697,3.9697,3.9697,3.9697,3.9697,3.9697,3.9697,3.9697,3.9697,3.9697,3.9697,3.9697,3.9697,3.9697,3.9697,3.9697,3.9697,3.9697,3.9697,3.9697,3.9697,3.9697,3.9697,1.9509,2.0162,2.1144,2.1568,0.0,0.0,2.433,2.4556,2.5076,0.0,2.9302,2.9829,3.1562,3.1863,0.0,0.0,0.0,0.0,0.0,0.0,0.0,0.0,0.0,0.0,0.0,3.4048,3.4048,3.4048,3.4248,3.4474,3.468,3.468,3.4831,3.5157,3.5382,3.5658,3.6006,3.6279,3.6405,3.6405,3.6405,3.6405,3.6405,3.6405,3.6405,3.6405,3.6405,3.6405,3.648,3.7563,3.8216,3.8592,3.9396,3.9697,3.9697,3.9697,3.9697,3.9697,3.9697,3.9697,3.9697,3.9697,3.9697,3.9697,3.9697,3.9697,3.9697,3.9697,3.9697,3.9697,3.9697,3.9697,3.9697,3.9697,3.9697,3.9697,3.9697,3.9697,3.9697,3.9697,3.9697,3.9697,3.9697,3.9697,3.9697,3.9697,3.9697,3.9697,3.9697,3.9697,3.9697,3.9697,3.9697,3.9697,3.9697,3.9697,3.9697,3.9697,3.9697,3.9697,3.9697,3.9697,3.9697,3.9697,3.9697,3.9697,3.9697,3.9697,3.9697,3.9697,3.9697,3.9697,2.0665,2.1016,2.197,2.2719,2.1214,0.0,2.4815,2.428,2.4098,0.0,2.9101,2.9428,3.0708,3.0984,0.0,0.0,0.0,0.0,0.0,0.0,0.0,0.0,0.0,0.0,3.3111,3.3111,3.3111,3.3111,3.352,3.4022,3.4525,3.455,3.4575,3.4625,3.5056,3.5382,3.5508,3.6031,3.6355,3.6405,3.6405,3.6405,3.6405,3.6405,3.6405,3.6405,3.6405,3.6405,3.648,3.7563,3.8015,3.8115,3.9245,3.9697,3.9697,3.9697,3.9697,3.9697,3.9697,3.9697,3.9697,3.9697,3.9697,3.9697,3.9697,3.9697,3.9697,3.9697,3.9697,3.9697,3.9697,3.9697,3.9697,3.9697,3.9697,3.9697,3.9697,3.9697,3.9697,3.9697,3.9697,3.9697,3.9697,3.9697,3.9697,3.9697,3.9697,3.9697,3.9697,3.9697,3.9697,3.9697,3.9697,3.9697,3.9697,3.9697,3.9697,3.9697,3.9697,3.9697,3.9697,3.9697,3.9697,3.9697,3.9697,3.9697,3.9697,3.9697,3.9697,3.9697,3.9697,3.9697,2.315,2.3351,2.3226,2.2096,2.2422,0.0,2.1393,2.1468,2.2447,0.0,2.4757,2.5151,2.762,2.8448,0.0,0.0,0.0,0.0,0.0,0.0,0.0,0.0,0.0,0.0,3.3111,3.3111,3.3111,3.3111,3.3212,3.3294,3.3395,3.3395,3.3596,3.4048,3.4173,3.465,3.5483,3.5608,3.5931,3.6405,3.6405,3.6405,3.6405,3.6405,3.6405,3.6405,3.6405,3.6405,3.648,3.7563,3.8015,3.8115,3.9245,3.9697,3.9697,3.9697,3.9697,3.9697,3.9697,3.9697,3.9697,3.9697,3.9697,3.9697,3.9697,3.9697,3.9697,3.9697,3.9697,3.9697,3.9697,3.9697,3.9697,3.9697,3.9697,3.9697,3.9697,3.9697,3.9697,3.9697,3.9697,3.9697,3.9697,3.9697,3.9697,3.9697,3.9697,3.9697,3.9697,3.9697,3.9697,3.9697,3.9697,3.9697,3.9697,3.9697,3.9697,3.9697,3.9697,3.9697,3.9697,3.9697,3.9697,3.9697,3.9697,3.9697,3.9697,3.9697,3.9697,3.9697,3.9697,3.9697,2.4481,2.4406,2.428,2.3678,0.0,0.0,0.0,2.1694,2.2121,2.433,2.413,2.4255,2.6499,0.0,0.0,0.0,0.0,0.0,0.0,0.0,0.0,0.0,0.0,0.0,3.2616,3.2641,3.2767,3.3086,3.3111,3.3111,3.3111,3.3111,3.3194,3.347,3.3746,3.4299,3.5082,3.5357,3.5805,3.6405,3.6405,3.6405,3.6405,3.6405,3.6405,3.6405,3.6405,3.6405,3.648,3.7563,3.8015,3.8115,3.9245,3.9697,3.9697,3.9697,3.9697,3.9697,3.9697,3.9697,3.9697,3.9697,3.9697,3.9697,3.9697,3.9697,3.9697,3.9697,3.9697,3.9697,3.9697,3.9697,3.9697,3.9697,3.9697,3.9697,3.9697,3.9697,3.9697,3.9697,3.9697,3.9697,3.9697,3.9697,3.9697,3.9697,3.9697,3.9697,3.9697,3.9697,3.9697,3.9697,3.9697,3.9697,3.9697,3.9697,3.9697,3.9697,3.9697,3.9697,3.9697,3.9697,3.9697,3.9697,3.9697,3.9697,3.9697,3.9697,3.9697,3.9697,3.9697,3.9697,2.5737,2.5611,2.5711,0.0,0.0,2.3376,0.0,0.0,0.0,0.0,0.0,0.0,0.0,0.0,0.0,0.0,0.0,0.0,0.0,0.0,0.0,0.0,0.0,0.0,0.0,3.1813,3.2039,3.2692,3.2667,3.2692,3.2893,3.3061,3.3111,3.3111,3.352,3.3997,3.455,3.5056,3.5655,3.6207,3.6355,3.6405,3.6405,3.6405,3.6405,3.6405,3.6405,3.6405,3.648,3.7563,3.8015,3.8115,3.9245,3.9697,3.9697,3.9697,3.9697,3.9697,3.9697,3.9697,3.9697,3.9697,3.9697,3.9697,3.9697,3.9697,3.9697,3.9697,3.9697,3.9697,3.9697,3.9697,3.9697,3.9697,3.9697,3.9697,3.9697,3.9697,3.9697,3.9697,3.9697,3.9697,3.9697,3.9697,3.9697,3.9697,3.9697,3.9697,3.9697,3.9697,3.9697,3.9697,3.9697,3.9697,3.9697,3.9697,3.9697,3.9697,3.9697,3.9697,3.9697,3.9697,3.9697,3.9697,3.9697,3.9697,3.9697,3.9697,3.9697,3.9697,3.9697,3.9697,0.0,0.0,0.0,0.0,2.5812,0.0,0.0,0.0,2.2171,2.1995,0.0,0.0,0.0,0.0,0.0,0.0,0.0,0.0,0.0,0.0,0.0,0.0,0.0,0.0,0.0,3.0357,3.0482,3.1512,3.116,3.1311,3.2265,3.2792,3.3111,3.3111,3.3187,3.3445,3.3997,3.455,3.5056,3.5608,3.6132,3.6405,3.6405,3.6405,3.6405,3.6405,3.6405,3.6405,3.648,3.7563,3.8015,3.8115,3.9245,3.9697,3.9697,3.9697,3.9697,3.9697,3.9697,3.9697,3.9697,3.9697,3.9697,3.9697,3.9697,3.9697,3.9697,3.9697,3.9697,3.9697,3.9697,3.9697,3.9697,3.9697,3.9697,3.9697,3.9697,3.9697,3.9697,3.9697,3.9697,3.9697,3.9697,3.9697,3.9697,3.9697,3.9697,3.9697,3.9697,3.9697,3.9697,3.9697,3.9697,3.9697,3.9697,3.9697,3.9697,3.9697,3.9697,3.9697,3.9697,3.9697,3.9697,3.9697,3.9697,3.9697,3.9697,3.9697,3.9697,3.9697,3.9697,3.9697,0.0,0.0,0.0,0.0,0.0,0.0,2.2071,0.0,2.187,0.0,0.0,0.0,0.0,0.0,0.0,0.0,0.0,0.0,0.0,0.0,0.0,0.0,0.0,0.0,0.0,0.0,0.0,0.0,3.0608,3.0758,3.2139,3.2441,3.2742,3.3111,3.3111,3.3345,3.3897,3.4449,3.4956,3.5508,3.6107,3.6405,3.6405,3.6405,3.6405,3.6405,3.6405,3.6405,3.648,3.7563,3.8015,3.8115,3.9245,3.9697,3.9697,3.9697,3.9697,3.9697,3.9697,3.9697,3.9697,3.9697,3.9697,3.9697,3.9697,3.9697,3.9697,3.9697,3.9697,3.9697,3.9697,3.9697,3.9697,3.9697,3.9697,3.9697,3.9697,3.9697,3.9697,3.9697,3.9697,3.9697,3.9697,3.9697,3.9697,3.9697,3.9697,3.9697,3.9697,3.9697,3.9697,3.9697,3.9697,3.9697,3.9697,3.9697,3.9697,3.9697,3.9697,3.9697,3.9697,3.9697,3.9697,3.9697,3.9697,3.9697,3.9697,3.9697,3.9697,3.9697,3.9697,3.9697,2.875,0.0,0.0,0.0,0.0,0.0,0.0,0.0,0.0,0.0,0.0,0.0,0.0,0.0,0.0,0.0,0.0,0.0,0.0,0.0,0.0,0.0,0.0,0.0,0.0,0.0,0.0,0.0,0.0,2.988,3.1687,3.2064,3.2416,3.2817,3.2993,3.3269,3.3671,3.4374,3.4881,3.5282,3.6031,3.6405,3.6405,3.6405,3.6405,3.6405,3.6405,3.6405,3.648,3.7563,3.8015,3.8115,3.9245,3.9697,3.9697,3.9697,3.9697,3.9697,3.9697,3.9697,3.9697,3.9697,3.9697,3.9697,3.9697,3.9697,3.9697,3.9697,3.9697,3.9697,3.9697,3.9697,3.9697,3.9697,3.9697,3.9697,3.9697,3.9697,3.9697,3.9697,3.9697,3.9697,3.9697,3.9697,3.9697,3.9697,3.9697,3.9697,3.9697,3.9697,3.9697,3.9697,3.9697,3.9697,3.9697,3.9697,3.9697,3.9697,3.9697,3.9697,3.9697,3.9697,3.9697,3.9697,3.9697,3.9697,3.9697,3.9697,3.9697,3.9697,3.9697,3.9697,0.0,0.0,0.0,2.5963,0.0,0.0,0.0,0.0,2.3221,0.0,0.0,0.0,0.0,0.0,0.0,0.0,0.0,0.0,0.0,0.0,0.0,0.0,0.0,0.0,0.0,0.0,0.0,0.0,0.0,0.0,3.0557,3.1662,3.2215,3.224,3.2792,3.3136,3.3136,3.4173,3.4726,3.4731,3.583,3.6405,3.6405,3.6405,3.6405,3.6405,3.6405,3.6405,3.648,3.7563,3.8015,3.8115,3.9245,3.9697,3.9697,3.9697,3.9697,3.9697,3.9697,3.9697,3.9697,3.9697,3.9697,3.9697,3.9697,3.9697,3.9697,3.9697,3.9697,3.9697,3.9697,3.9697,3.9697,3.9697,3.9697,3.9697,3.9697,3.9697,3.9697,3.9697,3.9697,3.9697,3.9697,3.9697,3.9697,3.9697,3.9697,3.9697,3.9697,3.9697,3.9697,3.9697,3.9697,3.9697,3.9697,3.9697,3.9697,3.9697,3.9697,3.9697,3.9697,3.9697,3.9697,3.9697,3.9697,3.9697,3.9697,3.9697,3.9697,3.9697,3.9697,3.9697,0.0,0.0,3.1712,2.8336,0.0,0.0,0.0,0.0,0.0,0.0,0.0,0.0,0.0,0.0,0.0,0.0,0.0,0.0,0.0,0.0,0.0,0.0,0.0,0.0,0.0,0.0,0.0,0.0,2.7494,0.0,0.0,3.1286,3.1838,3.2215,3.2767,3.3111,3.3111,3.4173,3.468,3.468,3.583,3.6405,3.6405,3.6405,3.6405,3.6405,3.6405,3.6405,3.648,3.7563,3.8015,3.8115,3.9245,3.9697,3.9697,3.9697,3.9697,3.9697,3.9697,3.9697,3.9697,3.9697,3.9697,3.9697,3.9697,3.9697,3.9697,3.9697,3.9697,3.9697,3.9697,3.9697,3.9697,3.9697,3.9697,3.9697,3.9697,3.9697,3.9697,3.9697,3.9697,3.9697,3.9697,3.9697,3.9697,3.9697,3.9697,3.9697,3.9697,3.9697,3.9697,3.9697,3.9697,3.9697,3.9697,3.9697,3.9697,3.9697,3.9697,3.9697,3.9697,3.9697,3.9697,3.9697,3.9697,3.9697,3.9697,3.9697,3.9697,3.9697,3.9697,3.9697,3.2215,3.2767,0.0,3.0181,2.9214,0.0,2.5285,0.0,0.0,0.0,0.0,0.0,0.0,0.0,0.0,0.0,0.0,0.0,0.0,1.8807,0.0,0.0,0.0,0.0,0.0,0.0,2.5644,2.7168,2.6741,0.0,0.0,0.0,3.1361,3.1913,3.2466,3.2867,3.3111,3.4173,3.468,3.468,3.583,3.6405,3.6405,3.6405,3.6405,3.6405,3.6405,3.6531,3.6782,3.7638,3.814,3.8417,3.9346,3.9697,3.9697,3.9697,3.9697,3.9697,3.9697,3.9697,3.9697,3.9697,3.9697,3.9697,3.9697,3.9697,3.9697,3.9697,3.9697,3.9697,3.9697,3.9697,3.9697,3.9697,3.9697,3.9697,3.9697,3.9697,3.9697,3.9697,3.9697,3.9697,3.9697,3.9697,3.9697,3.9697,3.9697,3.9697,3.9697,3.9697,3.9697,3.9697,3.9697,3.9697,3.9697,3.9697,3.9697,3.9697,3.9697,3.9697,3.9697,3.9697,3.9697,3.9697,3.9697,3.9697,3.9697,3.9697,3.9697,3.9697,3.9697,3.9697]}]]